[[{"header":{"parameterUnit":"m.s-1","parameterCategory":1,"la1":30.6,"la2":29.2853,"lo1":-89.7004,"lo2":-87.6739,"dx":0.0162,"dy":0.0183,"nx":112,"ny":82,"refTime":"2022-12-11T18:00:00:Z","depth":0,"parameterNumber":2,"parameterNumberName":"U-component_of_WINDS"},"data":[0.0,0.0,0.0,0.0,0.0,0.0,0.0,0.0,0.0,0.0,0.0,0.0,0.0,0.0,0.0,0.0,0.0,0.0,0.0,0.0,0.0,0.0,0.0,0.0,0.0,0.0,0.0,0.0,0.0,0.0,0.0,0.0,0.0,0.0,0.0,0.0,0.0,0.0,0.0,0.0,0.0,0.0,0.0,0.0,0.0,0.0,0.0,0.0,0.0,0.0,0.0,0.0,0.0,0.0,0.0,0.0,0.0,0.0,0.0,0.0,0.0,0.0,0.0,0.0,0.0,0.0,0.0,0.0,0.0,0.0,0.0,0.0,0.0,0.0,0.0,0.0,0.0,0.0,0.0,0.0,0.0,0.0,0.0,0.0,0.0,0.0,0.0,0.0,0.0,0.0,3.3395,3.5699,3.7015,3.7494,3.6985,3.6327,3.504,3.2946,0.0,0.0,0.0,0.0,0.0,0.0,0.0,0.0,0.0,0.0,0.0,0.0,0.0,0.0,0.0,0.0,0.0,0.0,0.0,0.0,0.0,0.0,0.0,0.0,0.0,0.0,0.0,0.0,0.0,0.0,0.0,0.0,0.0,0.0,0.0,0.0,0.0,0.0,0.0,0.0,0.0,0.0,0.0,0.0,0.0,0.0,0.0,0.0,0.0,0.0,0.0,0.0,0.0,0.0,0.0,0.0,0.0,0.0,0.0,0.0,0.0,0.0,0.0,0.0,0.0,0.0,0.0,0.0,0.0,0.0,0.0,0.0,0.0,0.0,0.0,0.0,0.0,0.0,0.0,0.0,0.0,0.0,0.0,0.0,0.0,0.0,0.0,0.0,0.0,0.0,0.0,0.0,0.0,0.0,0.0,0.0,0.0,0.0,0.0,0.0,0.0,0.0,0.0,0.0,3.3903,3.7554,3.8661,3.908,3.899,3.8362,3.6866,3.4352,0.0,0.0,0.0,0.0,0.0,0.0,0.0,0.0,0.0,0.0,0.0,0.0,0.0,0.0,0.0,0.0,0.0,0.0,0.0,0.0,0.0,0.0,0.0,0.0,0.0,0.0,0.0,0.0,0.0,0.0,0.0,0.0,0.0,0.0,0.0,0.0,0.0,0.0,0.0,0.0,0.0,0.0,0.0,0.0,0.0,0.0,0.0,0.0,0.0,0.0,0.0,0.0,0.0,0.0,0.0,0.0,0.0,0.0,0.0,0.0,0.0,0.0,0.0,0.0,0.0,0.0,0.0,0.0,0.0,0.0,0.0,0.0,0.0,0.0,0.0,0.0,0.0,0.0,0.0,0.0,0.0,0.0,0.0,0.0,0.0,0.0,0.0,0.0,0.0,0.0,0.0,0.0,0.0,0.0,0.0,0.0,0.0,0.0,0.0,0.0,0.0,0.0,0.0,3.4262,3.6537,3.8721,3.9858,4.0187,3.9469,3.8781,3.7255,3.4651,3.2078,0.0,0.0,0.0,0.0,0.0,0.0,0.0,0.0,0.0,0.0,0.0,0.0,0.0,0.0,0.0,0.0,0.0,0.0,0.0,0.0,0.0,0.0,0.0,0.0,0.0,0.0,0.0,0.0,0.0,0.0,0.0,0.0,0.0,0.0,0.0,0.0,0.0,0.0,0.0,0.0,0.0,0.0,0.0,0.0,0.0,0.0,0.0,0.0,0.0,0.0,0.0,0.0,0.0,0.0,0.0,0.0,0.0,0.0,0.0,0.0,0.0,0.0,0.0,0.0,0.0,0.0,0.0,0.0,0.0,0.0,0.0,0.0,0.0,0.0,0.0,0.0,0.0,0.0,0.0,0.0,0.0,0.0,0.0,0.0,0.0,0.0,0.0,0.0,0.0,0.0,0.0,0.0,0.0,0.0,0.0,0.0,0.0,0.0,0.0,0.0,0.0,0.0,3.6866,3.8781,3.9768,4.0905,4.1205,4.0187,3.92,3.7584,3.51,3.2796,0.0,0.0,0.0,0.0,0.0,0.0,0.0,0.0,0.0,0.0,0.0,0.0,0.0,0.0,0.0,0.0,0.0,0.0,0.0,0.0,0.0,0.0,0.0,0.0,0.0,0.0,0.0,0.0,0.0,0.0,0.0,0.0,0.0,0.0,0.0,0.0,0.0,0.0,0.0,0.0,0.0,0.0,0.0,0.0,0.0,0.0,0.0,0.0,0.0,0.0,0.0,0.0,0.0,0.0,0.0,0.0,0.0,0.0,0.0,0.0,0.0,0.0,0.0,0.0,0.0,0.0,0.0,0.0,0.0,0.0,0.0,0.0,0.0,0.0,0.0,0.0,0.0,0.0,0.0,0.0,0.0,0.0,0.0,0.0,0.0,0.0,0.0,0.0,0.0,0.0,0.0,0.0,0.0,0.0,0.0,0.0,0.0,0.0,0.0,0.0,0.0,0.0,3.7165,3.911,4.1025,4.1863,4.2252,4.2162,4.0427,3.8482,3.6477,3.3305,0.0,0.0,0.0,0.0,0.0,0.0,0.0,0.0,0.0,0.0,0.0,0.0,0.0,0.0,0.0,0.0,0.0,0.0,0.0,0.0,0.0,0.0,0.0,0.0,0.0,0.0,0.0,0.0,0.0,0.0,0.0,0.0,0.0,0.0,0.0,0.0,0.0,0.0,0.0,0.0,0.0,0.0,0.0,0.0,0.0,0.0,0.0,0.0,0.0,0.0,0.0,0.0,0.0,0.0,0.0,0.0,0.0,0.0,0.0,0.0,0.0,0.0,0.0,0.0,0.0,0.0,0.0,0.0,0.0,0.0,0.0,0.0,0.0,0.0,0.0,0.0,0.0,0.0,0.0,0.0,0.0,0.0,0.0,0.0,0.0,0.0,0.0,0.0,0.0,0.0,0.0,0.0,0.0,0.0,0.0,0.0,0.0,0.0,0.0,0.0,0.0,0.0,3.7823,3.9798,4.1773,4.294,4.3419,4.3,4.1175,3.917,3.7195,0.0,0.0,0.0,0.0,0.0,0.0,0.0,0.0,0.0,0.0,0.0,0.0,0.0,0.0,0.0,0.0,0.0,0.0,0.0,0.0,0.0,0.0,0.0,0.0,0.0,0.0,0.0,0.0,0.0,0.0,0.0,0.0,0.0,0.0,0.0,0.0,0.0,0.0,0.0,0.0,0.0,0.0,0.0,0.0,0.0,0.0,0.0,0.0,0.0,0.0,0.0,0.0,0.0,0.0,0.0,0.0,0.0,0.0,0.0,0.0,0.0,0.0,0.0,0.0,0.0,0.0,0.0,0.0,0.0,0.0,0.0,0.0,0.0,0.0,0.0,0.0,0.0,0.0,0.0,0.0,0.0,0.0,0.0,0.0,0.0,0.0,0.0,0.0,0.0,0.0,0.0,0.0,0.0,0.0,0.0,0.0,0.0,0.0,0.0,0.0,0.0,0.0,3.6746,3.8811,4.0786,4.2761,4.3958,4.4377,4.3688,4.1833,3.9858,3.7853,0.0,0.0,0.0,0.0,0.0,0.0,0.0,0.0,0.0,0.0,0.0,0.0,0.0,0.0,0.0,0.0,0.0,0.0,0.0,0.0,0.0,0.0,0.0,0.0,0.0,0.0,0.0,0.0,0.0,0.0,0.0,0.0,0.0,0.0,0.0,0.0,0.0,0.0,0.0,0.0,0.0,0.0,0.0,0.0,0.0,0.0,0.0,0.0,0.0,0.0,0.0,0.0,0.0,0.0,0.0,0.0,0.0,0.0,0.0,0.0,0.0,0.0,0.0,0.0,0.0,0.0,0.0,0.0,0.0,0.0,0.0,0.0,0.0,0.0,0.0,0.0,0.0,0.0,0.0,0.0,0.0,0.0,0.0,0.0,0.0,0.0,0.0,0.0,0.0,0.0,0.0,0.0,0.0,0.0,0.0,0.0,0.0,0.0,0.0,0.0,0.0,0.0,3.8063,4.0127,4.2132,4.4107,4.4915,4.5035,4.4377,4.2521,4.0546,0.0,0.0,0.0,0.0,0.0,0.0,0.0,0.0,0.0,0.0,0.0,0.0,0.0,0.0,0.0,0.0,0.0,0.0,0.0,0.0,0.0,0.0,0.0,0.0,0.0,0.0,0.0,0.0,0.0,0.0,0.0,0.0,0.0,0.0,0.0,0.0,0.0,0.0,0.0,0.0,0.0,0.0,0.0,0.0,0.0,0.0,0.0,0.0,0.0,0.0,0.0,0.0,0.0,0.0,0.0,0.0,0.0,0.0,0.0,0.0,0.0,0.0,0.0,0.0,0.0,0.0,0.0,0.0,0.0,0.0,0.0,0.0,0.0,0.0,0.0,0.0,0.0,0.0,0.0,0.0,0.0,0.0,0.0,0.0,0.0,0.0,0.0,0.0,0.0,0.0,0.0,0.0,0.0,0.0,0.0,0.0,0.0,0.0,0.0,0.0,0.0,0.0,0.0,3.8063,4.0127,4.2132,4.4107,4.5334,4.5933,4.5753,4.3898,4.2102,4.0606,0.0,0.0,0.0,0.0,0.0,0.0,0.0,0.0,0.0,0.0,0.0,0.0,0.0,0.0,0.0,0.0,0.0,0.0,0.0,0.0,0.0,0.0,0.0,0.0,0.0,0.0,0.0,0.0,0.0,0.0,0.0,0.0,0.0,0.0,0.0,0.0,0.0,0.0,0.0,0.0,0.0,0.0,0.0,0.0,0.0,0.0,0.0,0.0,0.0,0.0,0.0,0.0,0.0,0.0,0.0,0.0,0.0,0.0,0.0,0.0,0.0,0.0,0.0,0.0,0.0,0.0,0.0,0.0,0.0,0.0,0.0,0.0,0.0,0.0,0.0,0.0,0.0,0.0,0.0,0.0,0.0,0.0,0.0,0.0,0.0,0.0,0.0,0.0,0.0,0.0,0.0,0.0,0.0,0.0,0.0,0.0,0.0,0.0,0.0,0.0,0.0,0.0,3.8871,4.1145,4.3299,4.5304,4.6232,4.6881,4.7189,4.5259,4.3578,4.2364,0.0,0.0,0.0,0.0,0.0,0.0,0.0,0.0,0.0,0.0,0.0,0.0,0.0,0.0,0.0,0.0,0.0,0.0,0.0,0.0,0.0,0.0,0.0,0.0,0.0,0.0,0.0,0.0,0.0,0.0,0.0,0.0,0.0,0.0,0.0,0.0,0.0,0.0,0.0,0.0,0.0,0.0,0.0,0.0,0.0,0.0,0.0,0.0,0.0,0.0,0.0,0.0,0.0,0.0,0.0,0.0,0.0,0.0,0.0,0.0,0.0,0.0,0.0,0.0,0.0,0.0,0.0,0.0,0.0,0.0,0.0,0.0,0.0,0.0,0.0,0.0,0.0,0.0,0.0,0.0,0.0,0.0,0.0,0.0,0.0,0.0,0.0,0.0,0.0,0.0,0.0,0.0,0.0,0.0,0.0,0.0,0.0,0.0,0.0,0.0,0.0,0.0,4.0217,4.2791,4.5155,4.71,4.7429,4.7774,4.8583,4.6675,4.5022,4.4044,0.0,0.0,0.0,0.0,0.0,0.0,0.0,0.0,0.0,0.0,0.0,0.0,0.0,0.0,0.0,0.0,0.0,0.0,0.0,0.0,0.0,0.0,0.0,0.0,0.0,0.0,0.0,0.0,0.0,0.0,0.0,0.0,0.0,0.0,0.0,0.0,0.0,0.0,0.0,0.0,0.0,0.0,0.0,0.0,0.0,0.0,0.0,0.0,0.0,0.0,0.0,0.0,0.0,0.0,0.0,0.0,0.0,0.0,0.0,0.0,3.2547,3.0202,0.0,0.0,0.0,0.0,0.0,0.0,0.0,0.0,0.0,0.0,0.0,0.0,0.0,0.0,0.0,0.0,0.0,0.0,0.0,0.0,0.0,0.0,0.0,0.0,0.0,0.0,0.0,0.0,0.0,0.0,0.0,0.0,0.0,0.0,0.0,0.0,0.0,0.0,0.0,0.0,4.0846,4.3449,4.5663,4.716,4.8237,4.895,4.932,4.7794,4.6872,4.6957,4.5038,0.0,0.0,0.0,0.0,0.0,0.0,0.0,0.0,0.0,0.0,0.0,0.0,0.0,0.0,0.0,0.0,0.0,0.0,0.0,0.0,0.0,0.0,0.0,0.0,0.0,0.0,0.0,0.0,0.0,0.0,0.0,0.0,0.0,0.0,0.0,0.0,0.0,0.0,0.0,0.0,0.0,0.0,0.0,0.0,0.0,0.0,0.0,0.0,0.0,0.0,0.0,0.0,0.0,0.0,0.0,0.0,0.0,0.0,0.0,3.6462,3.4105,0.0,0.0,0.0,0.0,0.0,0.0,0.0,0.0,0.0,0.0,0.0,0.0,0.0,0.0,0.0,0.0,0.0,0.0,0.0,0.0,0.0,0.0,0.0,0.0,0.0,0.0,0.0,0.0,0.0,0.0,0.0,0.0,0.0,0.0,0.0,0.0,0.0,0.0,0.0,0.0,4.326,4.5834,4.8142,4.9835,5.0636,5.1468,5.225,5.0954,4.9946,4.9469,4.8029,0.0,0.0,0.0,0.0,0.0,0.0,0.0,0.0,0.0,0.0,0.0,0.0,0.0,0.0,0.0,0.0,0.0,0.0,0.0,0.0,0.0,0.0,0.0,0.0,0.0,0.0,0.0,0.0,0.0,0.0,0.0,0.0,0.0,0.0,0.0,0.0,0.0,0.0,0.0,0.0,0.0,0.0,0.0,0.0,0.0,0.0,0.0,0.0,0.0,0.0,0.0,0.0,0.0,4.0328,4.1632,4.2237,4.3562,4.4257,4.4191,4.0448,3.846,3.7765,3.6539,0.0,0.0,0.0,0.0,0.0,0.0,0.0,0.0,0.0,0.0,0.0,0.0,0.0,0.0,0.0,0.0,0.0,0.0,0.0,0.0,0.0,0.0,3.9398,4.1493,4.272,4.2288,3.8097,0.0,0.0,0.0,0.0,0.0,0.0,0.0,0.0,0.0,0.0,0.0,4.6158,4.8618,5.1023,5.3017,5.3429,5.4166,5.536,5.4301,5.3036,5.201,5.095,4.9079,0.0,0.0,0.0,0.0,0.0,0.0,0.0,0.0,0.0,0.0,0.0,0.0,0.0,0.0,0.0,0.0,0.0,0.0,0.0,0.0,0.0,0.0,0.0,0.0,0.0,0.0,0.0,0.0,0.0,0.0,0.0,0.0,2.5016,2.5196,0.0,0.0,0.0,0.0,0.0,0.0,0.0,0.0,0.0,0.0,0.0,0.0,0.0,3.6589,3.943,3.982,4.0958,4.2767,4.3701,4.4528,4.5251,4.6079,4.6808,4.7371,4.6146,0.0,4.0845,4.0647,0.0,0.0,0.0,0.0,0.0,0.0,0.0,0.0,0.0,0.0,0.0,0.0,0.0,0.0,0.0,0.0,0.0,0.0,0.0,0.0,0.0,0.0,4.3854,4.4362,4.5405,4.5986,4.4702,4.3449,4.2301,4.1544,4.1898,4.1953,0.0,0.0,0.0,0.0,0.0,0.0,4.825,5.0359,5.2289,5.3777,5.5043,5.5898,5.6201,5.54,5.498,5.5061,5.3084,5.1466,5.0472,4.7902,0.0,0.0,0.0,0.0,0.0,0.0,0.0,0.0,0.0,0.0,0.0,0.0,0.0,0.0,0.0,0.0,0.0,0.0,0.0,0.0,0.0,0.0,0.0,0.0,0.0,0.0,0.0,0.0,0.0,2.5854,2.744,2.7799,2.8667,2.9385,0.0,0.0,0.0,0.0,0.0,0.0,0.0,0.0,0.0,3.8309,3.9852,4.1416,4.2873,4.3695,4.4574,4.5483,4.6609,4.7338,4.7669,4.8431,4.8928,4.9226,4.8895,4.7603,4.5649,4.439,4.3264,4.2303,0.0,0.0,0.0,0.0,4.1073,4.0902,4.165,4.1923,4.1946,4.1881,0.0,0.0,0.0,0.0,0.0,0.0,0.0,4.4065,4.4841,4.6121,4.7274,4.7736,4.8925,4.9889,4.9558,4.8995,4.7703,4.4887,4.4622,4.4792,4.4644,4.5107,0.0,0.0,0.0,4.9544,5.1197,5.3311,5.536,5.7214,5.8352,5.9174,5.961,5.8997,5.8231,5.7463,5.5743,5.402,5.2539,5.0485,4.8133,0.0,0.0,0.0,0.0,0.0,0.0,0.0,0.0,0.0,0.0,0.0,0.0,0.0,0.0,0.0,0.0,0.0,0.0,0.0,0.0,0.0,0.0,0.0,0.0,0.0,0.0,0.0,0.0,2.8493,3.0105,3.0824,3.1571,3.2322,0.0,0.0,0.0,0.0,0.0,0.0,3.7598,4.0151,4.1814,4.2206,4.4207,4.5516,4.6079,4.7206,4.7934,4.8299,4.9591,5.022,5.0253,5.0982,5.1313,5.1313,5.1313,5.1015,5.0286,4.7703,4.6212,4.5516,4.5516,4.5218,4.4754,4.4754,4.4754,4.4821,4.5351,4.5516,4.5516,4.5516,4.5417,4.5185,4.4854,0.0,0.0,0.0,0.0,4.7139,4.8067,4.9392,5.0684,5.1413,5.2572,5.3467,5.3467,5.3467,5.2307,4.8266,4.7471,4.7636,4.8199,4.8431,0.0,5.0286,5.1578,5.2904,5.4361,5.6282,5.8237,6.0092,6.1119,6.1881,6.2411,6.198,6.1119,5.9827,5.8336,5.6713,5.4891,5.3069,5.0916,4.8365,0.0,0.0,0.0,0.0,0.0,0.0,0.0,0.0,0.0,0.0,0.0,0.0,0.0,0.0,0.0,0.0,0.0,0.0,0.0,0.0,0.0,0.0,0.0,0.0,0.0,0.0,0.0,0.0,0.0,3.4284,3.5457,0.0,0.0,0.0,0.0,3.9309,4.0534,4.1902,4.3327,4.4118,4.5185,4.6513,4.6742,4.7802,4.9922,5.0021,5.075,5.2108,5.2837,5.3202,5.3235,5.3964,5.4295,5.4295,5.4295,5.4295,5.3964,5.0419,4.8498,4.7835,4.7835,4.7802,4.7769,4.7769,4.7769,4.7802,4.7835,4.7835,4.7835,4.7835,4.7371,4.6908,4.757,4.7305,0.0,0.0,4.9425,5.032,5.1744,5.3169,5.4427,5.5189,5.5918,5.6481,5.6481,5.6481,5.5587,5.2605,5.2042,5.2075,5.2108,0.0,5.3367,5.4129,5.4924,5.5951,5.7376,5.8899,6.0158,6.0953,6.2312,6.3173,6.3206,6.3173,6.2842,6.2047,6.0655,5.9463,5.8668,5.5885,5.3632,5.2142,4.9988,0.0,0.0,0.0,0.0,0.0,0.0,0.0,0.0,0.0,0.0,0.0,0.0,0.0,0.0,0.0,0.0,0.0,0.0,0.0,0.0,0.0,0.0,0.0,0.0,0.0,0.0,0.0,0.0,3.7739,3.8647,0.0,4.0801,4.1533,4.2235,4.3008,4.4264,4.5236,4.5763,4.7341,4.8498,4.9028,5.0386,5.1479,5.2274,5.2738,5.35,5.446,5.4725,5.509,5.5521,5.5786,5.5918,5.5918,5.5918,5.5918,5.5819,5.4527,5.3003,5.1479,5.1479,5.1214,5.0817,5.0817,5.0817,5.0949,5.1877,5.2208,5.2208,5.2208,5.138,5.0551,5.128,5.1645,5.2009,5.3003,5.3831,5.4494,5.5024,5.6249,5.7409,5.7674,5.8668,5.9529,5.9529,5.9529,5.9231,5.8204,5.6448,5.5156,5.5156,5.5752,5.6316,5.6581,5.7674,5.88,5.9794,6.0788,6.1848,6.3073,6.367,6.4167,6.4597,6.42,6.3835,6.3603,6.2212,6.1086,6.0357,5.8403,5.6448,5.4494,5.234,5.0121,0.0,0.0,0.0,0.0,0.0,0.0,0.0,0.0,0.0,0.0,0.0,0.0,0.0,0.0,0.0,0.0,0.0,0.0,0.0,0.0,0.0,0.0,0.0,0.0,0.0,3.7897,3.9518,4.1276,4.198,4.2944,4.4363,4.4919,4.5505,4.6225,4.7375,4.8233,4.873,5.0353,5.1512,5.2042,5.3434,5.4394,5.4891,5.5388,5.5984,5.6713,5.6713,5.6978,5.7442,5.7707,5.7806,5.7806,5.8071,5.8171,5.8171,5.8171,5.7309,5.5918,5.4891,5.4229,5.3831,5.3831,5.3831,5.3964,5.4924,5.5256,5.5256,5.5256,5.4593,5.3964,5.4659,5.5222,5.5786,5.6514,5.7243,5.7806,5.7806,5.8899,5.9993,5.9993,6.0953,6.1848,6.1848,6.2013,6.2179,6.2212,6.0026,5.8171,5.8171,5.8601,5.8999,5.9231,6.0324,6.1351,6.208,6.304,6.4001,6.4995,6.5326,6.5657,6.6121,6.5724,6.5425,6.5492,6.4332,6.3305,6.2577,6.1152,5.933,5.7144,5.446,5.2274,5.0551,0.0,0.0,0.0,0.0,0.0,0.0,0.0,0.0,0.0,0.0,0.0,0.0,0.0,0.0,0.0,0.0,0.0,0.0,0.0,0.0,0.0,0.0,0.0,3.8858,4.0498,4.2548,4.4756,4.5565,4.6477,4.8001,4.8133,4.8465,4.9226,4.9955,5.0982,5.2407,5.3135,5.4195,5.5653,5.5719,5.6415,5.7806,5.7839,5.8237,5.8966,5.8999,5.9032,5.9065,5.9794,6.0092,6.0158,6.0854,6.1185,6.1185,6.1185,6.1185,6.0887,5.7972,5.6812,5.6812,5.6812,5.6846,5.6846,5.6846,5.6846,5.6846,5.6846,5.6846,5.6978,5.7707,5.7939,5.8071,5.8833,5.9562,6.0125,6.0125,6.1185,6.2278,6.2312,6.2875,6.3405,6.3405,6.3935,6.4432,6.4465,6.2775,6.1285,6.1251,6.1251,6.1516,6.2212,6.2941,0.0,6.4332,6.5657,6.6552,6.6552,6.7181,6.7612,6.7612,6.7612,6.7612,6.7612,6.6949,6.622,6.5525,6.4133,6.2345,6.0125,5.6514,5.4295,5.3533,0.0,0.0,0.0,0.0,0.0,0.0,0.0,0.0,0.0,0.0,0.0,0.0,0.0,0.0,0.0,0.0,0.0,0.0,0.0,0.0,0.0,4.1612,4.2704,4.2982,4.3986,4.5464,4.7638,4.8068,4.8995,5.0982,5.1181,5.1678,5.2937,5.3202,5.3732,5.4692,5.5388,5.6216,5.7177,5.7707,5.8204,5.8601,5.9131,5.9761,6.0523,6.102,6.155,6.208,6.2278,6.2378,6.2378,6.261,6.2676,6.2676,6.2676,6.2676,6.251,6.0622,5.9893,5.9893,5.9893,6.0225,6.0655,6.0655,6.0655,6.0655,6.0655,6.0324,6.0026,6.0755,6.0953,6.1119,6.1848,6.2212,6.251,6.304,6.3835,6.4664,6.5194,6.5889,6.6419,6.6419,6.6585,6.6717,6.6717,6.6254,6.5492,6.4399,6.4664,6.5094,6.5293,6.5955,6.6485,6.6684,6.7082,6.7314,6.7314,6.7512,6.7612,6.7612,6.7612,6.7612,6.7612,6.7446,6.7247,6.7016,6.6121,6.4365,6.1616,5.9032,5.7342,0.0,0.0,0.0,0.0,0.0,0.0,0.0,0.0,0.0,0.0,0.0,0.0,0.0,0.0,0.0,0.0,0.0,0.0,0.0,0.0,0.0,0.0,4.4311,4.5534,4.681,4.7106,4.7901,4.979,5.0286,5.1082,5.2672,5.3102,5.3765,5.4891,5.5256,5.5752,5.6481,5.721,5.8104,5.9164,5.9595,6.0258,6.1152,6.1318,6.1748,6.2477,6.2577,6.304,6.3736,6.4034,6.4332,6.4664,6.4962,6.5094,6.5094,6.5094,6.5094,6.4895,0.0,0.0,0.0,0.0,6.2278,6.2643,6.2643,6.2842,6.3107,6.3107,6.3007,6.304,6.3769,6.4001,6.4167,6.4895,6.5094,6.5194,6.5624,6.6055,6.6452,6.6883,6.7314,6.7612,6.7612,6.7844,6.8076,6.8076,6.8307,0.0,6.7413,6.7115,6.6982,6.6982,6.7612,6.8076,6.8076,6.8341,6.8539,6.8539,6.8539,6.8539,6.8539,6.8539,0.0,0.0,0.0,6.8407,6.8076,6.7082,0.0,0.0,0.0,6.0357,5.9628,5.8171,0.0,0.0,5.138,5.0717,0.0,0.0,0.0,0.0,0.0,0.0,0.0,0.0,0.0,0.0,0.0,0.0,0.0,0.0,0.0,0.0,4.6775,4.8034,5.0154,4.9955,5.0055,5.138,5.2175,5.2937,5.3699,5.4361,5.509,5.5918,5.6581,5.7309,5.8138,5.8866,0.0,0.0,0.0,6.2411,6.4299,6.3802,6.3902,6.463,6.4034,6.41,6.4763,6.5392,6.6022,6.6684,6.7347,6.7612,6.7612,6.7612,6.7612,6.738,6.4763,6.3769,6.3769,6.3769,6.3769,6.3769,6.3769,0.0,0.0,6.4763,6.516,6.579,6.6452,6.6651,6.6784,6.7446,6.7612,6.7645,6.7711,6.7744,6.7777,6.7844,6.7877,6.7877,6.7877,6.8374,6.8804,6.8804,6.9334,6.9798,6.9798,6.8705,6.7877,6.7877,6.8407,6.8804,6.8804,6.9401,6.9798,6.9798,6.9798,0.0,6.9798,6.9798,6.9798,6.9798,6.9798,6.95,6.8837,6.7512,6.6452,6.579,6.4365,6.3305,6.2643,6.1285,6.0622,6.0523,5.7442,5.6051,0.0,0.0,0.0,0.0,0.0,0.0,0.0,0.0,0.0,0.0,0.0,0.0,0.0,0.0,0.0,4.8067,4.9094,5.0121,5.1744,5.2307,5.2672,5.297,5.3665,5.4626,5.5918,5.6183,5.6812,5.8171,5.8403,5.9065,6.039,6.1152,6.1947,6.2842,6.3438,6.3935,6.4365,6.4796,6.5359,6.6121,6.6552,0.0,6.7016,6.7148,6.7281,6.7413,6.7579,6.7612,6.7612,6.7612,6.7612,6.7579,6.7016,6.6784,6.6784,6.6784,6.6784,6.6784,6.6784,6.6883,6.6982,6.6982,6.7082,6.7214,6.738,6.7413,0.0,6.7579,6.7612,6.7744,6.8341,6.8473,6.8639,6.9235,6.9368,6.9368,6.9368,6.95,6.9566,6.9566,6.9699,6.9798,6.9798,6.9566,6.9368,6.9368,6.95,6.9566,6.9566,6.9699,6.9798,6.9798,6.9798,6.9798,6.9798,6.9798,6.9798,6.9798,6.9798,6.9732,6.9599,6.8738,6.8208,6.8042,6.6618,6.5823,6.569,6.4796,6.4365,6.4266,6.0158,5.8601,0.0,0.0,0.0,0.0,0.0,0.0,0.0,0.0,0.0,0.0,0.0,4.4291,4.6477,0.0,4.8166,5.0386,5.1048,5.181,5.3235,5.4361,5.4924,5.456,5.5156,5.6051,5.7144,5.7574,5.8403,5.9893,5.9993,6.0655,6.2113,6.2543,6.3206,6.4299,6.4697,6.5425,6.6519,6.6519,6.6883,6.7612,6.7612,6.7811,6.8142,6.8142,6.8374,6.8705,6.8705,6.8705,6.8705,6.8705,6.8705,6.8705,6.8705,6.8274,6.7612,6.7612,6.7612,6.7612,6.7612,6.7844,6.8142,6.8142,6.8407,6.8705,6.8705,6.8705,6.8705,6.8705,6.8705,6.8804,6.9136,6.9235,6.9334,6.9699,6.9798,6.9798,6.9798,6.9798,6.9798,6.9798,7.0096,7.0361,7.0361,7.0659,7.0659,6.9898,6.9798,6.9798,6.9798,6.9798,6.9798,6.9798,6.9798,6.9798,6.9798,6.9798,6.9798,6.9798,6.9798,6.9798,6.9798,6.9434,6.9069,6.8705,6.7976,6.7413,6.7082,6.6684,6.6519,6.6452,6.4441,6.3126,0.0,0.0,0.0,0.0,0.0,0.0,0.0,4.2734,4.3727,4.5052,4.5914,4.6941,4.8564,4.9326,5.0419,5.2473,5.2904,5.3467,5.4759,5.6084,5.6846,5.6713,5.6945,5.7475,5.8336,5.8966,5.9926,6.1417,6.1516,6.2179,6.3603,6.3835,6.4498,6.5823,6.5989,6.6916,6.8672,6.8109,6.8208,6.8904,6.8307,6.8341,6.8904,6.8904,6.9235,6.9798,6.9798,6.9798,6.9798,6.9798,6.9798,6.9798,6.9798,6.9069,6.8042,6.8042,6.8042,6.8042,6.8042,6.8407,6.8904,6.8904,6.9301,6.9798,6.9798,6.9798,6.9798,6.9798,6.9798,6.9798,6.9798,6.9798,6.9831,6.9964,6.9997,7.003,7.0196,7.0229,7.0229,7.0229,7.0693,7.1123,7.1123,7.162,7.1587,7.0394,7.0229,7.0229,7.0229,7.0229,7.0229,7.0229,7.0229,7.0229,7.0229,7.0229,7.0229,7.0229,7.0229,7.0229,7.0229,7.0229,6.9864,6.9136,6.9103,6.8771,6.8042,6.8042,6.8135,6.8135,6.8319,6.7521,4.16,4.1887,4.2255,4.2434,4.3298,4.4125,0.0,4.5417,4.6643,4.7471,4.8233,4.9392,5.1512,5.1976,5.2506,5.403,5.4825,5.5554,5.6349,5.7144,5.8369,6.0258,5.9396,5.9198,6.0622,6.0821,6.1483,6.2908,6.304,6.367,6.5094,6.579,6.6519,6.7347,6.7976,6.844,6.8672,6.8606,6.8937,6.9666,6.9599,6.9599,6.9666,6.9666,6.9699,6.9798,6.9798,6.9798,6.9798,6.9798,6.9798,6.9798,6.9798,6.9699,6.9533,6.9533,6.9533,6.9533,6.9533,6.9599,6.9666,6.9666,6.9732,6.9798,6.9798,6.9798,6.9798,6.9798,6.9798,6.9798,6.9798,6.9798,6.9964,7.0626,7.0792,7.0958,7.162,7.1753,7.1753,7.1753,7.1819,7.1885,7.1885,7.1951,7.1951,7.1786,7.1753,7.1753,7.1753,7.1753,7.1753,7.1753,7.1753,7.1753,7.1753,7.1753,7.1753,7.1753,7.1753,7.1753,7.1753,7.1753,7.1421,7.0659,7.0659,7.0295,6.9533,6.9755,6.9943,6.9943,6.9943,6.9144,4.3228,4.3729,4.4282,4.4716,4.5402,4.6275,4.7201,4.7801,4.863,5.022,5.0817,5.1545,5.3301,5.3632,5.4096,5.5554,5.6051,5.6647,5.7806,5.8966,6.0059,6.0986,6.1318,6.1682,6.2312,6.2378,6.2974,6.4399,6.4531,6.516,6.6618,6.6982,6.7479,6.8241,6.8539,6.8904,6.9334,6.9334,6.95,6.9798,6.9798,6.9798,6.9798,6.9798,6.9798,6.9831,7.0262,7.0428,7.0461,7.0891,7.109,7.109,7.109,7.109,7.0991,7.0096,6.9798,6.9798,6.9798,6.9798,6.9864,7.0295,7.0428,7.0527,7.0958,7.109,7.109,7.109,7.109,7.109,7.109,7.109,7.1156,7.1455,7.1554,7.162,7.1951,7.2018,7.2018,7.2018,7.2349,7.2647,7.2647,7.2978,7.3276,7.3276,7.2548,7.2018,7.2018,7.2018,7.2018,7.2018,7.2018,7.2018,7.2018,7.2018,7.2018,7.2018,7.2018,7.2018,7.2018,7.2018,7.1852,7.1554,7.1554,7.1485,7.1346,7.1475,7.157,7.176,7.1821,7.158,4.5278,4.5992,4.6636,4.7049,4.7661,4.8563,4.9959,5.029,5.0817,5.2605,5.3042,5.3407,5.4593,5.499,5.5596,5.6779,5.7342,5.8038,5.933,6.0589,6.155,6.1947,6.3107,6.3935,6.4167,6.4001,6.4399,6.5624,6.5922,6.6585,6.7844,6.791,6.8241,6.897,6.9003,6.9235,6.9798,6.9798,6.9798,6.9798,6.9798,6.9898,7.0096,7.0295,7.0394,7.0428,7.0958,7.1189,7.1256,7.1786,7.2018,7.2018,7.2018,7.2018,7.1885,7.0792,7.0394,7.0394,7.0394,7.0394,7.0494,7.1024,7.1189,7.1289,7.1852,7.2018,7.2018,7.2018,7.2018,7.2018,7.2018,7.2018,7.2051,7.225,7.2316,7.2349,7.2548,7.2614,7.2614,7.2614,7.3045,7.3409,7.3409,7.384,7.4237,7.4436,7.3575,7.2846,7.2614,7.2614,7.2614,7.2614,7.2614,7.2614,7.2614,7.2614,7.2614,7.2614,7.2614,7.2614,7.2614,7.2614,7.2515,7.2414,7.2381,7.2477,7.2471,7.2567,7.2663,7.2854,7.3043,7.3104,4.868,4.9299,4.9779,4.9813,5.0626,5.1591,5.2357,5.2914,5.35,5.4295,5.4608,5.4915,5.5454,5.6302,5.711,5.7641,5.8966,6.0191,6.0953,6.1682,6.2676,6.41,6.4895,6.5624,6.6353,6.5757,6.5657,6.6419,6.7148,6.7877,6.8606,6.8672,6.9003,6.9732,6.9765,6.9765,6.9798,6.9798,6.9798,6.9798,6.9798,7.0163,7.0891,7.162,7.1951,7.1951,7.1951,7.1985,7.1985,7.1985,7.2018,7.2018,7.2018,7.2018,7.1985,7.1951,7.1951,7.1951,7.1951,7.1951,7.1951,7.1951,7.1985,7.1985,7.1985,7.2018,7.2018,7.2018,7.2018,7.2018,7.2018,7.2018,7.2183,7.2912,7.3078,7.3276,7.3972,7.4105,7.4105,7.4105,7.4105,7.4138,7.4138,7.4171,7.4403,7.5132,7.5198,7.49,7.4204,7.4105,7.4105,7.4105,7.4105,7.4105,7.4105,7.4105,7.4105,7.4105,7.4105,7.4105,7.4105,7.4105,7.3874,7.3473,7.344,7.3205,7.2792,7.2949,7.3104,7.3104,7.3137,7.3104,5.0113,5.0854,5.1496,5.1967,5.2604,5.3369,5.4246,5.4472,5.4728,5.5462,5.5703,5.5903,5.6563,5.7296,5.7986,5.864,5.9842,6.0986,6.1715,6.2875,6.4001,6.4962,6.569,6.6452,6.7181,6.7016,6.7181,6.791,6.8175,6.8639,6.9368,6.9434,6.9533,6.9798,6.9798,6.9798,6.9798,7.0295,7.0527,7.0527,7.1024,7.1388,7.1653,7.1885,7.2018,7.2051,7.2515,7.2746,7.278,7.3243,7.3442,7.3442,7.3442,7.3442,7.3442,7.3442,7.3442,7.331,7.2349,7.2018,7.2084,7.2581,7.2746,7.2813,7.331,7.3442,7.3442,7.3442,7.3442,7.3442,7.3442,7.3442,7.3508,7.374,7.3807,7.4005,7.4734,7.49,7.5032,7.5496,7.5595,7.5595,7.5595,7.5595,7.5662,7.5927,7.596,7.586,7.5628,7.5595,7.5595,7.5595,7.5595,7.5595,7.5595,7.5165,7.49,7.49,7.4436,7.4272,7.4473,7.4473,7.4473,7.4502,7.4502,7.4466,7.4489,7.4489,7.468,7.4871,7.4871,7.4871,5.1695,5.2471,5.3146,5.3618,5.4121,5.472,5.5602,5.5425,5.5381,5.6385,5.6459,5.6493,5.7156,5.805,5.873,5.9197,6.0603,6.1832,6.2647,6.4009,6.5116,6.5724,6.6684,6.7479,6.7976,6.8241,6.8473,6.8672,6.8937,6.9301,6.9765,6.9798,6.9798,6.9798,7.0063,7.0196,7.0196,7.0924,7.1289,7.1289,7.2051,7.2382,7.2415,7.268,7.278,7.2813,7.3276,7.3475,7.3508,7.3972,7.4337,7.4568,7.4568,7.4701,7.4933,7.4933,7.4933,7.4734,7.3276,7.278,7.2846,7.3343,7.3475,7.3575,7.4038,7.4171,7.4204,7.4502,7.4568,7.4635,7.4867,7.4933,7.4933,7.4933,7.4933,7.5065,7.5529,7.5662,7.5761,7.6225,7.6324,7.6324,7.6324,7.6523,7.6689,7.6689,7.692,7.692,7.639,7.6324,7.6324,7.6324,7.6324,7.6324,7.6324,7.5894,7.5662,7.5662,7.5198,7.4935,7.4905,7.4872,7.4939,7.4968,7.5067,7.5228,7.5422,7.5422,7.5518,7.5709,7.5709,7.5614,5.3348,5.4059,5.46,5.4668,5.5069,5.5636,5.6342,5.5828,5.5548,5.6962,5.6768,5.6606,5.7163,5.8428,5.9432,5.9499,6.1132,6.2782,6.3548,6.4914,6.6057,6.6552,6.7844,6.8705,6.8738,6.9368,6.95,6.8804,6.9401,6.9798,6.9798,6.9798,6.9798,6.9864,7.0527,7.0924,7.0958,7.1686,7.2084,7.2117,7.2813,7.3177,7.3177,7.3873,7.4204,7.4237,7.4237,7.4237,7.427,7.427,7.4701,7.533,7.533,7.5728,7.6324,7.6324,7.6324,7.6125,7.4767,7.427,7.427,7.427,7.427,7.427,7.427,7.427,7.4436,7.5132,7.533,7.5496,7.6125,7.6324,7.6324,7.6324,7.6324,7.6324,7.6357,7.6357,7.639,7.6424,7.6424,7.6424,7.6424,7.702,7.7484,7.7484,7.808,7.8014,7.6589,7.6424,7.6424,7.6424,7.6424,7.6424,7.6424,7.639,7.6357,7.6357,7.6324,7.6026,7.5363,7.5502,7.5472,7.5102,7.5363,7.5523,7.5811,7.5811,7.5811,7.5743,7.5743,7.5648,5.4093,5.4465,5.4871,5.5953,5.6288,5.6491,5.6693,5.652,5.6318,5.6149,5.598,5.6153,5.679,5.7406,5.826,5.9332,6.105,6.2695,6.3989,6.5415,6.6808,6.7976,6.8473,6.8904,6.9467,6.9666,6.9699,6.9533,6.9666,6.9798,6.9798,6.9798,7.003,7.0593,7.0792,7.1156,7.172,7.2448,7.3111,7.3608,7.3807,7.3906,7.3906,7.4072,7.4469,7.4999,7.4999,7.5297,7.5761,7.5761,7.5894,7.6059,7.6059,7.6159,7.6324,7.6324,7.6324,7.6258,7.5894,7.5761,7.5761,7.5761,7.5761,7.5761,7.5761,7.5761,7.5794,7.5993,7.6059,7.6092,7.6258,7.6324,7.6324,7.6324,7.6324,7.6457,7.702,7.7362,7.7528,7.7848,7.7947,7.7947,7.7947,7.8113,7.8246,7.8246,7.8411,7.8378,7.8014,7.7947,7.7947,7.7947,7.7947,7.7947,7.7947,7.745,7.7119,7.7119,7.6622,7.6329,7.6369,7.6369,7.6473,7.6576,7.6776,7.6941,7.7039,7.7269,7.713,7.6589,7.6589,7.6284,5.4465,5.5074,5.575,5.6596,5.7036,5.7205,5.6867,5.6562,5.6224,5.5818,5.5446,5.5446,5.619,5.6915,5.7767,5.894,6.1013,6.2931,6.4341,6.6068,6.7538,6.8539,6.897,6.9429,6.9955,6.9893,6.9893,7.0049,6.9893,6.9893,6.9988,7.0192,7.0557,7.1084,7.1618,7.2216,7.2945,7.3376,7.3773,7.4171,7.4171,7.4337,7.4668,7.4668,7.5032,7.5728,7.5728,7.596,7.6324,7.6324,7.649,7.6788,7.6788,7.6987,7.7285,7.7285,7.7285,7.7285,7.7285,7.7285,7.7185,7.6523,7.6324,7.6324,7.6324,7.6324,7.639,7.6689,7.6788,7.6854,7.729,7.739,7.7285,7.7599,7.7599,7.7594,7.8131,7.8336,7.8364,7.8444,7.8511,7.8511,7.8511,7.8617,7.8724,7.8724,7.883,7.8863,7.8863,7.8617,7.8511,7.8511,7.8511,7.8511,7.8511,7.8252,7.7987,7.7914,7.7622,7.7329,7.703,7.7204,7.7276,7.7178,7.7546,7.7745,7.7745,7.7878,7.7773,7.7367,7.7367,7.713,5.4837,5.5818,5.6833,5.6934,5.734,5.7543,5.6833,5.6089,5.5547,5.5446,5.4905,5.4668,5.5446,5.6482,5.7588,5.8354,6.0751,6.2916,6.4348,6.639,6.8086,6.8699,6.9334,6.9893,7.0082,6.9988,7.0021,7.0556,7.0215,7.0121,7.0343,7.0851,7.1283,7.1575,7.2646,7.3541,7.4272,7.4171,7.4171,7.4272,7.427,7.4668,7.5367,7.5363,7.5794,7.6457,7.6457,7.6523,7.6589,7.6589,7.6987,7.755,7.755,7.7947,7.8511,7.8511,7.8511,7.8511,7.8511,7.8511,7.8312,7.702,7.6589,7.6589,7.6589,7.6589,7.6755,7.7384,7.755,7.7715,7.8664,7.8724,7.8617,7.9284,7.9146,7.9041,7.9284,7.9146,7.8936,7.8724,7.8617,7.8617,7.8617,7.883,7.8936,7.8936,7.9179,7.9388,7.9388,7.8969,7.8617,7.8617,7.8617,7.8617,7.8617,7.883,7.883,7.8511,7.8724,7.8531,7.7583,7.8074,7.8082,7.7513,7.7983,7.828,7.828,7.828,7.8247,7.8145,7.8145,7.8077,5.6089,5.6596,5.6934,5.7543,5.734,5.6799,5.6089,5.531,5.4634,5.4025,5.3788,5.3923,5.4634,5.5373,5.6169,5.7364,5.9343,6.1417,6.3515,6.5504,6.7306,6.8851,6.9462,6.9798,6.9893,6.9988,7.0443,7.1104,7.1109,7.1109,7.1109,7.1775,7.2474,7.3074,7.3741,7.4139,7.4506,7.4272,7.4272,7.4506,7.4902,7.5267,7.5604,7.5964,7.6523,7.7219,7.7219,7.7583,7.8146,7.8146,7.8212,7.8345,7.8345,7.8411,7.8511,7.8511,7.8511,7.8511,7.8511,7.8511,7.8477,7.8212,7.8146,7.8146,7.8146,7.8146,7.8179,7.8279,7.8345,7.8345,7.8797,7.8724,7.8617,7.9284,7.9146,7.9041,7.9284,7.9388,7.9388,7.9596,7.9388,7.9284,7.9284,7.9284,7.9284,7.9284,7.9388,7.9388,7.9388,7.9284,7.9284,7.9284,7.9284,7.9284,7.9284,7.9041,7.8936,7.883,7.8936,7.8869,7.863,7.8979,7.9154,7.902,7.9329,7.9499,7.9499,7.9702,7.9498,7.8923,7.8923,7.8585,5.6494,5.707,5.7442,5.7814,5.734,5.6596,5.5886,5.5141,5.4397,5.3653,5.3518,5.3619,5.3957,5.4565,5.5404,5.6667,5.8518,6.0812,6.3417,6.5304,6.7173,6.8851,6.965,7.0082,7.0143,7.0176,7.0603,7.1587,7.1832,7.1937,7.2033,7.2734,7.3469,7.404,7.4306,7.4473,7.4606,7.4372,7.4572,7.5172,7.5201,7.59,7.6837,7.6859,7.739,7.8436,7.8087,7.8286,7.8724,7.8511,7.8511,7.8511,7.8511,7.8511,7.8511,7.8511,7.8511,7.8511,7.8511,7.8511,7.8511,7.8511,7.8617,7.8724,7.8724,7.883,7.8969,7.8969,7.8969,7.9074,7.9251,7.9146,7.9074,7.9699,7.9665,7.9562,7.9596,7.9596,7.9596,7.9596,7.9492,7.9388,7.9388,7.9492,7.9596,7.9596,7.9699,7.9801,7.9801,7.9801,7.9699,7.9388,7.9388,7.9388,7.9388,7.9388,7.9251,7.9146,7.9251,7.9251,7.9179,7.9492,7.9596,7.9596,7.9904,8.0006,8.0006,8.0107,8.0006,7.9667,7.9667,7.9464,5.6596,5.734,5.7848,5.7679,5.7103,5.6393,5.5649,5.4769,5.3923,5.3382,5.3112,5.3078,5.3213,5.3856,5.4768,5.6039,5.801,6.0348,6.3165,6.518,6.7032,6.8802,6.977,7.027,7.0515,7.0497,7.0991,7.2102,7.263,7.2938,7.3194,7.3763,7.4235,7.4771,7.4672,7.4672,7.4771,7.4639,7.4904,7.5806,7.5801,7.6565,7.7974,7.7899,7.8403,7.9388,7.883,7.8724,7.8936,7.8617,7.8511,7.8511,7.8511,7.8511,7.8511,7.8511,7.8511,7.8511,7.8511,7.8511,7.8511,7.8511,7.8617,7.883,7.8936,7.9041,7.9284,7.9388,7.9388,7.9492,7.9699,7.9596,7.9492,8.0006,8.0209,8.0107,7.9904,7.9904,7.9801,7.9596,7.9596,7.9596,7.9596,7.9801,7.9904,7.9904,8.0107,8.0209,8.0209,8.0209,8.0006,7.9596,7.9596,7.9596,7.9596,7.9699,7.9699,7.9492,7.9699,7.9699,7.9492,7.9699,7.9904,7.9904,8.0107,8.0209,8.0209,8.0209,8.0209,8.0209,8.0209,8.0209,5.6596,5.734,5.7712,5.707,5.6359,5.5615,5.4871,5.3551,5.2503,5.2435,5.1894,5.1623,5.23,5.3078,5.4024,5.5299,5.7386,5.9607,6.1929,6.437,6.6568,6.845,6.962,7.027,7.0515,7.1151,7.1855,7.2558,7.3769,7.4472,7.4768,7.4835,7.5,7.5228,7.5067,7.5067,7.5228,7.5439,7.5706,7.594,7.714,7.784,7.825,7.8849,7.9321,7.9388,7.9041,7.8936,7.8936,7.8617,7.8511,7.8511,7.8511,7.8511,7.8511,7.8511,7.8511,7.8511,7.8511,7.8511,7.8511,7.8511,7.8511,7.8617,7.883,7.8936,7.9041,7.9284,7.9388,7.9492,7.9699,7.9596,7.9492,7.9801,8.0006,8.0209,8.0209,8.0209,8.0209,8.0107,8.0107,8.0107,8.0107,8.0209,8.0209,8.0209,8.0209,8.0209,8.0209,8.0209,8.0209,8.0107,8.0107,8.0107,8.0107,7.9904,7.9801,7.9801,7.9801,7.9801,7.9801,8.0006,8.0209,8.0209,8.0209,8.0209,8.0209,8.0209,8.0209,8.0209,8.0209,8.0209,5.5953,5.6359,5.6528,5.6224,5.5581,5.4837,5.4126,5.3078,5.2164,5.1725,5.142,5.1454,5.2164,5.257,5.3281,5.4734,5.6684,5.8833,6.1244,6.4187,6.6698,6.8438,6.9827,7.0641,7.0733,7.1371,7.2311,7.3328,7.4366,7.5067,7.5131,7.5067,7.5067,7.5325,7.5228,7.5463,7.5998,7.584,7.6341,7.7682,7.7777,7.8311,7.9126,7.9358,7.9596,7.9904,7.9146,7.9146,7.9355,7.8724,7.8617,7.8724,7.8511,7.8511,7.8511,7.8511,7.8511,7.8511,7.8511,7.8617,7.8724,7.8724,7.883,7.9074,7.9179,7.9459,7.9665,7.9904,7.9904,7.9904,8.0006,8.0006,7.9904,8.0006,8.0107,8.0209,8.0209,8.0209,8.0209,8.0209,8.0209,8.0209,8.0209,8.0209,8.0209,8.0209,8.0209,8.0209,8.0209,8.0209,8.0209,8.0209,8.0209,8.0209,8.0209,8.0107,8.0006,8.0006,8.0006,8.0006,8.0006,8.0107,8.0209,8.0209,8.0209,8.0209,8.0209,8.0209,8.0209,8.0209,8.0209,8.0209,5.5175,5.5547,5.5683,5.5446,5.4837,5.4059,5.3315,5.2367,5.1488,5.098,5.071,5.0777,5.1522,5.1826,5.2469,5.4025,5.598,5.8241,6.0622,6.3612,6.6268,6.8243,6.9671,7.068,7.1007,7.1791,7.2875,7.4195,7.4862,7.5228,7.5422,7.5228,7.5131,7.5422,7.5658,7.6028,7.6567,7.6609,7.7245,7.8691,7.8518,7.8886,7.9801,7.9699,7.9801,8.0209,7.9355,7.9251,7.9596,7.883,7.8617,7.8724,7.8617,7.8511,7.8511,7.8511,7.8511,7.8511,7.8511,7.8724,7.8936,7.8936,7.9146,7.9492,7.9492,7.9801,8.0107,8.0209,8.0209,8.0209,8.0209,8.0209,8.0209,8.0209,8.0209,8.0209,8.0209,8.0209,8.0209,8.0209,8.0209,8.0209,8.0209,8.0209,8.0209,8.0209,8.0209,8.0209,8.0209,8.0209,8.0209,8.0209,8.0209,8.0209,8.0209,8.0209,8.0209,8.0209,8.0209,8.0209,8.0209,8.0209,8.0209,8.0209,8.0209,8.0209,8.0209,8.0209,8.0209,8.0209,8.0209,8.0209,5.4397,5.5141,5.5547,5.4769,5.4059,5.3315,5.2503,5.1183,5.0101,5.0101,4.9526,4.9255,4.9965,5.071,5.1725,5.3281,5.5378,5.7577,5.981,6.2447,6.5177,6.7658,6.9073,7.0198,7.1244,7.2355,7.371,7.519,7.5131,7.5262,7.5709,7.5422,7.5422,7.5709,7.6487,7.6893,7.6893,7.8017,7.8657,7.8691,7.9431,7.9801,7.9801,8.0107,8.0209,8.0209,7.9596,7.9388,7.9388,7.8724,7.8511,7.8511,7.8511,7.8511,7.8511,7.8511,7.8511,7.8511,7.8511,7.8724,7.8936,7.8936,7.9355,7.9801,7.9801,7.9801,7.9904,8.0107,8.0209,8.0209,8.0209,8.0209,8.0209,8.0209,8.0209,8.0209,8.0209,8.0209,8.0209,8.0209,8.0209,8.0209,8.0209,8.0209,8.0209,8.0209,8.0209,8.0209,8.0209,8.0209,8.0209,8.0209,8.0209,8.0209,8.0209,8.0209,8.0209,8.0209,8.0209,8.0209,8.0209,8.0209,8.0209,8.0209,8.0209,8.0209,8.0209,8.0209,8.0209,8.0209,8.0209,8.0209,5.2976,5.3585,5.4025,5.3213,5.2841,5.2367,5.1082,5.0439,4.9796,4.8815,4.8815,4.9086,4.9323,5.0371,5.1522,5.2536,5.5006,5.7408,5.9133,6.2302,6.5343,6.7624,6.96,7.1357,7.2665,7.3114,7.4026,7.5479,7.5518,7.5518,7.5709,7.5614,7.585,7.6487,7.6758,7.7401,7.8416,7.8556,7.9028,7.9736,7.9803,7.9904,8.0107,8.0209,8.0209,8.0209,7.9801,7.9699,7.9596,7.9041,7.883,7.8724,7.8617,7.8511,7.8511,7.8511,7.8511,7.8511,7.8724,7.8936,7.9284,7.9492,7.9801,8.0107,8.0107,8.0107,8.0107,8.0209,8.0209,8.0209,8.0209,8.0209,8.0209,8.0209,8.0209,8.0209,8.0209,8.0209,8.0209,8.0209,8.0209,8.0209,8.0209,8.0209,8.0209,8.0209,8.0209,8.0209,8.0209,8.0209,8.0209,8.0209,8.0209,8.0209,8.0209,8.0209,8.0209,8.0209,8.0209,8.0209,8.0209,8.0209,8.0209,8.0209,8.0209,8.0209,8.0209,8.0209,8.0209,8.0209,8.0209,8.0209,5.1657,5.2266,5.2536,5.2029,5.1691,5.115,4.9965,4.9458,4.9018,4.8105,4.8274,4.8781,4.9323,5.0405,5.1555,5.257,5.504,5.7408,5.9167,6.2415,6.5628,6.8436,7.0263,7.1887,7.3341,7.3477,7.4086,7.5574,7.5709,7.5709,7.5709,7.5709,7.6183,7.7266,7.7299,7.7874,7.9092,7.9162,7.9533,8.0209,8.0006,8.0006,8.0209,8.0209,8.0209,8.0209,7.9904,7.9801,0.0,7.9146,7.8936,7.9041,7.8724,7.8724,7.8863,7.8863,7.8863,7.883,7.9041,7.9284,7.9596,7.9699,8.0006,8.0209,8.0209,8.0209,8.0209,8.0209,8.0209,8.0209,8.0209,8.0209,8.0209,8.0209,8.0209,8.0209,8.0209,8.0209,8.0209,8.0209,8.0209,8.0209,8.0209,8.0209,8.0209,8.0209,8.0209,8.0209,8.0209,8.0209,8.0209,8.0209,8.0209,8.0209,8.0209,8.0209,8.0209,8.0209,8.0209,8.0209,8.0209,8.0209,8.0209,8.0209,8.0209,8.0209,8.0209,8.0209,8.0209,8.0209,8.0209,8.0209,0.0,5.1014,5.115,5.115,5.0608,4.9898,4.9187,4.8477,0.0,4.7936,4.8003,4.8477,4.9763,5.071,5.1792,5.3281,5.5378,5.7577,5.9776,6.2821,6.617,6.9755,7.0838,7.1887,7.3341,7.3477,7.4086,7.5574,7.5709,7.5709,7.5709,7.5709,7.6386,7.7874,7.7942,7.8382,7.9194,7.987,8.0209,8.0209,8.0209,8.0209,8.0209,8.0209,8.0209,8.0209,7.9904,7.9801,7.9801,7.9251,7.9146,7.9388,7.9041,7.9146,7.9388,7.9388,7.9388,7.9388,7.9388,7.9596,7.9801,7.9801,8.0006,8.0209,8.0209,8.0209,8.0209,8.0209,8.0209,8.0209,8.0209,8.0209,8.0209,8.0209,8.0209,8.0209,8.0209,8.0209,8.0209,8.0209,8.0209,8.0209,8.0209,8.0209,8.0209,8.0209,8.0209,8.0209,8.0209,8.0209,8.0209,8.0209,8.0209,8.0209,8.0209,8.0209,8.0209,8.0209,8.0209,8.0209,8.0209,8.0209,8.0209,8.0209,8.0209,8.0209,8.0209,8.0209,8.0209,8.0209,8.0209,8.0209,4.7361,0.0,5.0338,5.0338,5.0236,4.9898,0.0,4.8883,4.8578,4.8037,4.8815,4.9526,4.9289,5.0777,5.2367,5.3348,5.5378,5.7577,5.9776,6.414,6.7895,6.9925,7.0838,7.1887,7.3341,7.3477,7.4086,7.5574,7.5709,7.5709,7.5709,7.5709,7.6149,7.713,7.7705,7.8619,7.9938,8.0107,8.0209,8.0209,8.0209,8.0209,8.0209,8.0209,8.0209,8.0209,8.0107,8.0006,7.9801,7.9699,7.9492,7.9388,7.9284,7.9284,7.9388,7.9388,7.9388,7.9388,7.9596,7.9801,7.9801,8.0006,8.0209,8.0209,8.0209,8.0209,8.0209,8.0209,8.0209,8.0209,8.0209,8.0209,8.0209,8.0209,8.0209,8.0209,8.0209,8.0209,8.0209,8.0209,8.0209,8.0209,8.0209,8.0209,8.0209,8.0209,8.0209,8.0209,8.0209,8.0209,8.0209,8.0209,8.0209,8.0209,8.0209,8.0209,8.0209,8.0209,8.0209,8.0209,8.0209,8.0209,8.0209,8.0209,8.0209,8.0209,8.0209,8.0209,8.0209,8.0209,8.0209,8.0209,4.5466,4.7394,4.9086,4.9086,4.9357,4.939,4.868,4.8781,4.8883,4.8511,4.9323,5.0168,5.0473,5.1792,5.3348,5.4769,5.6867,5.9573,6.3159,6.6711,6.9383,7.0567,7.1379,7.2259,7.3375,7.3815,7.4492,7.5608,7.5709,7.5709,7.5709,7.5709,7.6082,7.686,7.7604,7.8551,7.9701,8.004,8.0209,8.0209,8.0209,8.0209,8.0209,8.0209,8.0209,8.0209,8.0209,8.0107,8.0006,7.9904,7.9801,7.9801,7.9596,7.9699,7.9801,7.9801,7.9801,7.9801,7.9904,8.0006,8.0006,8.0209,8.0209,8.0209,8.0209,8.0209,8.0209,8.0209,8.0209,8.0209,8.0209,8.0209,8.0209,8.0209,8.0209,8.0209,8.0209,8.0209,8.0209,8.0209,8.0209,8.0209,8.0209,8.0209,8.0209,8.0209,8.0209,8.0209,8.0209,8.0209,8.0209,8.0209,8.0209,8.0209,8.0209,8.0209,8.0209,8.0209,8.0209,8.0209,8.0209,8.0209,8.0209,8.0209,8.0209,8.0209,8.0209,8.0209,8.0209,8.0209,8.0209,8.0209,4.4181,4.6041,4.7767,4.7902,4.8477,4.8883,4.8376,4.8714,4.9187,4.9323,4.9932,5.0845,5.2232,5.3145,5.4397,5.6596,5.9133,6.2448,6.7218,6.9214,7.0466,7.121,7.1954,7.2699,7.3409,7.4153,7.4931,7.5642,7.5709,7.5709,7.5709,7.5709,7.6014,7.669,7.7435,7.8179,7.8923,7.9769,8.0209,8.0209,8.0209,8.0209,8.0209,8.0209,8.0209,8.0209,8.0209,8.0209,8.0209,8.0006,8.0006,8.0209,8.0006,8.0006,8.0209,8.0209,8.0209,8.0209,8.0209,8.0209,8.0209,8.0209,8.0209,8.0209,8.0209,8.0209,8.0209,8.0209,8.0209,8.0209,8.0209,8.0209,8.0209,8.0209,8.0209,8.0209,8.0209,8.0209,8.0209,8.0209,8.0209,8.0209,8.0209,8.0209,8.0209,8.0209,8.0209,8.0209,8.0209,8.0209,8.0209,8.0209,8.0209,8.0209,8.0209,8.0209,8.0209,8.0209,8.0209,8.0209,8.0209,8.0209,8.0209,8.0209,8.0209,8.0209,8.0209,8.0209,8.0209,8.0209,8.0209,8.0209,4.3348,4.5229,4.7124,4.7767,4.8477,4.912,4.9627,4.983,5.0101,5.0744,5.1454,5.2232,5.3145,5.3923,5.5141,5.7374,6.1197,6.485,6.7523,6.9214,7.0466,7.121,7.1954,7.2699,7.3409,7.4153,7.4931,7.5642,7.5709,7.5709,7.5709,7.5709,7.5743,7.5879,7.6657,7.7401,7.8145,7.9498,8.0209,8.0209,8.0209,8.0209,8.0209,8.0209,8.0209,8.0209,8.0209,8.0209,8.0209,8.0209,8.0209,8.0209,8.0209,8.0209,8.0209,8.0209,8.0209,8.0209,8.0209,8.0209,8.0209,8.0209,8.0209,8.0209,8.0209,8.0209,8.0209,8.0209,8.0209,8.0209,8.0209,8.0209,8.0209,8.0209,8.0209,8.0209,8.0209,8.0209,8.0209,8.0209,8.0209,8.0209,8.0209,8.0209,8.0209,8.0209,8.0209,8.0209,8.0209,8.0209,8.0209,8.0209,8.0209,8.0209,8.0209,8.0209,8.0209,8.0209,8.0209,8.0209,8.0209,8.0209,8.0209,8.0209,8.0209,8.0209,8.0209,8.0209,8.0209,8.0209,8.0209,8.0209,4.3686,4.5399,4.7056,4.8206,4.9052,4.9661,4.9999,5.071,5.1386,5.1725,5.2739,5.3788,5.4566,5.5615,5.7509,6.096,6.4241,6.7015,6.8876,7.0094,7.1075,7.1819,7.2563,7.3274,7.4018,7.4762,7.5337,7.5676,7.5709,7.5709,7.5709,7.5709,7.5709,7.5709,7.6487,7.7232,7.7976,7.9058,7.9803,8.0209,8.0209,8.0209,8.0209,8.0209,8.0209,8.0209,8.0209,8.0209,8.0209,8.0209,8.0209,8.0209,8.0209,8.0209,8.0209,8.0209,8.0209,8.0209,8.0209,8.0209,8.0209,8.0209,8.0209,8.0209,8.0209,8.0209,8.0209,8.0209,8.0209,8.0209,8.0209,8.0209,8.0209,8.0209,8.0209,8.0209,8.0209,8.0209,8.0209,8.0209,8.0209,8.0209,8.0209,8.0209,8.0209,8.0209,8.0209,8.0209,8.0209,8.0209,8.0209,8.0209,8.0209,8.0209,8.0209,8.0209,8.0209,8.0209,8.0209,8.0209,8.0209,8.0209,8.0209,8.0209,8.0209,8.0209,8.0209,8.0209,8.0209,8.0209,8.0209,8.0209,4.4125,4.5805,4.7301,4.868,4.956,5.0168,5.0541,5.1623,5.2638,5.2807,5.4059,5.5344,5.6089,5.7848,6.0452,6.4241,6.6711,6.8639,6.9992,7.0838,7.1582,7.2326,7.3037,7.3781,7.4525,7.527,7.5709,7.5709,7.5709,7.5709,7.5709,7.5709,7.5709,7.5709,7.6284,7.6961,7.7739,7.8483,7.9295,8.0209,8.0209,8.0209,8.0209,8.0209,8.0209,8.0209,8.0209,8.0209,8.0209,8.0209,8.0209,8.0209,8.0209,8.0209,8.0209,8.0209,8.0209,8.0209,8.0209,8.0209,8.0209,8.0209,8.0209,8.0209,8.0209,8.0209,8.0209,8.0209,8.0209,8.0209,8.0209,8.0209,8.0209,8.0209,8.0209,8.0209,8.0209,8.0209,8.0209,8.0209,8.0209,8.0209,8.0209,8.0209,8.0209,8.0209,8.0209,8.0209,8.0209,8.0209,8.0209,8.0209,8.0209,8.0209,8.0209,8.0209,8.0209,8.0209,8.0209,8.0209,8.0209,8.0209,8.0209,8.0209,8.0209,8.0209,8.0209,8.0209,8.0209,8.0209,8.0209,8.0209,4.4125,4.6118,4.7821,4.8754,4.956,5.0439,5.1826,5.2807,5.3619,5.4296,5.5615,5.6867,5.7611,6.0689,6.3666,6.5324,6.7523,6.9282,7.0094,7.0838,7.1582,7.2326,7.3037,7.3781,7.4525,7.527,7.5709,7.5709,7.5709,7.5709,7.5709,7.5709,7.5709,7.5709,7.5743,7.6183,7.6961,7.7705,7.8788,8.0209,8.0209,8.0209,8.0209,8.0209,8.0209,8.0209,8.0209,8.0209,8.0209,8.0209,8.0209,8.0209,8.0209,8.0209,8.0209,8.0209,8.0209,8.0209,8.0209,8.0209,8.0209,8.0209,8.0209,8.0209,8.0209,8.0209,8.0209,8.0209,8.0209,8.0209,8.0209,8.0209,8.0209,8.0209,8.0209,8.0209,8.0209,8.0209,8.0209,8.0209,8.0209,8.0209,8.0209,8.0209,8.0209,8.0209,8.0209,8.0209,8.0209,8.0209,8.0209,8.0209,8.0209,8.0209,8.0209,8.0209,8.0209,8.0209,8.0209,8.0209,8.0209,8.0209,8.0209,8.0209,8.0209,8.0209,8.0209,8.0209,8.0209,8.0209,8.0209,8.0209,4.5916,4.7537,4.9058,5.1251,5.2334,5.2909,5.301,5.4363,5.5615,5.5919,5.7509,5.9505,6.167,6.3971,6.6068,6.7557,6.891,7.0026,7.077,7.1515,7.2259,7.3003,7.3747,7.4458,7.5202,7.554,7.5709,7.5709,7.5709,7.5709,7.5709,7.5709,7.5709,7.5709,7.5709,7.6082,7.6893,7.7164,7.8044,7.9532,7.9972,8.0209,8.0209,8.0209,8.0209,8.0209,8.0209,8.0209,8.0209,8.0209,8.0209,8.0209,8.0209,8.0209,8.0209,8.0209,8.0209,8.0209,8.0209,8.0209,8.0209,8.0209,8.0209,8.0209,8.0209,8.0209,8.0209,8.0209,8.0209,8.0209,8.0209,8.0209,8.0209,8.0209,8.0209,8.0209,8.0209,8.0209,8.0209,8.0209,8.0209,8.0209,8.0209,8.0209,8.0209,8.0209,8.0209,8.0209,8.0209,8.0209,8.0209,8.0209,8.0209,8.0209,8.0209,8.0209,8.0209,8.0209,8.0209,8.0209,8.0209,8.0209,8.0209,8.0209,8.0209,8.0209,8.0209,8.0209,8.0209,8.0209,8.0209,8.0209,4.7031,4.8551,4.9873,5.2807,5.4397,5.5277,5.5243,5.6596,5.7848,5.7848,5.981,6.2381,6.5121,6.6677,6.7963,6.9248,7.006,7.0737,7.1244,7.1954,7.2665,7.3409,7.4153,7.4897,7.5642,7.5709,7.5709,7.5709,7.5709,7.5709,7.5709,7.5709,7.5709,7.5709,7.5709,7.5946,7.6521,7.6758,7.7536,7.8754,7.9498,7.9972,8.0209,8.0209,8.0209,8.0209,8.0209,8.0209,8.0209,8.0209,8.0209,8.0209,8.0209,8.0209,8.0209,8.0209,8.0209,8.0209,8.0209,8.0209,8.0209,8.0209,8.0209,8.0209,8.0209,8.0209,8.0209,8.0209,8.0209,8.0209,8.0209,8.0209,8.0209,8.0209,8.0209,8.0209,8.0209,8.0209,8.0209,8.0209,8.0209,8.0209,8.0209,8.0209,8.0209,8.0209,8.0209,8.0209,8.0209,8.0209,8.0209,8.0209,8.0209,8.0209,8.0209,8.0209,8.0209,8.0209,8.0209,8.0209,8.0209,8.0209,8.0209,8.0209,8.0209,8.0209,8.0209,8.0209,8.0209,8.0209,8.0209,8.0209,4.6971,4.8736,5.0255,5.2876,5.5209,5.7205,5.8693,5.9607,6.0148,6.0148,6.255,6.529,6.7523,6.8571,6.935,7.0094,7.0838,7.1312,7.1312,7.1954,7.2665,7.3409,7.4153,7.4897,7.5642,7.5709,7.5709,7.5709,7.5709,7.5709,7.5709,7.5709,7.5709,7.5709,7.5709,7.5709,7.5709,7.6487,7.7266,7.801,7.8754,7.9498,8.0209,8.0209,8.0209,8.0209,8.0209,8.0209,8.0209,8.0209,8.0209,8.0209,8.0209,8.0209,8.0209,8.0209,8.0209,8.0209,8.0209,8.0209,8.0209,8.0209,8.0209,8.0209,8.0209,8.0209,8.0209,8.0209,8.0209,8.0209,8.0209,8.0209,8.0209,8.0209,8.0209,8.0209,8.0209,8.0209,8.0209,8.0209,8.0209,8.0209,8.0209,8.0209,8.0209,8.0209,8.0209,8.0209,8.0209,8.0209,8.0209,8.0209,8.0209,8.0209,8.0209,8.0209,8.0209,8.0209,8.0209,8.0209,8.0209,8.0209,8.0209,8.0209,8.0209,8.0209,8.0209,8.0209,8.0209,8.0209,8.0209,8.0209,4.7808,5.0071,5.2167,5.5141,5.7103,5.8896,6.0926,6.1569,6.2313,6.4377,6.5527,6.6846,6.9079,6.9688,7.0128,7.0872,7.1176,7.1312,7.1312,7.2394,7.324,7.3443,7.4593,7.5473,7.5676,7.5709,7.5709,7.5709,7.5709,7.5709,7.5709,7.5709,7.5709,7.5709,7.5709,7.5709,7.5709,7.5946,7.669,7.7976,7.8213,7.8991,8.0209,8.0209,8.0209,8.0209,8.0209,8.0209,8.0209,8.0209,8.0209,8.0209,8.0209,8.0209,8.0209,8.0209,8.0209,8.0209,8.0209,8.0209,8.0209,8.0209,8.0209,8.0209,8.0209,8.0209,8.0209,8.0209,8.0209,8.0209,8.0209,8.0209,8.0209,8.0209,8.0209,8.0209,8.0209,8.0209,8.0209,8.0209,8.0209,8.0209,8.0209,8.0209,8.0209,8.0209,8.0209,8.0209,8.0209,8.0209,8.0209,8.0209,8.0209,8.0209,8.0209,8.0209,8.0209,8.0209,8.0209,8.0209,8.0209,8.0209,8.0209,8.0209,8.0209,8.0209,8.0209,8.0209,8.0209,8.0209,8.0209,8.0209,4.8084,5.0578,5.2977,5.6055,5.8152,6.0283,6.3429,6.414,6.4816,6.7218,6.7963,6.8673,7.0331,7.0635,7.077,7.1244,7.1312,7.1312,7.1312,7.2563,7.3477,7.3477,7.4796,7.5709,7.5709,7.5709,7.5709,7.5709,7.5709,7.5709,7.5709,7.5709,7.5709,7.5709,7.5709,7.5709,7.5709,7.5709,7.6454,7.7976,7.7976,7.8754,8.0209,8.0209,8.0209,8.0209,8.0209,8.0209,8.0209,8.0209,8.0209,8.0209,8.0209,8.0209,8.0209,8.0209,8.0209,8.0209,8.0209,8.0209,8.0209,8.0209,8.0209,8.0209,8.0209,8.0209,8.0209,8.0209,8.0209,8.0209,8.0209,8.0209,8.0209,8.0209,8.0209,8.0209,8.0209,8.0209,8.0209,8.0209,8.0209,8.0209,8.0209,8.0209,8.0209,8.0209,8.0209,8.0209,8.0209,8.0209,8.0209,8.0209,8.0209,8.0209,8.0209,8.0209,8.0209,8.0209,8.0209,8.0209,8.0209,8.0209,8.0209,8.0209,8.0209,8.0209,8.0209,8.0209,8.0209,8.0209,8.0209,8.0209,4.7962,5.0517,5.2943,5.6156,5.8761,6.1704,6.5865,6.6981,6.7523,6.891,6.9722,7.0432,7.1176,7.1312,7.1312,7.1312,7.1312,7.1345,7.1413,7.2597,7.351,7.3578,7.483,7.5709,7.5709,7.5709,7.5709,7.5709,7.5709,7.5709,7.5709,7.5709,7.5709,7.5709,7.5709,7.5709,7.5709,7.5709,7.6454,7.7976,7.7976,7.8754,8.0209,8.0209,8.0209,8.0209,8.0209,8.0209,8.0209,8.0209,8.0209,8.0209,8.0209,8.0175,8.0107,8.0175,8.0175,8.0107,8.0175,8.0209,8.0209,8.0209,8.0209,8.0209,8.0209,8.0209,8.0209,8.0209,8.0209,8.0209,8.0209,8.0209,8.0209,8.0209,8.0209,8.0209,8.0209,8.0209,8.0209,8.0209,8.0209,8.0209,8.0209,8.0209,8.0209,8.0209,8.0209,8.0209,8.0209,8.0209,8.0209,8.0209,8.0209,8.0209,8.0209,8.0209,8.0209,8.0209,8.0209,8.0209,8.0209,8.0209,8.0209,8.0209,8.0209,8.0209,8.0209,8.0209,8.0209,8.0209,8.0209,8.0209,4.8084,5.1017,5.3889,5.6934,6.1095,6.4884,6.6474,6.8199,6.9553,6.9891,7.0094,7.0432,7.1176,7.1312,7.1312,7.1312,7.1312,7.1515,7.209,7.2935,7.3713,7.4289,7.5134,7.5709,7.5709,7.5709,7.5709,7.5709,7.5709,7.5709,7.5709,7.5709,7.5709,7.5709,7.5709,7.5709,7.5709,7.5709,7.6454,7.7976,7.7976,7.8754,8.0209,8.0209,8.0209,8.0209,8.0209,8.0209,8.0209,8.0209,8.0209,8.0209,8.0209,7.987,7.9431,8.0006,7.9837,7.9431,8.0006,8.0209,8.0209,8.0209,8.0209,8.0209,8.0209,8.0209,8.0209,8.0209,8.0209,8.0209,8.0209,8.0209,8.0209,8.0209,8.0209,8.0209,8.0209,8.0209,8.0209,8.0209,8.0209,8.0209,8.0209,8.0209,8.0209,8.0209,8.0209,8.0209,8.0209,8.0209,8.0209,8.0209,8.0209,8.0209,8.0209,8.0209,8.0209,8.0209,8.0209,8.0209,8.0209,8.0209,8.0209,8.0209,8.0209,8.0209,8.0209,8.0209,8.0209,8.0209,8.0209,8.0209,4.7989,5.0784,5.3991,5.8423,6.2381,6.5662,6.7489,6.8808,6.9857,7.0567,7.0737,7.0838,7.1244,7.1312,7.1312,7.1312,7.1312,7.1582,7.2293,7.3037,7.3747,7.4525,7.527,7.5709,7.5709,7.5709,7.5709,7.5709,7.5709,7.5709,7.5709,7.5709,7.5709,7.5709,7.5709,7.5709,7.5709,7.5709,7.6454,7.7976,7.7976,7.8754,8.0209,8.0209,8.0209,8.0209,8.0209,8.0209,8.0209,8.0209,8.0209,8.0175,7.9803,7.9431,7.916,7.9532,7.9431,7.9228,7.9938,8.0209,8.0209,8.0209,8.0209,8.0209,8.0209,8.0209,8.0209,8.0209,8.0209,8.0209,8.0209,8.0209,8.0209,8.0209,8.0209,8.0209,8.0209,8.0209,8.0209,8.0209,8.0209,8.0209,8.0209,8.0209,8.0209,8.0209,8.0209,8.0209,8.0209,8.0209,8.0209,8.0209,8.0209,8.0209,8.0209,8.0209,8.0209,8.0209,8.0209,8.0209,8.0209,8.0209,8.0209,8.0209,8.0209,8.0209,8.0209,8.0209,8.0209,8.0209,8.0209,8.0209,4.7469,5.0517,5.4228,5.9667,6.2854,6.5358,6.8233,6.9113,6.9688,7.1041,7.1312,7.1312,7.1312,7.1312,7.1312,7.1312,7.1312,7.1616,7.2462,7.3105,7.3815,7.4695,7.5337,7.5709,7.5709,7.5709,7.5709,7.5709,7.5709,7.5709,7.5709,7.5709,7.5709,7.5709,7.5709,7.5709,7.5709,7.5709,7.6454,7.7976,7.8247,7.9025,8.0209,8.0209,8.0209,8.0209,8.0209,8.0209,8.0209,8.0209,8.0209,8.0141,7.9397,7.9025,7.8923,7.9058,7.9025,7.9025,7.9904,8.0209,8.0209,8.0209,8.0209,8.0209,8.0209,8.0209,8.0209,8.0209,8.0209,8.0209,8.0209,8.0209,8.0209,8.0209,8.0209,8.0209,8.0209,8.0209,8.0209,8.0209,8.0209,8.0209,8.0209,8.0209,8.0209,8.0209,8.0209,8.0209,8.0209,8.0209,8.0209,8.0209,8.0209,8.0209,8.0209,8.0209,8.0209,8.0209,8.0209,8.0209,8.0209,8.0209,8.0209,8.0209,8.0209,8.0209,8.0209,8.0209,8.0209,8.0209,8.0209,8.0209,4.6211,5.0953,5.6018,5.9245,6.2403,6.5222,6.7523,6.9079,7.0297,7.1142,7.1312,7.1312,7.1312,7.1312,7.1312,7.1312,7.1312,7.1785,7.3138,7.3443,7.3984,7.5371,7.5642,7.5709,7.5709,7.5709,7.5709,7.5709,7.5709,7.5709,7.5709,7.5709,7.5709,7.5709,7.5709,7.5709,7.5709,7.5709,7.6454,7.801,7.9295,8.0006,8.0209,8.0209,8.0209,8.0209,8.0209,8.0209,8.0209,8.0209,8.0209,8.0141,7.9397,7.872,7.8213,7.8855,7.8686,7.8348,7.9701,8.0209,8.0209,8.0209,8.0209,8.0209,8.0209,8.0209,8.0209,8.0209,8.0209,8.0209,8.0209,8.0209,8.0209,8.0209,8.0209,8.0209,8.0209,8.0209,8.0209,8.0209,8.0209,8.0209,8.0209,8.0209,8.0209,8.0209,8.0209,8.0209,8.0209,8.0209,8.0209,8.0209,8.0209,8.0209,8.0209,8.0209,8.0209,8.0209,8.0209,8.0209,8.0209,8.0209,8.0209,8.0209,8.0209,8.0209,8.0209,8.0209,8.0209,8.0209,8.0209,8.0209,4.6851,5.1054,5.5106,5.7931,6.0671,6.3429,6.6068,6.7827,6.9248,7.0432,7.1007,7.1312,7.1312,7.1312,7.1312,7.1312,7.1312,7.1819,7.3274,7.3477,7.4052,7.5506,7.5709,7.5709,7.5709,7.5709,7.5709,7.5709,7.5709,7.5709,7.5709,7.5709,7.5709,7.5709,7.5709,7.5709,7.5709,7.5709,7.6454,7.801,7.9498,8.0209,8.0209,8.0209,8.0209,8.0209,8.0209,8.0209,8.0175,7.9769,7.96,7.9464,7.8314,7.7671,7.7468,7.8213,7.828,7.8179,7.9701,8.0209,8.0209,8.0209,8.0209,8.0209,8.0209,8.0209,8.0209,8.0209,8.0209,8.0209,8.0209,8.0209,8.0209,8.0209,8.0209,8.0209,8.0209,8.0209,8.0209,8.0209,8.0209,8.0209,8.0209,8.0209,8.0209,8.0209,8.0209,8.0209,8.0209,8.0209,8.0209,8.0209,8.0209,8.0209,8.0209,8.0209,8.0209,8.0209,8.0209,8.0209,8.0209,8.0209,8.0209,8.0209,8.0209,8.0209,8.0209,8.0209,8.0209,8.0209,8.0209,8.0209,4.706,5.0514,5.3518,5.6145,5.8747,6.1434,6.4208,6.6136,6.7827,6.9553,7.05,7.1075,7.1278,7.1312,7.1312,7.1312,7.1481,7.2022,7.3308,7.3646,7.4255,7.554,7.5709,7.5709,7.5709,7.5709,7.5709,7.5709,7.5709,7.5709,7.5709,7.5709,7.5709,7.5709,7.5709,7.5709,7.5709,7.5912,7.669,7.801,7.9295,8.0006,8.0209,8.0209,8.0107,7.9938,8.0107,8.0073,7.987,7.9329,7.8991,7.8686,7.7401,7.6995,7.7232,7.7773,7.8111,7.845,7.9735,8.0209,8.0209,8.0209,8.0209,8.0209,8.0209,8.0209,8.0209,8.0209,8.0209,8.0209,8.0209,8.0209,8.0209,8.0209,8.0209,8.0209,8.0209,8.0209,8.0209,8.0209,8.0209,8.0209,8.0209,8.0209,8.0209,8.0209,8.0209,8.0209,8.0209,8.0209,8.0209,8.0209,8.0209,8.0209,8.0209,8.0209,8.0209,8.0209,8.0209,8.0209,8.0209,8.0209,8.0209,8.0209,8.0209,8.0209,8.0209,8.0209,8.0209,8.0209,8.0209,8.0209,4.595,4.8962,5.1828,5.3988,5.6824,5.9742,6.2042,6.4241,6.644,6.8707,6.9722,7.0466,7.1176,7.1312,7.1312,7.1312,7.1887,7.2597,7.3375,7.4086,7.483,7.5608,7.5709,7.5709,7.5709,7.5709,7.5709,7.5709,7.5709,7.5709,7.5709,7.5709,7.5709,7.5709,7.5709,7.5709,7.5709,7.6454,7.7232,7.801,7.8788,7.9532,8.0209,8.0209,7.9837,7.9194,7.9904,7.9803,7.916,7.9126,7.8686,7.7976,7.7198,7.7333,7.7942,7.7976,7.845,7.916,7.9938,8.0209,8.0209,8.0209,8.0209,8.0209,8.0209,8.0209,8.0209,8.0209,8.0209,8.0209,8.0209,8.0209,8.0209,8.0209,8.0209,8.0209,8.0209,8.0209,8.0209,8.0209,8.0209,8.0209,8.0209,8.0209,8.0209,8.0209,8.0209,8.0209,8.0209,8.0209,8.0209,8.0209,8.0209,8.0209,8.0209,8.0209,8.0209,8.0209,8.0209,8.0209,8.0209,8.0209,8.0209,8.0209,8.0209,8.0209,8.0209,8.0209,8.0209,8.0209,8.0209,8.0209,4.4529,4.6735,4.9092,5.2168,5.4901,5.7611,6.0317,6.3024,6.5628,6.7861,6.9316,7.0432,7.1176,7.1312,7.1312,7.1312,7.1921,7.2665,7.3375,7.4119,7.4864,7.5608,7.5709,7.5709,7.5709,7.5709,7.5709,7.5709,7.5709,7.5709,7.5709,7.5709,7.5709,7.5709,7.5709,7.5709,7.5709,7.6487,7.7029,7.7299,7.8044,7.8517,7.8788,7.8788,7.8619,7.8416,7.8653,7.8619,7.8348,7.7874,7.7536,7.7198,7.642,7.6589,7.7333,7.7807,7.8483,7.9228,7.9938,8.0209,8.0209,8.0209,8.0209,8.0209,8.0209,8.0209,8.0209,8.0209,8.0209,8.0209,8.0209,8.0209,8.0209,8.0209,8.0209,8.0209,8.0209,8.0209,8.0209,8.0209,8.0209,8.0209,8.0209,8.0209,8.0209,8.0209,8.0209,8.0209,8.0209,8.0209,8.0209,8.0209,8.0209,8.0209,8.0209,8.0209,8.0209,8.0209,8.0209,8.0209,8.0209,8.0209,8.0209,8.0209,8.0209,8.0209,8.0209,8.0209,8.0209,8.0209,8.0209,8.0209,4.3474,4.5351,4.7564,5.0683,5.3247,5.5683,5.8389,6.1129,6.3802,6.6271,6.7996,6.9451,7.0703,7.0939,7.1007,7.1278,7.1921,7.2665,7.3375,7.4119,7.4864,7.5608,7.5709,7.5709,7.5709,7.5709,7.5709,7.5709,7.5709,7.5709,7.5709,7.5709,7.5709,7.5709,7.5709,7.5709,7.5709,7.6217,7.6623,7.6893,7.7401,7.7739,7.7976,7.7976,7.7841,7.7638,7.7638,7.7638,7.757,7.7096,7.6758,7.6454,7.5912,7.6352,7.7333,7.7807,7.8619,7.9532,8.004,8.0209,8.0209,8.0209,8.0209,8.0209,8.0209,8.0209,8.0209,8.0209,8.0209,8.0209,8.0209,8.0209,8.0209,8.0209,8.0209,8.0209,8.0209,8.0209,8.0209,8.0209,8.0209,8.0209,8.0209,8.0209,8.0209,8.0209,8.0209,8.0209,8.0209,8.0209,8.0209,8.0209,8.0209,8.0209,8.0209,8.0209,8.0209,8.0209,8.0209,8.0209,8.0209,8.0209,8.0209,8.0209,8.0209,8.0209,8.0209,8.0209,8.0209,8.0209,8.0209,8.0209,0.0,0.0,0.0,4.9458,5.1725,5.4025,5.6224,5.8457,6.0926,6.3903,6.5696,6.7421,6.9688,7.0094,7.0364,7.1142,7.1921,7.2665,7.3341,7.4086,7.4864,7.5574,7.5676,7.5676,7.5709,7.5709,7.5709,7.5709,7.5709,7.5709,7.5709,7.5709,7.5709,7.5709,7.5709,7.5709,7.5709,7.5709,7.6082,7.686,7.686,7.7232,7.7908,7.7908,7.7536,7.686,7.686,7.686,7.686,7.686,7.6386,7.5709,7.5743,7.6657,7.7976,7.801,7.8957,8.0209,8.0209,8.0209,8.0209,8.0209,8.0209,8.0209,8.0209,8.0209,8.0209,8.0209,8.0209,8.0209,8.0209,8.0209,8.0209,8.0209,8.0209,8.0209,8.0209,8.0209,8.0209,8.0209,8.0209,8.0209,8.0209,8.0209,8.0209,8.0209,8.0209,8.0209,8.0209,8.0209,8.0209,8.0209,8.0209,8.0209,8.0209,8.0209,8.0209,8.0209,8.0209,8.0209,8.0209,8.0209,8.0209,8.0209,8.0209,8.0209,8.0209,8.0209,8.0209,8.0209,8.0209,8.0209,4.1542,0.0,0.0,0.0,0.0,0.0,5.4702,5.734,5.9877,6.1806,6.3802,6.573,6.7421,6.8166,6.8977,7.0297,7.1582,7.2462,7.2665,7.3341,7.4086,7.483,7.4897,7.51,7.5642,7.5709,7.5709,7.5709,7.5709,7.5709,7.5709,7.5709,7.5709,7.5709,7.5709,7.5709,7.5709,7.5709,7.5811,7.6014,7.6014,7.6149,7.6318,7.6318,7.6217,7.6014,7.6014,7.6014,7.6014,7.6014,7.5912,7.5743,7.6352,7.713,7.8044,7.8585,7.9397,8.0209,8.0209,8.0209,8.0209,8.0209,8.0209,8.0209,8.0209,8.0209,8.0209,8.0209,8.0209,8.0209,8.0209,8.0209,8.0209,8.0209,8.0209,8.0209,8.0209,8.0209,8.0209,8.0209,8.0209,8.0209,8.0209,8.0209,8.0209,8.0209,8.0209,8.0209,8.0209,8.0209,8.0209,8.0209,8.0209,8.0209,8.0209,8.0209,8.0209,8.0209,8.0209,8.0209,8.0209,8.0209,8.0209,8.0209,8.0209,8.0209,8.0209,8.0209,8.0209,8.0209,8.0209,8.0209,4.1068,4.2286,4.3876,4.5838,0.0,0.0,5.3112,5.548,5.7679,5.9505,6.14,6.3294,6.5087,6.6034,6.7015,6.8538,6.9755,7.0973,7.2225,7.2766,7.3308,7.4052,7.4153,7.4424,7.5168,7.5236,7.5371,7.5676,7.5709,7.5709,7.5709,7.5709,7.5709,7.5709,7.5709,7.5709,7.5709,7.5709,7.5709,7.5709,7.5709,7.5709,7.5709,7.5709,7.5709,7.5709,7.5709,7.5709,7.5709,7.5709,7.5709,7.5777,7.6589,7.7333,7.8077,7.8822,7.9566,8.0209,8.0209,8.0209,8.0209,8.0209,8.0209,8.0209,8.0209,8.0209,8.0209,8.0209,8.0209,8.0209,8.0209,8.0209,8.0209,8.0209,8.0209,8.0209,8.0209,8.0209,8.0209,8.0209,8.0209,8.0209,8.0209,8.0209,8.0209,8.0209,8.0209,8.0209,8.0209,8.0209,8.0209,8.0209,8.0209,8.0209,8.0209,8.0209,8.0209,8.0209,8.0209,8.0209,8.0209,8.0209,8.0209,8.0209,8.0209,8.0209,8.0209,8.0209,8.0209,8.0209,8.0209,8.0209,4.1391,4.2407,4.3775,4.5229,4.7259,0.0,5.1488,5.3179,5.4905,5.6968,5.8592,6.0283,6.2482,6.3565,6.458,6.6068,6.6948,6.847,7.1481,7.2056,7.2428,7.3172,7.3308,7.3646,7.4424,7.4492,7.4762,7.5405,7.554,7.5608,7.5709,7.5709,7.5709,7.5709,7.5709,7.5709,7.5709,7.5709,7.5709,7.5709,7.5709,7.5709,7.5709,7.5709,7.5709,7.5709,7.5709,7.5709,7.5709,7.5709,7.5709,7.5777,7.669,7.7401,7.8077,7.8923,7.9634,8.0209,8.0209,8.0209,8.0209,8.0209,8.0209,8.0209,8.0209,8.0209,8.0209,8.0209,8.0209,8.0209,8.0209,8.0209,8.0209,8.0209,8.0209,8.0209,8.0209,8.0209,8.0209,8.0209,8.0209,8.0209,8.0209,8.0209,8.0209,8.0209,8.0209,8.0209,8.0209,8.0209,8.0209,8.0209,8.0209,8.0209,8.0209,8.0209,8.0209,8.0209,8.0209,8.0209,8.0209,8.0209,8.0209,8.0209,8.0209,8.0209,8.0209,8.0209,8.0209,8.0209,8.0209,8.0209,4.2757,4.3064,4.3639,4.4553,4.6481,0.0,4.9424,5.1251,5.3044,5.4126,5.5547,5.707,5.8693,6.008,6.1467,6.299,6.3869,6.5392,6.8368,6.9857,7.0906,7.165,7.2259,7.2902,7.3646,7.3713,7.3747,7.3916,7.4492,7.5067,7.5676,7.5709,7.5709,7.5709,7.5709,7.5709,7.5709,7.5709,7.5709,7.5709,7.5709,7.5709,7.5709,7.5709,7.5709,7.5709,7.5709,7.5709,7.5709,7.5709,7.5709,7.5845,7.7232,7.7874,7.8145,7.9498,8.0073,8.0209,8.0209,8.0209,8.0209,8.0209,8.0209,8.0209,8.0209,8.0209,8.0209,8.0209,8.0209,8.0209,8.0209,8.0209,8.0209,8.0209,8.0209,8.0209,8.0209,8.0209,8.0209,8.0209,8.0209,8.0209,8.0209,8.0209,8.0209,8.0209,8.0209,8.0209,8.0209,8.0209,8.0209,8.0209,8.0209,8.0209,8.0209,8.0209,8.0209,8.0209,8.0209,8.0209,8.0209,8.0209,8.0209,8.0209,8.0209,8.0209,8.0209,8.0209,8.0209,8.0209,8.0209,8.0209,4.4146,4.4027,4.4292,4.4088,4.5399,0.0,0.0,4.9323,5.0879,5.1657,5.3315,5.4938,5.6055,5.7442,5.8829,5.9945,6.0791,6.1907,6.3768,6.6609,6.8774,6.9519,7.0297,7.1176,7.2293,7.2394,7.2699,7.3443,7.3849,7.4356,7.51,7.5168,7.5337,7.5676,7.5709,7.5709,7.5709,7.5709,7.5709,7.5709,7.5709,7.5709,7.5709,7.5709,7.5709,7.5709,7.5709,7.5709,7.5709,7.5709,7.5709,7.5845,7.7401,7.7976,7.8179,7.9667,8.0209,8.0209,8.0209,8.0209,8.0209,8.0209,8.0209,8.0209,8.0209,8.0209,8.0209,8.0209,8.0209,8.0209,8.0209,8.0209,8.0209,8.0209,8.0209,8.0209,8.0209,8.0209,8.0209,8.0209,8.0209,8.0209,8.0209,8.0209,8.0209,8.0209,8.0209,8.0209,8.0209,8.0209,8.0209,8.0209,8.0209,8.0209,8.0209,8.0209,8.0209,8.0209,8.0209,8.0209,8.0209,8.0209,8.0209,8.0209,8.0209,8.0209,8.0209,8.0209,8.0209,8.0209,8.0209,8.0209,4.6323,4.5892,4.5784,4.4715,4.5365,4.6452,0.0,0.0,0.0,4.9898,5.1454,5.2909,5.3788,5.504,5.6055,5.6325,5.7374,5.8321,5.8761,6.2448,6.5628,6.7083,6.7963,6.9011,7.05,7.0939,7.165,7.2969,7.3206,7.368,7.4559,7.4627,7.4931,7.5676,7.5709,7.5709,7.5709,7.5709,7.5709,7.5709,7.5709,7.5709,7.5709,7.5709,7.5709,7.5709,7.5709,7.5709,7.5709,7.5709,7.5709,7.5845,7.7401,7.7976,7.8179,7.9667,8.0209,8.0209,8.0209,8.0209,8.0209,8.0209,8.0209,8.0209,8.0209,8.0209,8.0209,8.0209,8.0209,8.0209,8.0209,8.0209,8.0209,8.0209,8.0209,8.0209,8.0209,8.0209,8.0209,8.0209,8.0209,8.0209,8.0209,8.0209,8.0209,8.0209,8.0209,8.0209,8.0209,8.0209,8.0209,8.0209,8.0209,8.0209,8.0209,8.0209,8.0209,8.0209,8.0209,8.0209,8.0209,8.0209,8.0209,8.0209,8.0209,8.0209,8.0209,8.0209,8.0209,8.0209,8.0209,8.0209,5.0819,4.9679,4.8355,4.8217,4.8299,4.8335,4.7886,0.0,4.8443,4.9796,0.0,4.9932,5.1352,0.0,0.0,5.1183,5.3281,5.4905,5.4329,5.6934,6.0419,6.4478,6.5628,6.6677,6.8132,6.9519,7.0669,7.1515,7.2157,7.3138,7.4559,7.4627,7.4931,7.5676,7.5709,7.5709,7.5709,7.5709,7.5709,7.5709,7.5709,7.5709,7.5709,7.5709,7.5709,7.5709,7.5709,7.5709,7.5709,7.5709,7.5709,7.5845,7.7401,7.7976,7.8179,7.9667,8.0209,8.0209,8.0209,8.0209,8.0209,8.0209,8.0209,8.0209,8.0209,8.0209,8.0209,8.0209,8.0209,8.0209,8.0209,8.0209,8.0209,8.0209,8.0209,8.0209,8.0209,8.0209,8.0209,8.0209,8.0209,8.0209,8.0209,8.0209,8.0209,8.0209,8.0209,8.0209,8.0209,8.0209,8.0209,8.0209,8.0209,8.0209,8.0209,8.0209,8.0209,8.0209,8.0209,8.0209,8.0209,8.0209,8.0209,8.0209,8.0209,8.0209,8.0209,8.0209,8.0209,8.0209,8.0209,8.0209,5.3616,5.2484,5.1457,4.973,4.9035,4.8631,4.79,4.752,4.7428,4.8037,0.0,0.0,0.0,0.0,0.0,0.0,5.1792,5.2672,5.2807,5.3856,5.6461,6.14,6.2685,0.0,6.5797,6.7726,6.918,6.9992,7.0703,7.1751,7.324,7.3747,7.4289,7.5033,7.5473,7.5709,7.5709,7.5709,7.5709,7.5709,7.5709,7.5709,7.5709,7.5709,7.5709,7.5709,7.5709,7.5709,7.5709,7.5709,7.598,7.6487,7.757,7.7976,7.8179,7.9667,8.0209,8.0209,8.0209,8.0209,8.0209,8.0209,8.0209,8.0209,8.0209,8.0209,8.0209,8.0209,8.0209,8.0209,8.0209,8.0209,8.0209,8.0209,8.0209,8.0209,8.0209,8.0209,8.0209,8.0209,8.0209,8.0209,8.0209,8.0209,8.0209,8.0209,8.0209,8.0209,8.0209,8.0209,8.0209,8.0209,8.0209,8.0209,8.0209,8.0209,8.0209,8.0209,8.0209,8.0209,8.0209,8.0209,8.0209,8.0209,8.0209,8.0209,8.0209,8.0209,8.0209,8.0209,8.0209,8.0209,5.6688,5.5489,5.4456,5.213,5.0892,5.0,4.9054,4.8277,4.7665,4.7725,4.78,0.0,0.0,0.0,4.9763,4.9695,0.0,5.0574,5.0507,5.1183,5.3484,5.8321,6.0114,0.0,0.0,6.5764,6.7624,6.8402,6.9553,7.0838,7.2326,7.3105,7.3849,7.4593,7.5337,7.5709,7.5709,7.5709,7.5709,7.5709,7.5709,7.5709,7.5709,7.5709,7.5709,7.5709,7.5709,7.5709,7.5709,7.5709,7.6183,7.6961,7.7705,7.8111,7.845,7.9735,8.0209,8.0209,8.0209,8.0209,8.0209,8.0209,8.0209,8.0209,8.0209,8.0209,8.0209,8.0209,8.0209,8.0209,8.0209,8.0209,8.0209,8.0209,8.0209,8.0209,8.0209,8.0209,8.0209,8.0209,8.0209,8.0209,8.0209,8.0209,8.0209,8.0209,8.0209,8.0209,8.0209,8.0209,8.0209,8.0209,8.0209,8.0209,8.0209,8.0209,8.0209,8.0209,8.0209,8.0209,8.0209,8.0209,8.0209,8.0209,8.0209,8.0209,8.0209,8.0209,8.0209,8.0209,8.0209,8.0209,6.0684,5.9006,5.7223,5.6402,5.5009,5.3549,5.2334,5.0932,4.9928,4.9955,4.8883,4.8139,4.8883,4.9018,4.8342,4.621,4.7665,0.0,0.0,4.8376,5.1589,5.5412,0.0,0.0,0.0,6.3599,6.6068,0.0,6.8944,7.0838,7.2326,7.3105,7.3849,7.4593,7.5337,7.5709,7.5709,7.5709,7.5709,7.5709,7.5709,7.5709,7.5709,7.5709,7.5709,7.5709,7.5709,7.5709,7.5709,7.5709,7.6183,7.6961,7.7705,7.845,7.916,7.9938,8.0209,8.0209,8.0209,8.0209,8.0209,8.0209,8.0209,8.0209,8.0209,8.0209,8.0209,8.0209,8.0209,8.0209,8.0209,8.0209,8.0209,8.0209,8.0209,8.0209,8.0209,8.0209,8.0209,8.0209,8.0209,8.0209,8.0209,8.0209,8.0209,8.0209,8.0209,8.0209,8.0209,8.0209,8.0209,8.0209,8.0209,8.0209,8.0209,8.0209,8.0209,8.0209,8.0209,8.0209,8.0209,8.0209,8.0209,8.0209,8.0209,8.0209,8.0209,8.0209,8.0209,8.0209,8.0209,8.0209,6.3615,6.2655,6.1476,5.9096,5.7819,5.6668,5.4626,5.2822,5.1499,5.1396,5.0276,4.9481,5.009,5.0181,4.9686,4.8026,4.838,4.8104,0.0,4.6989,0.0,0.0,0.0,0.0,0.0,0.0,0.0,0.0,6.7421,0.0,7.0838,7.209,7.3105,7.3849,7.4593,7.5202,7.5709,7.5709,7.5709,7.5709,7.5709,7.5709,7.5709,7.5709,7.5709,7.5709,7.5709,7.5709,7.5709,7.5709,7.6454,7.7638,7.7874,7.8754,7.987,8.0107,8.0209,8.0209,8.0209,8.0209,8.0209,8.0209,8.0209,8.0209,8.0209,8.0209,8.0209,8.0209,8.0209,8.0209,8.0209,8.0209,8.0209,8.0209,8.0209,8.0209,8.0209,8.0209,8.0209,8.0209,8.0209,8.0209,8.0209,8.0209,8.0209,8.0209,8.0209,8.0209,8.0209,8.0209,8.0209,8.0209,8.0209,8.0209,8.0209,8.0209,8.0209,8.0209,8.0209,8.0209,8.0209,8.0209,8.0209,8.0209,8.0209,8.0209,8.0209,8.0209,8.0209,8.0209,8.0209,8.0209,6.6677,6.5881,0.0,6.2041,6.0846,5.9829,5.7743,5.5879,5.4408,5.3486,5.2393,5.1419,5.0991,5.1319,5.1115,4.9435,4.9375,4.8799,0.0,4.6418,0.0,0.0,0.0,0.0,0.0,0.0,0.0,0.0,0.0,0.0,0.0,7.121,7.236,7.3071,7.4086,7.483,7.5303,7.5574,7.5709,7.5709,7.5709,7.5709,7.5709,7.5709,7.5709,7.5709,7.5709,7.5709,7.5709,7.5709,7.6589,7.7976,7.7976,7.8889,8.0209,8.0209,8.0209,8.0209,8.0209,8.0209,8.0209,8.0209,8.0209,8.0209,8.0209,8.0209,8.0209,8.0209,8.0209,8.0209,8.0209,8.0209,8.0209,8.0209,8.0209,8.0209,8.0209,8.0209,8.0209,8.0209,8.0209,8.0209,8.0209,8.0209,8.0209,8.0209,8.0209,8.0209,8.0209,8.0209,8.0209,8.0209,8.0209,8.0209,8.0209,8.0209,8.0209,8.0209,8.0209,8.0209,8.0209,8.0209,8.0073,7.9803,8.0073,8.0073,7.9803,8.0073,8.0209,8.0209,8.0209,8.0209]},{"header":{"parameterUnit":"m.s-1","parameterCategory":1,"la1":30.6,"la2":29.2853,"lo1":-89.7004,"lo2":-87.6739,"dx":0.0162,"dy":0.0183,"nx":112,"ny":82,"refTime":"2022-12-11T18:00:00:Z","depth":0,"parameterNumber":3,"parameterNumberName":"V-component_of_WINDS"},"data":[0.0,0.0,0.0,0.0,0.0,0.0,0.0,0.0,0.0,0.0,0.0,0.0,0.0,0.0,0.0,0.0,0.0,0.0,0.0,0.0,0.0,0.0,0.0,0.0,0.0,0.0,0.0,0.0,0.0,0.0,0.0,0.0,0.0,0.0,0.0,0.0,0.0,0.0,0.0,0.0,0.0,0.0,0.0,0.0,0.0,0.0,0.0,0.0,0.0,0.0,0.0,0.0,0.0,0.0,0.0,0.0,0.0,0.0,0.0,0.0,0.0,0.0,0.0,0.0,0.0,0.0,0.0,0.0,0.0,0.0,0.0,0.0,0.0,0.0,0.0,0.0,0.0,0.0,0.0,0.0,0.0,0.0,0.0,0.0,0.0,0.0,0.0,0.0,0.0,0.0,-2.8021,-2.9955,-3.106,-3.1461,-3.1035,-3.0482,-2.9402,-2.7645,0.0,0.0,0.0,0.0,0.0,0.0,0.0,0.0,0.0,0.0,0.0,0.0,0.0,0.0,0.0,0.0,0.0,0.0,0.0,0.0,0.0,0.0,0.0,0.0,0.0,0.0,0.0,0.0,0.0,0.0,0.0,0.0,0.0,0.0,0.0,0.0,0.0,0.0,0.0,0.0,0.0,0.0,0.0,0.0,0.0,0.0,0.0,0.0,0.0,0.0,0.0,0.0,0.0,0.0,0.0,0.0,0.0,0.0,0.0,0.0,0.0,0.0,0.0,0.0,0.0,0.0,0.0,0.0,0.0,0.0,0.0,0.0,0.0,0.0,0.0,0.0,0.0,0.0,0.0,0.0,0.0,0.0,0.0,0.0,0.0,0.0,0.0,0.0,0.0,0.0,0.0,0.0,0.0,0.0,0.0,0.0,0.0,0.0,0.0,0.0,0.0,0.0,0.0,0.0,-2.8448,-3.1512,-3.2441,-3.2792,-3.2717,-3.219,-3.0934,-2.8825,0.0,0.0,0.0,0.0,0.0,0.0,0.0,0.0,0.0,0.0,0.0,0.0,0.0,0.0,0.0,0.0,0.0,0.0,0.0,0.0,0.0,0.0,0.0,0.0,0.0,0.0,0.0,0.0,0.0,0.0,0.0,0.0,0.0,0.0,0.0,0.0,0.0,0.0,0.0,0.0,0.0,0.0,0.0,0.0,0.0,0.0,0.0,0.0,0.0,0.0,0.0,0.0,0.0,0.0,0.0,0.0,0.0,0.0,0.0,0.0,0.0,0.0,0.0,0.0,0.0,0.0,0.0,0.0,0.0,0.0,0.0,0.0,0.0,0.0,0.0,0.0,0.0,0.0,0.0,0.0,0.0,0.0,0.0,0.0,0.0,0.0,0.0,0.0,0.0,0.0,0.0,0.0,0.0,0.0,0.0,0.0,0.0,0.0,0.0,0.0,0.0,0.0,0.0,-2.875,-3.0658,-3.2491,-3.3445,-3.3721,-3.3119,-3.2541,-3.126,-2.9076,-2.6917,0.0,0.0,0.0,0.0,0.0,0.0,0.0,0.0,0.0,0.0,0.0,0.0,0.0,0.0,0.0,0.0,0.0,0.0,0.0,0.0,0.0,0.0,0.0,0.0,0.0,0.0,0.0,0.0,0.0,0.0,0.0,0.0,0.0,0.0,0.0,0.0,0.0,0.0,0.0,0.0,0.0,0.0,0.0,0.0,0.0,0.0,0.0,0.0,0.0,0.0,0.0,0.0,0.0,0.0,0.0,0.0,0.0,0.0,0.0,0.0,0.0,0.0,0.0,0.0,0.0,0.0,0.0,0.0,0.0,0.0,0.0,0.0,0.0,0.0,0.0,0.0,0.0,0.0,0.0,0.0,0.0,0.0,0.0,0.0,0.0,0.0,0.0,0.0,0.0,0.0,0.0,0.0,0.0,0.0,0.0,0.0,0.0,0.0,0.0,0.0,0.0,0.0,-3.0934,-3.2541,-3.337,-3.4324,-3.4575,-3.3721,-3.2893,-3.1537,-2.9453,-2.7519,0.0,0.0,0.0,0.0,0.0,0.0,0.0,0.0,0.0,0.0,0.0,0.0,0.0,0.0,0.0,0.0,0.0,0.0,0.0,0.0,0.0,0.0,0.0,0.0,0.0,0.0,0.0,0.0,0.0,0.0,0.0,0.0,0.0,0.0,0.0,0.0,0.0,0.0,0.0,0.0,0.0,0.0,0.0,0.0,0.0,0.0,0.0,0.0,0.0,0.0,0.0,0.0,0.0,0.0,0.0,0.0,0.0,0.0,0.0,0.0,0.0,0.0,0.0,0.0,0.0,0.0,0.0,0.0,0.0,0.0,0.0,0.0,0.0,0.0,0.0,0.0,0.0,0.0,0.0,0.0,0.0,0.0,0.0,0.0,0.0,0.0,0.0,0.0,0.0,0.0,0.0,0.0,0.0,0.0,0.0,0.0,0.0,0.0,0.0,0.0,0.0,0.0,-3.1185,-3.2817,-3.4424,-3.5127,-3.5454,-3.5378,-3.3922,-3.229,-3.0608,-2.7946,0.0,0.0,0.0,0.0,0.0,0.0,0.0,0.0,0.0,0.0,0.0,0.0,0.0,0.0,0.0,0.0,0.0,0.0,0.0,0.0,0.0,0.0,0.0,0.0,0.0,0.0,0.0,0.0,0.0,0.0,0.0,0.0,0.0,0.0,0.0,0.0,0.0,0.0,0.0,0.0,0.0,0.0,0.0,0.0,0.0,0.0,0.0,0.0,0.0,0.0,0.0,0.0,0.0,0.0,0.0,0.0,0.0,0.0,0.0,0.0,0.0,0.0,0.0,0.0,0.0,0.0,0.0,0.0,0.0,0.0,0.0,0.0,0.0,0.0,0.0,0.0,0.0,0.0,0.0,0.0,0.0,0.0,0.0,0.0,0.0,0.0,0.0,0.0,0.0,0.0,0.0,0.0,0.0,0.0,0.0,0.0,0.0,0.0,0.0,0.0,0.0,0.0,-3.1738,-3.3395,-3.5052,-3.6031,-3.6433,-3.6081,-3.455,-3.2867,-3.121,0.0,0.0,0.0,0.0,0.0,0.0,0.0,0.0,0.0,0.0,0.0,0.0,0.0,0.0,0.0,0.0,0.0,0.0,0.0,0.0,0.0,0.0,0.0,0.0,0.0,0.0,0.0,0.0,0.0,0.0,0.0,0.0,0.0,0.0,0.0,0.0,0.0,0.0,0.0,0.0,0.0,0.0,0.0,0.0,0.0,0.0,0.0,0.0,0.0,0.0,0.0,0.0,0.0,0.0,0.0,0.0,0.0,0.0,0.0,0.0,0.0,0.0,0.0,0.0,0.0,0.0,0.0,0.0,0.0,0.0,0.0,0.0,0.0,0.0,0.0,0.0,0.0,0.0,0.0,0.0,0.0,0.0,0.0,0.0,0.0,0.0,0.0,0.0,0.0,0.0,0.0,0.0,0.0,0.0,0.0,0.0,0.0,0.0,0.0,0.0,0.0,0.0,-3.0834,-3.2566,-3.4223,-3.5881,-3.6885,-3.7236,-3.6659,-3.5102,-3.3445,-3.1763,0.0,0.0,0.0,0.0,0.0,0.0,0.0,0.0,0.0,0.0,0.0,0.0,0.0,0.0,0.0,0.0,0.0,0.0,0.0,0.0,0.0,0.0,0.0,0.0,0.0,0.0,0.0,0.0,0.0,0.0,0.0,0.0,0.0,0.0,0.0,0.0,0.0,0.0,0.0,0.0,0.0,0.0,0.0,0.0,0.0,0.0,0.0,0.0,0.0,0.0,0.0,0.0,0.0,0.0,0.0,0.0,0.0,0.0,0.0,0.0,0.0,0.0,0.0,0.0,0.0,0.0,0.0,0.0,0.0,0.0,0.0,0.0,0.0,0.0,0.0,0.0,0.0,0.0,0.0,0.0,0.0,0.0,0.0,0.0,0.0,0.0,0.0,0.0,0.0,0.0,0.0,0.0,0.0,0.0,0.0,0.0,0.0,0.0,0.0,0.0,0.0,0.0,-3.1938,-3.3671,-3.5353,-3.701,-3.7688,-3.7789,-3.7236,-3.568,-3.4022,0.0,0.0,0.0,0.0,0.0,0.0,0.0,0.0,0.0,0.0,0.0,0.0,0.0,0.0,0.0,0.0,0.0,0.0,0.0,0.0,0.0,0.0,0.0,0.0,0.0,0.0,0.0,0.0,0.0,0.0,0.0,0.0,0.0,0.0,0.0,0.0,0.0,0.0,0.0,0.0,0.0,0.0,0.0,0.0,0.0,0.0,0.0,0.0,0.0,0.0,0.0,0.0,0.0,0.0,0.0,0.0,0.0,0.0,0.0,0.0,0.0,0.0,0.0,0.0,0.0,0.0,0.0,0.0,0.0,0.0,0.0,0.0,0.0,0.0,0.0,0.0,0.0,0.0,0.0,0.0,0.0,0.0,0.0,0.0,0.0,0.0,0.0,0.0,0.0,0.0,0.0,0.0,0.0,0.0,0.0,0.0,0.0,0.0,0.0,0.0,0.0,0.0,0.0,-3.1938,-3.3671,-3.5353,-3.701,-3.804,-3.8542,-3.8391,-3.6835,-3.5328,-3.4073,0.0,0.0,0.0,0.0,0.0,0.0,0.0,0.0,0.0,0.0,0.0,0.0,0.0,0.0,0.0,0.0,0.0,0.0,0.0,0.0,0.0,0.0,0.0,0.0,0.0,0.0,0.0,0.0,0.0,0.0,0.0,0.0,0.0,0.0,0.0,0.0,0.0,0.0,0.0,0.0,0.0,0.0,0.0,0.0,0.0,0.0,0.0,0.0,0.0,0.0,0.0,0.0,0.0,0.0,0.0,0.0,0.0,0.0,0.0,0.0,0.0,0.0,0.0,0.0,0.0,0.0,0.0,0.0,0.0,0.0,0.0,0.0,0.0,0.0,0.0,0.0,0.0,0.0,0.0,0.0,0.0,0.0,0.0,0.0,0.0,0.0,0.0,0.0,0.0,0.0,0.0,0.0,0.0,0.0,0.0,0.0,0.0,0.0,0.0,0.0,0.0,0.0,-3.2616,-3.4525,-3.6332,-3.8015,-3.8793,-3.8991,-3.8555,-3.7642,-3.6243,-3.4459,0.0,0.0,0.0,0.0,0.0,0.0,0.0,0.0,0.0,0.0,0.0,0.0,0.0,0.0,0.0,0.0,0.0,0.0,0.0,0.0,0.0,0.0,0.0,0.0,0.0,0.0,0.0,0.0,0.0,0.0,0.0,0.0,0.0,0.0,0.0,0.0,0.0,0.0,0.0,0.0,0.0,0.0,0.0,0.0,0.0,0.0,0.0,0.0,0.0,0.0,0.0,0.0,0.0,0.0,0.0,0.0,0.0,0.0,0.0,0.0,0.0,0.0,0.0,0.0,0.0,0.0,0.0,0.0,0.0,0.0,0.0,0.0,0.0,0.0,0.0,0.0,0.0,0.0,0.0,0.0,0.0,0.0,0.0,0.0,0.0,0.0,0.0,0.0,0.0,0.0,0.0,0.0,0.0,0.0,0.0,0.0,0.0,0.0,0.0,0.0,0.0,0.0,-3.3746,-3.5906,-3.7889,-3.9521,-3.9798,-3.9382,-3.8128,-3.8135,-3.6948,-3.4102,0.0,0.0,0.0,0.0,0.0,0.0,0.0,0.0,0.0,0.0,0.0,0.0,0.0,0.0,0.0,0.0,0.0,0.0,0.0,0.0,0.0,0.0,0.0,0.0,0.0,0.0,0.0,0.0,0.0,0.0,0.0,0.0,0.0,0.0,0.0,0.0,0.0,0.0,0.0,0.0,0.0,0.0,0.0,0.0,0.0,0.0,0.0,0.0,0.0,0.0,0.0,0.0,0.0,0.0,0.0,0.0,0.0,0.0,0.0,0.0,-2.216,-2.0952,0.0,0.0,0.0,0.0,0.0,0.0,0.0,0.0,0.0,0.0,0.0,0.0,0.0,0.0,0.0,0.0,0.0,0.0,0.0,0.0,0.0,0.0,0.0,0.0,0.0,0.0,0.0,0.0,0.0,0.0,0.0,0.0,0.0,0.0,0.0,0.0,0.0,0.0,0.0,0.0,-3.4274,-3.6458,-3.8316,-3.9572,-4.0475,-4.0351,-3.8707,-3.905,-3.7956,-3.4588,-3.3175,0.0,0.0,0.0,0.0,0.0,0.0,0.0,0.0,0.0,0.0,0.0,0.0,0.0,0.0,0.0,0.0,0.0,0.0,0.0,0.0,0.0,0.0,0.0,0.0,0.0,0.0,0.0,0.0,0.0,0.0,0.0,0.0,0.0,0.0,0.0,0.0,0.0,0.0,0.0,0.0,0.0,0.0,0.0,0.0,0.0,0.0,0.0,0.0,0.0,0.0,0.0,0.0,0.0,0.0,0.0,0.0,0.0,0.0,0.0,-2.3679,-2.236,0.0,0.0,0.0,0.0,0.0,0.0,0.0,0.0,0.0,0.0,0.0,0.0,0.0,0.0,0.0,0.0,0.0,0.0,0.0,0.0,0.0,0.0,0.0,0.0,0.0,0.0,0.0,0.0,0.0,0.0,0.0,0.0,0.0,0.0,0.0,0.0,0.0,0.0,0.0,0.0,-3.3647,-3.5809,-3.7613,-3.8936,-3.9561,-3.9315,-3.8136,-3.8571,-3.7637,-3.4639,-3.363,0.0,0.0,0.0,0.0,0.0,0.0,0.0,0.0,0.0,0.0,0.0,0.0,0.0,0.0,0.0,0.0,0.0,0.0,0.0,0.0,0.0,0.0,0.0,0.0,0.0,0.0,0.0,0.0,0.0,0.0,0.0,0.0,0.0,0.0,0.0,0.0,0.0,0.0,0.0,0.0,0.0,0.0,0.0,0.0,0.0,0.0,0.0,0.0,0.0,0.0,0.0,0.0,0.0,-2.6189,-2.6907,-2.6392,-2.722,-2.7655,-2.7614,-2.5275,-2.4033,-2.3598,-2.2832,0.0,0.0,0.0,0.0,0.0,0.0,0.0,0.0,0.0,0.0,0.0,0.0,0.0,0.0,0.0,0.0,0.0,0.0,0.0,0.0,0.0,0.0,-2.6951,-2.6689,-2.7742,-2.8256,-2.6429,0.0,0.0,0.0,0.0,0.0,0.0,0.0,0.0,0.0,0.0,0.0,-3.3229,-3.5161,-3.6901,-3.8343,-3.8641,-3.8281,-3.7517,-3.8022,-3.7309,-3.4588,-3.4205,-3.3416,0.0,0.0,0.0,0.0,0.0,0.0,0.0,0.0,0.0,0.0,0.0,0.0,0.0,0.0,0.0,0.0,0.0,0.0,0.0,0.0,0.0,0.0,0.0,0.0,0.0,0.0,0.0,0.0,0.0,0.0,0.0,0.0,-2.0991,-2.1142,0.0,0.0,0.0,0.0,0.0,0.0,0.0,0.0,0.0,0.0,0.0,0.0,0.0,-2.5383,-2.6346,-2.6607,-2.6726,-2.6724,-2.744,-2.7959,-2.8276,-2.8794,-2.9249,-2.9601,-2.8835,0.0,-2.5523,-2.5399,0.0,0.0,0.0,0.0,0.0,0.0,0.0,0.0,0.0,0.0,0.0,0.0,0.0,0.0,0.0,0.0,0.0,0.0,0.0,0.0,0.0,0.0,-2.8073,-2.9085,-2.9345,-2.9015,-2.8342,-2.7547,-2.6949,-2.6466,-2.6564,-2.6985,0.0,0.0,0.0,0.0,0.0,0.0,-3.4735,-3.642,-3.7816,-3.8892,-3.9808,-3.9688,-3.8087,-3.8972,-3.8141,-3.4909,-3.4804,-3.4065,-3.2154,-3.0078,0.0,0.0,0.0,0.0,0.0,0.0,0.0,0.0,0.0,0.0,0.0,0.0,0.0,0.0,0.0,0.0,0.0,0.0,0.0,0.0,0.0,0.0,0.0,0.0,0.0,0.0,0.0,0.0,0.0,-2.1694,-2.3025,-2.3326,-2.4054,-2.4657,0.0,0.0,0.0,0.0,0.0,0.0,0.0,0.0,0.0,-2.6329,-2.6628,-2.7024,-2.7577,-2.8105,-2.8397,-2.8421,-2.9125,-2.958,-2.9787,-3.0263,-3.0574,-3.076,-3.0553,-2.9746,-2.8524,-2.7738,-2.7034,-2.6434,0.0,0.0,0.0,0.0,-2.6041,-2.6309,-2.6152,-2.6451,-2.6852,-2.6298,0.0,0.0,0.0,0.0,0.0,0.0,0.0,-2.7668,-2.8705,-2.9241,-2.9683,-3.0558,-3.1019,-3.1174,-3.0967,-3.0615,-2.9808,-2.8048,-2.7883,-2.8125,-2.8578,-2.9014,0.0,0.0,0.0,-3.2793,-3.4047,-3.5453,-3.6816,-3.8049,-3.8806,-3.8981,-3.8527,-3.868,-3.7996,-3.6081,-3.5512,-3.4581,-3.283,-3.1547,-3.0077,0.0,0.0,0.0,0.0,0.0,0.0,0.0,0.0,0.0,0.0,0.0,0.0,0.0,0.0,0.0,0.0,0.0,0.0,0.0,0.0,0.0,0.0,0.0,0.0,0.0,0.0,0.0,0.0,-2.3592,-2.4707,-2.5185,-2.5566,-2.5942,0.0,0.0,0.0,0.0,0.0,0.0,-2.6326,-2.6955,-2.7415,-2.7672,-2.8028,-2.8442,-2.8794,-2.9497,-2.9953,-3.018,-3.0988,-3.1381,-3.1402,-3.1857,-3.2064,-3.2064,-3.2064,-3.1878,-3.1422,-2.9808,-2.8876,-2.8442,-2.8442,-2.8255,-2.7966,-2.7966,-2.7966,-2.8007,-2.8338,-2.8442,-2.8442,-2.8442,-2.838,-2.8235,-2.8028,0.0,0.0,0.0,0.0,-2.9456,-3.0036,-3.0864,-3.1671,-3.2126,-3.2851,-3.341,-3.341,-3.341,-3.2685,-3.016,-2.9663,-2.9766,-3.0118,-3.0263,0.0,-3.1422,-3.223,-3.3058,-3.3969,-3.5169,-3.639,-3.755,-3.8191,-3.8667,-3.8999,-3.873,-3.8191,-3.7384,-3.6453,-3.5438,-3.43,-3.3161,-3.1816,-3.0222,0.0,0.0,0.0,0.0,0.0,0.0,0.0,0.0,0.0,0.0,0.0,0.0,0.0,0.0,0.0,0.0,0.0,0.0,0.0,0.0,0.0,0.0,0.0,0.0,0.0,0.0,0.0,0.0,0.0,-2.6545,-2.6356,0.0,0.0,0.0,0.0,-2.8168,-2.7988,-2.813,-2.895,-2.8242,-2.8235,-2.9206,-2.9208,-2.987,-3.1195,-3.1257,-3.1712,-3.2561,-3.3016,-3.3244,-3.3265,-3.372,-3.3927,-3.3927,-3.3927,-3.3927,-3.372,-3.1505,-3.0305,-2.9891,-2.9891,-2.987,-2.9849,-2.9849,-2.9849,-2.987,-2.9891,-2.9891,-2.9891,-2.9891,-2.9601,-2.9311,-2.9725,-2.9559,0.0,0.0,-3.0884,-3.1443,-3.2333,-3.3223,-3.401,-3.4486,-3.4941,-3.5293,-3.5293,-3.5293,-3.4734,-3.2871,-3.252,-3.254,-3.2561,0.0,-3.3348,-3.3824,-3.432,-3.4962,-3.5852,-3.6804,-3.7591,-3.8088,-3.8937,-3.9475,-3.9495,-3.9475,-3.9268,-3.8771,-3.7902,-3.7156,-3.666,-3.4921,-3.3513,-3.2582,-3.1236,0.0,0.0,0.0,0.0,0.0,0.0,0.0,0.0,0.0,0.0,0.0,0.0,0.0,0.0,0.0,0.0,0.0,0.0,0.0,0.0,0.0,0.0,0.0,0.0,0.0,0.0,0.0,0.0,-2.7671,-2.795,0.0,-2.9238,-2.8947,-2.8892,-2.9283,-2.9021,-2.8958,-2.9295,-2.987,-3.0305,-3.0636,-3.1485,-3.2168,-3.2664,-3.2954,-3.343,-3.4031,-3.4196,-3.4424,-3.4693,-3.4859,-3.4941,-3.4941,-3.4941,-3.4941,-3.4879,-3.4072,-3.312,-3.2168,-3.2168,-3.2002,-3.1754,-3.1754,-3.1754,-3.1836,-3.2416,-3.2623,-3.2623,-3.2623,-3.2106,-3.1588,-3.2043,-3.2271,-3.2499,-3.312,-3.3637,-3.4051,-3.4383,-3.5148,-3.5873,-3.6039,-3.666,-3.7198,-3.7198,-3.7198,-3.7011,-3.637,-3.5273,-3.4465,-3.4465,-3.4838,-3.519,-3.5355,-3.6039,-3.6742,-3.7363,-3.7984,-3.8647,-3.9413,-3.9785,-4.0096,-4.0365,-4.0116,-3.9889,-3.9744,-3.8874,-3.8171,-3.7715,-3.6494,-3.5273,-3.4051,-3.2706,-3.1319,0.0,0.0,0.0,0.0,0.0,0.0,0.0,0.0,0.0,0.0,0.0,0.0,0.0,0.0,0.0,0.0,0.0,0.0,0.0,0.0,0.0,0.0,0.0,0.0,0.0,-2.6783,-2.7671,-2.8768,-2.8987,-2.9377,-3.0348,-2.9872,-2.9693,-3.0162,-3.0036,-3.0139,-3.045,-3.1464,-3.2188,-3.252,-3.3389,-3.3989,-3.43,-3.461,-3.4983,-3.5438,-3.5438,-3.5604,-3.5894,-3.6059,-3.6121,-3.6121,-3.6287,-3.6349,-3.6349,-3.6349,-3.5811,-3.4941,-3.43,-3.3886,-3.3637,-3.3637,-3.3637,-3.372,-3.432,-3.4527,-3.4527,-3.4527,-3.4113,-3.372,-3.4155,-3.4507,-3.4859,-3.5314,-3.5769,-3.6121,-3.6121,-3.6804,-3.7488,-3.7488,-3.8088,-3.8647,-3.8647,-3.875,-3.8854,-3.8874,-3.7508,-3.6349,-3.6349,-3.6618,-3.6867,-3.7011,-3.7695,-3.8336,-3.8792,-3.9392,-3.9992,-4.0613,-4.082,-4.1027,-4.1317,-4.1069,-4.0882,-4.0924,-4.0199,-3.9558,-3.9102,-3.8212,-3.7074,-3.5707,-3.4031,-3.2664,-3.1588,0.0,0.0,0.0,0.0,0.0,0.0,0.0,0.0,0.0,0.0,0.0,0.0,0.0,0.0,0.0,0.0,0.0,0.0,0.0,0.0,0.0,0.0,0.0,-2.7589,-2.7833,-2.843,-2.9764,-2.9168,-2.9042,-2.9994,-3.0077,-3.0284,-3.076,-3.1215,-3.1857,-3.2747,-3.3203,-3.3865,-3.4776,-3.4817,-3.5252,-3.6121,-3.6142,-3.639,-3.6846,-3.6867,-3.6887,-3.6908,-3.7363,-3.755,-3.7591,-3.8026,-3.8233,-3.8233,-3.8233,-3.8233,-3.8046,-3.6225,-3.55,-3.55,-3.55,-3.5521,-3.5521,-3.5521,-3.5521,-3.5521,-3.5521,-3.5521,-3.5604,-3.6059,-3.6204,-3.6287,-3.6763,-3.7218,-3.757,-3.757,-3.8233,-3.8916,-3.8937,-3.9288,-3.962,-3.962,-3.9951,-4.0261,-4.0282,-3.9226,-3.8295,-3.8274,-3.8274,-3.844,-3.8874,-3.933,0.0,-4.0199,-4.1027,-4.1586,-4.1586,-4.1979,-4.2249,-4.2249,-4.2249,-4.2249,-4.2249,-4.1835,-4.1379,-4.0944,-4.0075,-3.8957,-3.757,-3.5314,-3.3927,-3.3451,0.0,0.0,0.0,0.0,0.0,0.0,0.0,0.0,0.0,0.0,0.0,0.0,0.0,0.0,0.0,0.0,0.0,0.0,0.0,0.0,0.0,-2.7153,-2.8265,-2.7913,-2.8157,-2.8964,-3.0349,-3.0328,-3.0615,-3.1857,-3.1981,-3.2292,-3.3078,-3.3244,-3.3575,-3.4176,-3.461,-3.5128,-3.5728,-3.6059,-3.637,-3.6618,-3.6949,-3.7343,-3.7819,-3.8129,-3.846,-3.8792,-3.8916,-3.8978,-3.8978,-3.9123,-3.9164,-3.9164,-3.9164,-3.9164,-3.9061,-3.7881,-3.7425,-3.7425,-3.7425,-3.7632,-3.7902,-3.7902,-3.7902,-3.7902,-3.7902,-3.7695,-3.7508,-3.7964,-3.8088,-3.8191,-3.8647,-3.8874,-3.9061,-3.9392,-3.9889,-4.0406,-4.0737,-4.1172,-4.1503,-4.1503,-4.1607,-4.169,-4.169,-4.14,-4.0924,-4.0241,-4.0406,-4.0675,-4.08,-4.1214,-4.1545,-4.1669,-4.1917,-4.2062,-4.2062,-4.2186,-4.2249,-4.2249,-4.2249,-4.2249,-4.2249,-4.2145,-4.2021,-4.1876,-4.1317,-4.022,-3.8502,-3.6887,-3.5832,0.0,0.0,0.0,0.0,0.0,0.0,0.0,0.0,0.0,0.0,0.0,0.0,0.0,0.0,0.0,0.0,0.0,0.0,0.0,0.0,0.0,0.0,-2.8229,-2.9289,-2.9393,-2.9435,-2.9932,-3.1112,-3.1422,-3.1919,-3.2913,-3.3182,-3.3596,-3.43,-3.4527,-3.4838,-3.5293,-3.5749,-3.6308,-3.697,-3.7239,-3.7653,-3.8212,-3.8316,-3.8585,-3.904,-3.9102,-3.9392,-3.9827,-4.0013,-4.0199,-4.0406,-4.0593,-4.0675,-4.0675,-4.0675,-4.0675,-4.0551,0.0,0.0,0.0,0.0,-3.8916,-3.9144,-3.9144,-3.9268,-3.9433,-3.9433,-3.9371,-3.9392,-3.9847,-3.9992,-4.0096,-4.0551,-4.0675,-4.0737,-4.1007,-4.1276,-4.1524,-4.1793,-4.2062,-4.2249,-4.2249,-4.2393,-4.2538,-4.2538,-4.2683,0.0,-4.2124,-4.1938,-4.1855,-4.1855,-4.2249,-4.2538,-4.2538,-4.2704,-4.2828,-4.2828,-4.2828,-4.2828,-4.2828,-4.2828,0.0,0.0,0.0,-4.2745,-4.2538,-4.1917,0.0,0.0,0.0,-3.7715,-3.726,-3.6349,0.0,0.0,-3.2106,-3.1692,0.0,0.0,0.0,0.0,0.0,0.0,0.0,0.0,0.0,0.0,0.0,0.0,0.0,0.0,0.0,0.0,-2.9228,-3.0015,-3.134,-3.1215,-3.1278,-3.2106,-3.2602,-3.3078,-3.3555,-3.3969,-3.4424,-3.4941,-3.5355,-3.5811,-3.6328,-3.6784,0.0,0.0,0.0,-3.8999,-4.0179,-3.9868,-3.993,-4.0386,-4.0013,-4.0054,-4.0468,-4.0862,-4.1255,-4.1669,-4.2083,-4.2249,-4.2249,-4.2249,-4.2249,-4.2104,-4.0468,-3.9847,-3.9847,-3.9847,-3.9847,-3.9847,-3.9847,0.0,0.0,-4.0468,-4.0717,-4.111,-4.1524,-4.1648,-4.1731,-4.2145,-4.2249,-4.2269,-4.2311,-4.2331,-4.2352,-4.2393,-4.2414,-4.2414,-4.2414,-4.2725,-4.2994,-4.2994,-4.3325,-4.3615,-4.3615,-4.2932,-4.2414,-4.2414,-4.2745,-4.2994,-4.2994,-4.3366,-4.3615,-4.3615,-4.3615,0.0,-4.3615,-4.3615,-4.3615,-4.3615,-4.3615,-4.3428,-4.3014,-4.2186,-4.1524,-4.111,-4.022,-3.9558,-3.9144,-3.8295,-3.7881,-3.7819,-3.5894,-3.5024,0.0,0.0,0.0,0.0,0.0,0.0,0.0,0.0,0.0,0.0,0.0,0.0,0.0,0.0,0.0,-3.0036,-3.0677,-3.1319,-3.2333,-3.2685,-3.2913,-3.3099,-3.3534,-3.4134,-3.4941,-3.5107,-3.55,-3.6349,-3.6494,-3.6908,-3.7736,-3.8212,-3.8709,-3.9268,-3.964,-3.9951,-4.022,-4.0489,-4.0841,-4.1317,-4.1586,0.0,-4.1876,-4.1959,-4.2042,-4.2124,-4.2228,-4.2249,-4.2249,-4.2249,-4.2249,-4.2228,-4.1876,-4.1731,-4.1731,-4.1731,-4.1731,-4.1731,-4.1731,-4.1793,-4.1855,-4.1855,-4.1917,-4.2,-4.2104,-4.2124,0.0,-4.2228,-4.2249,-4.2331,-4.2704,-4.2787,-4.289,-4.3263,-4.3346,-4.3346,-4.3346,-4.3428,-4.347,-4.347,-4.3553,-4.3615,-4.3615,-4.347,-4.3346,-4.3346,-4.3428,-4.347,-4.347,-4.3553,-4.3615,-4.3615,-4.3615,-4.3615,-4.3615,-4.3615,-4.3615,-4.3615,-4.3615,-4.3573,-4.3491,-4.2952,-4.2621,-4.2518,-4.1628,-4.1131,-4.1048,-4.0489,-4.022,-4.0158,-3.7591,-3.6618,0.0,0.0,0.0,0.0,0.0,0.0,0.0,0.0,0.0,0.0,0.0,-2.7676,-2.9042,0.0,-3.0098,-3.1485,-3.1899,-3.2375,-3.3265,-3.3969,-3.432,-3.4093,-3.4465,-3.5024,-3.5707,-3.5976,-3.6494,-3.7425,-3.7488,-3.7902,-3.8812,-3.9081,-3.9495,-4.0179,-4.0427,-4.0882,-4.1565,-4.1565,-4.1793,-4.2249,-4.2249,-4.2373,-4.258,-4.258,-4.2725,-4.2932,-4.2932,-4.2932,-4.2932,-4.2932,-4.2932,-4.2932,-4.2932,-4.2663,-4.2249,-4.2249,-4.2249,-4.2249,-4.2249,-4.2393,-4.258,-4.258,-4.2745,-4.2932,-4.2932,-4.2932,-4.2932,-4.2932,-4.2932,-4.2994,-4.3201,-4.3263,-4.3325,-4.3553,-4.3615,-4.3615,-4.3615,-4.3615,-4.3615,-4.3615,-4.3801,-4.3967,-4.3967,-4.4153,-4.4153,-4.3677,-4.3615,-4.3615,-4.3615,-4.3615,-4.3615,-4.3615,-4.3615,-4.3615,-4.3615,-4.3615,-4.3615,-4.3615,-4.3615,-4.3615,-4.3615,-4.3387,-4.3159,-4.2932,-4.2476,-4.2124,-4.1917,-4.1669,-4.1565,-4.1524,-3.9877,-3.9254,0.0,0.0,0.0,0.0,0.0,0.0,0.0,-2.6703,-2.7324,-2.8152,-2.869,-2.9332,-3.0346,-3.0822,-3.1505,-3.2789,-3.3058,-3.341,-3.4217,-3.5045,-3.5521,-3.5438,-3.5583,-3.5914,-3.6453,-3.6846,-3.7446,-3.8378,-3.844,-3.8854,-3.9744,-3.9889,-4.0303,-4.1131,-4.1234,-4.1814,-4.2911,-4.2559,-4.2621,-4.3056,-4.2683,-4.2704,-4.3056,-4.3056,-4.3263,-4.3615,-4.3615,-4.3615,-4.3615,-4.3615,-4.3615,-4.3615,-4.3615,-4.3159,-4.2518,-4.2518,-4.2518,-4.2518,-4.2518,-4.2745,-4.3056,-4.3056,-4.3304,-4.3615,-4.3615,-4.3615,-4.3615,-4.3615,-4.3615,-4.3615,-4.3615,-4.3615,-4.3635,-4.3718,-4.3739,-4.376,-4.3863,-4.3884,-4.3884,-4.3884,-4.4174,-4.4443,-4.4443,-4.4753,-4.4733,-4.3987,-4.3884,-4.3884,-4.3884,-4.3884,-4.3884,-4.3884,-4.3884,-4.3884,-4.3884,-4.3884,-4.3884,-4.3884,-4.3884,-4.3884,-4.3884,-4.3884,-4.3656,-4.3201,-4.318,-4.2973,-4.2518,-4.2518,-4.2369,-4.2369,-4.2071,-4.158,-2.4505,-2.5168,-2.5767,-2.5623,-2.6533,-2.7572,0.0,-2.838,-2.9145,-2.9663,-3.0139,-3.0864,-3.2188,-3.2478,-3.2809,-3.3762,-3.4258,-3.4714,-3.5211,-3.5707,-3.6473,-3.7653,-3.7115,-3.6991,-3.7881,-3.8005,-3.8419,-3.9309,-3.9392,-3.9785,-4.0675,-4.111,-4.1565,-4.2083,-4.2476,-4.2766,-4.2911,-4.287,-4.3077,-4.3532,-4.3491,-4.3491,-4.3532,-4.3532,-4.3553,-4.3615,-4.3615,-4.3615,-4.3615,-4.3615,-4.3615,-4.3615,-4.3615,-4.3553,-4.3449,-4.3449,-4.3449,-4.3449,-4.3449,-4.3491,-4.3532,-4.3532,-4.3573,-4.3615,-4.3615,-4.3615,-4.3615,-4.3615,-4.3615,-4.3615,-4.3615,-4.3615,-4.3718,-4.4132,-4.4236,-4.4339,-4.4753,-4.4836,-4.4836,-4.4836,-4.4877,-4.4919,-4.4919,-4.496,-4.496,-4.4857,-4.4836,-4.4836,-4.4836,-4.4836,-4.4836,-4.4836,-4.4836,-4.4836,-4.4836,-4.4836,-4.4836,-4.4836,-4.4836,-4.4836,-4.4836,-4.4836,-4.4629,-4.4153,-4.4153,-4.3925,-4.3449,-4.3166,-4.2861,-4.2861,-4.2861,-4.2371,-2.559,-2.6275,-2.6871,-2.7134,-2.7959,-2.8776,-2.9209,-2.9724,-3.0387,-3.1381,-3.1754,-3.2209,-3.3306,-3.3513,-3.3803,-3.4714,-3.5024,-3.5397,-3.6121,-3.6846,-3.7529,-3.8109,-3.8316,-3.8543,-3.8937,-3.8978,-3.9351,-4.0241,-4.0323,-4.0717,-4.1628,-4.1855,-4.2166,-4.2642,-4.2828,-4.3056,-4.3325,-4.3325,-4.3428,-4.3615,-4.3615,-4.3615,-4.3615,-4.3615,-4.3615,-4.3635,-4.3905,-4.4008,-4.4029,-4.4298,-4.4422,-4.4422,-4.4422,-4.4422,-4.436,-4.3801,-4.3615,-4.3615,-4.3615,-4.3615,-4.3656,-4.3925,-4.4008,-4.407,-4.4339,-4.4422,-4.4422,-4.4422,-4.4422,-4.4422,-4.4422,-4.4422,-4.4463,-4.465,-4.4712,-4.4753,-4.496,-4.5002,-4.5002,-4.5002,-4.5209,-4.5395,-4.5395,-4.5602,-4.5788,-4.5788,-4.5333,-4.5002,-4.5002,-4.5002,-4.5002,-4.5002,-4.5002,-4.5002,-4.5002,-4.5002,-4.5002,-4.5002,-4.5002,-4.5002,-4.5002,-4.5002,-4.4898,-4.4712,-4.4712,-4.4452,-4.3935,-4.38,-4.3644,-4.3331,-4.3154,-4.2797,-2.6804,-2.7362,-2.7883,-2.841,-2.9207,-3.0052,-3.0615,-3.1121,-3.1754,-3.2871,-3.2984,-3.321,-3.4113,-3.4362,-3.4572,-3.548,-3.5832,-3.6266,-3.7074,-3.786,-3.846,-3.8709,-3.9433,-3.9951,-4.0096,-3.9992,-4.0241,-4.1007,-4.1193,-4.1607,-4.2393,-4.2435,-4.2642,-4.3097,-4.3118,-4.3263,-4.3615,-4.3615,-4.3615,-4.3615,-4.3615,-4.3677,-4.3801,-4.3925,-4.3987,-4.4008,-4.4339,-4.4484,-4.4526,-4.4857,-4.5002,-4.5002,-4.5002,-4.5002,-4.4919,-4.4236,-4.3987,-4.3987,-4.3987,-4.3987,-4.4049,-4.4381,-4.4484,-4.4546,-4.4898,-4.5002,-4.5002,-4.5002,-4.5002,-4.5002,-4.5002,-4.5002,-4.5022,-4.5147,-4.5188,-4.5209,-4.5333,-4.5374,-4.5374,-4.5374,-4.5643,-4.5871,-4.5871,-4.614,-4.6389,-4.6513,-4.5975,-4.5519,-4.5374,-4.5374,-4.5374,-4.5374,-4.5374,-4.5374,-4.5374,-4.5374,-4.5374,-4.5374,-4.5374,-4.5374,-4.5374,-4.5374,-4.5312,-4.503,-4.5009,-4.4632,-4.4193,-4.4035,-4.3876,-4.3559,-4.3241,-4.3061,-2.8105,-2.875,-2.9322,-2.9342,-3.0419,-3.1615,-3.2085,-3.2744,-3.343,-3.3927,-3.3793,-3.3817,-3.4652,-3.4841,-3.5169,-3.6018,-3.6846,-3.7612,-3.8088,-3.8543,-3.9164,-4.0054,-4.0551,-4.1007,-4.1462,-4.1089,-4.1027,-4.1503,-4.1959,-4.2414,-4.287,-4.2911,-4.3118,-4.3573,-4.3594,-4.3594,-4.3615,-4.3615,-4.3615,-4.3615,-4.3615,-4.3842,-4.4298,-4.4753,-4.496,-4.496,-4.496,-4.4981,-4.4981,-4.4981,-4.5002,-4.5002,-4.5002,-4.5002,-4.4981,-4.496,-4.496,-4.496,-4.496,-4.496,-4.496,-4.496,-4.4981,-4.4981,-4.4981,-4.5002,-4.5002,-4.5002,-4.5002,-4.5002,-4.5002,-4.5002,-4.5105,-4.5561,-4.5664,-4.5788,-4.6223,-4.6306,-4.6306,-4.6306,-4.6306,-4.6326,-4.6326,-4.6347,-4.6492,-4.6947,-4.6989,-4.6803,-4.6368,-4.6306,-4.6306,-4.6306,-4.6306,-4.6306,-4.6306,-4.6306,-4.6306,-4.6306,-4.6306,-4.6306,-4.6306,-4.6306,-4.5938,-4.5025,-4.5004,-4.464,-4.3738,-4.34,-4.3061,-4.3061,-4.3081,-4.3061,-2.9372,-2.9806,-3.0333,-3.0611,-3.1451,-3.2226,-3.2434,-3.2892,-3.3374,-3.3821,-3.3801,-3.3923,-3.4492,-3.494,-3.5534,-3.6111,-3.7212,-3.8109,-3.8564,-3.9288,-3.9992,-4.0593,-4.1048,-4.1524,-4.1979,-4.1876,-4.1979,-4.2435,-4.26,-4.289,-4.3346,-4.3387,-4.3449,-4.3615,-4.3615,-4.3615,-4.3615,-4.3925,-4.407,-4.407,-4.4381,-4.4608,-4.4774,-4.4919,-4.5002,-4.5022,-4.5312,-4.5457,-4.5478,-4.5768,-4.5892,-4.5892,-4.5892,-4.5892,-4.5892,-4.5892,-4.5892,-4.5809,-4.5209,-4.5002,-4.5043,-4.5354,-4.5457,-4.5498,-4.5809,-4.5892,-4.5892,-4.5892,-4.5892,-4.5892,-4.5892,-4.5892,-4.5933,-4.6078,-4.6119,-4.6244,-4.6699,-4.6803,-4.6885,-4.7175,-4.7237,-4.7237,-4.7237,-4.7237,-4.7279,-4.7444,-4.7465,-4.7403,-4.7258,-4.7237,-4.7237,-4.7237,-4.7237,-4.7237,-4.7237,-4.6968,-4.6803,-4.6803,-4.6513,-4.6185,-4.5861,-4.5861,-4.5637,-4.4987,-4.4987,-4.4744,-4.4096,-4.4096,-4.3771,-4.3445,-4.3445,-4.3445,-3.0148,-3.06,-3.0994,-3.1269,-3.188,-3.2555,-3.2752,-3.2974,-3.3276,-3.388,-3.3757,-3.3777,-3.4342,-3.5053,-3.5814,-3.6099,-3.7319,-3.845,-3.8767,-3.961,-4.0492,-4.1069,-4.1669,-4.2166,-4.2476,-4.2642,-4.2787,-4.2911,-4.3077,-4.3304,-4.3594,-4.3615,-4.3615,-4.3615,-4.378,-4.3863,-4.3863,-4.4319,-4.4546,-4.4546,-4.5022,-4.5229,-4.525,-4.5416,-4.5478,-4.5498,-4.5788,-4.5912,-4.5933,-4.6223,-4.6451,-4.6596,-4.6596,-4.6678,-4.6823,-4.6823,-4.6823,-4.6699,-4.5788,-4.5478,-4.5519,-4.583,-4.5912,-4.5975,-4.6264,-4.6347,-4.6368,-4.6554,-4.6596,-4.6637,-4.6782,-4.6823,-4.6823,-4.6823,-4.6823,-4.6906,-4.7196,-4.7279,-4.7341,-4.7631,-4.7693,-4.7693,-4.7693,-4.7817,-4.792,-4.792,-4.8065,-4.8065,-4.7734,-4.7693,-4.7693,-4.7693,-4.7693,-4.7693,-4.7693,-4.7424,-4.7279,-4.7279,-4.6989,-4.6598,-4.6127,-4.6106,-4.5698,-4.5046,-4.4882,-4.4534,-4.4205,-4.4205,-4.4041,-4.3711,-4.3711,-4.3876,-3.0801,-3.1211,-3.1523,-3.1562,-3.2116,-3.2772,-3.3188,-3.3214,-3.3377,-3.4057,-3.3773,-3.351,-3.4178,-3.5107,-3.5711,-3.5751,-3.7278,-3.8473,-3.8942,-3.9779,-4.0679,-4.1586,-4.2393,-4.2932,-4.2952,-4.3346,-4.3428,-4.2994,-4.3366,-4.3615,-4.3615,-4.3615,-4.3615,-4.3656,-4.407,-4.4319,-4.4339,-4.4795,-4.5043,-4.5064,-4.5498,-4.5726,-4.5726,-4.6161,-4.6368,-4.6389,-4.6389,-4.6389,-4.6409,-4.6409,-4.6678,-4.7072,-4.7072,-4.732,-4.7693,-4.7693,-4.7693,-4.7568,-4.672,-4.6409,-4.6409,-4.6409,-4.6409,-4.6409,-4.6409,-4.6409,-4.6513,-4.6947,-4.7072,-4.7175,-4.7568,-4.7693,-4.7693,-4.7693,-4.7693,-4.7693,-4.7713,-4.7713,-4.7734,-4.7755,-4.7755,-4.7755,-4.7755,-4.8127,-4.8417,-4.8417,-4.879,-4.8748,-4.7858,-4.7755,-4.7755,-4.7755,-4.7755,-4.7755,-4.7755,-4.7734,-4.7713,-4.7713,-4.7693,-4.7506,-4.7092,-4.6722,-4.6023,-4.5126,-4.4614,-4.4265,-4.3769,-4.3769,-4.3769,-4.373,-4.373,-4.3896,-3.123,-3.1445,-3.168,-3.2305,-3.2662,-3.2779,-3.2897,-3.2962,-3.2844,-3.2745,-3.2647,-3.2583,-3.3119,-3.4153,-3.5006,-3.565,-3.7412,-3.8986,-3.9791,-4.0678,-4.1544,-4.2476,-4.2787,-4.3056,-4.3408,-4.3532,-4.3553,-4.3449,-4.3532,-4.3615,-4.3615,-4.3615,-4.376,-4.4112,-4.4236,-4.4463,-4.4815,-4.5271,-4.5685,-4.5995,-4.6119,-4.6182,-4.6182,-4.6285,-4.6533,-4.6865,-4.6865,-4.7051,-4.7341,-4.7341,-4.7424,-4.7527,-4.7527,-4.7589,-4.7693,-4.7693,-4.7693,-4.7651,-4.7424,-4.7341,-4.7341,-4.7341,-4.7341,-4.7341,-4.7341,-4.7341,-4.7361,-4.7486,-4.7527,-4.7548,-4.7651,-4.7693,-4.7693,-4.7693,-4.7693,-4.7775,-4.8127,-4.7873,-4.7976,-4.8645,-4.8707,-4.8707,-4.8707,-4.881,-4.8893,-4.8893,-4.8997,-4.8976,-4.8748,-4.8707,-4.8707,-4.8707,-4.8707,-4.8707,-4.8707,-4.8396,-4.8189,-4.8189,-4.7879,-4.7464,-4.7028,-4.7028,-4.6634,-4.6011,-4.5677,-4.5321,-4.5154,-4.4837,-4.4531,-4.4219,-4.4219,-4.4043,-3.1445,-3.1797,-3.2187,-3.2676,-3.293,-3.3027,-3.2832,-3.2656,-3.2461,-3.2226,-3.2012,-3.2012,-3.2441,-3.3525,-3.4538,-3.524,-3.7023,-3.8753,-3.9815,-4.0884,-4.1998,-4.2828,-4.3097,-4.3174,-4.3289,-4.3462,-4.3462,-4.3136,-4.3462,-4.3462,-4.331,-4.3648,-4.3875,-4.3988,-4.4535,-4.5126,-4.5581,-4.585,-4.6099,-4.6347,-4.6347,-4.6451,-4.6658,-4.6658,-4.6885,-4.732,-4.732,-4.7465,-4.7693,-4.7693,-4.7796,-4.7982,-4.7982,-4.8107,-4.8293,-4.8293,-4.8293,-4.8293,-4.8293,-4.8293,-4.8231,-4.7817,-4.7693,-4.7693,-4.7693,-4.7693,-4.7734,-4.792,-4.7982,-4.8024,-4.8062,-4.8124,-4.8293,-4.7786,-4.7786,-4.8017,-4.8114,-4.8004,-4.8257,-4.9017,-4.9059,-4.9059,-4.9059,-4.8887,-4.8716,-4.8716,-4.8544,-4.8564,-4.8564,-4.8887,-4.9059,-4.9059,-4.9059,-4.9059,-4.9059,-4.8661,-4.8495,-4.8686,-4.8269,-4.7852,-4.7667,-4.7311,-4.6892,-4.6373,-4.5678,-4.534,-4.534,-4.5189,-4.4902,-4.4668,-4.4668,-4.4531,-3.166,-3.2226,-3.2812,-3.2871,-3.3105,-3.3223,-3.2812,-3.2383,-3.207,-3.2012,-3.1699,-3.1562,-3.2012,-3.3105,-3.3922,-3.4545,-3.6323,-3.8178,-3.9432,-4.0883,-4.1928,-4.272,-4.3325,-4.3462,-4.3157,-4.331,-4.333,-4.2604,-4.3239,-4.3392,-4.3106,-4.3844,-4.4111,-4.3861,-4.5174,-4.5954,-4.6185,-4.6347,-4.6347,-4.6185,-4.6409,-4.6658,-4.6866,-4.7092,-4.7361,-4.7775,-4.7775,-4.7817,-4.7858,-4.7858,-4.8107,-4.8459,-4.8459,-4.8707,-4.9059,-4.9059,-4.9059,-4.9059,-4.9059,-4.9059,-4.8935,-4.8127,-4.7858,-4.7858,-4.7858,-4.7858,-4.7962,-4.8355,-4.8459,-4.8562,-4.8442,-4.8716,-4.8887,-4.7874,-4.8027,-4.8199,-4.7874,-4.8027,-4.8372,-4.8716,-4.8887,-4.8887,-4.8887,-4.8544,-4.8372,-4.8372,-4.8047,-4.7701,-4.7701,-4.8392,-4.8887,-4.8887,-4.8887,-4.8887,-4.8887,-4.8544,-4.8544,-4.9059,-4.8716,-4.836,-4.8479,-4.761,-4.6917,-4.6575,-4.5707,-4.5195,-4.5195,-4.5195,-4.5176,-4.5117,-4.5117,-4.5078,-3.2383,-3.2676,-3.2871,-3.3223,-3.3105,-3.2793,-3.2383,-3.1934,-3.1543,-3.1191,-3.1055,-3.1133,-3.1543,-3.2293,-3.3251,-3.4298,-3.601,-3.7636,-3.8922,-4.0535,-4.1853,-4.2399,-4.3194,-4.3615,-4.3462,-4.331,-4.3167,-4.3359,-4.3575,-4.3575,-4.3575,-4.3984,-4.4412,-4.478,-4.5633,-4.6103,-4.5881,-4.6185,-4.6185,-4.5881,-4.6577,-4.6804,-4.6557,-4.7237,-4.7817,-4.8252,-4.8252,-4.8479,-4.8831,-4.8831,-4.8873,-4.8955,-4.8955,-4.8997,-4.9059,-4.9059,-4.9059,-4.9059,-4.9059,-4.9059,-4.9038,-4.8873,-4.8831,-4.8831,-4.8831,-4.8831,-4.8852,-4.8914,-4.8955,-4.8955,-4.8523,-4.8716,-4.8887,-4.7874,-4.8027,-4.8199,-4.7874,-4.7701,-4.7701,-4.7354,-4.7701,-4.7874,-4.7874,-4.7874,-4.7874,-4.7874,-4.7701,-4.7701,-4.7701,-4.7874,-4.7874,-4.7874,-4.7874,-4.7874,-4.7874,-4.8199,-4.8372,-4.8544,-4.8372,-4.8331,-4.8421,-4.7926,-4.756,-4.748,-4.6962,-4.6595,-4.6595,-4.6248,-4.5898,-4.5566,-4.5566,-4.5371,-3.2617,-3.2949,-3.3164,-3.3379,-3.3105,-3.2676,-3.2266,-3.1836,-3.1406,-3.0976,-3.0898,-3.0957,-3.1152,-3.1662,-3.2473,-3.3713,-3.5335,-3.6902,-3.8482,-4.0411,-4.1771,-4.2399,-4.2891,-4.3157,-4.2984,-4.3004,-4.3054,-4.3014,-4.3589,-4.3868,-4.3711,-4.4136,-4.4582,-4.5372,-4.5758,-4.5861,-4.5719,-4.6023,-4.6146,-4.6065,-4.6763,-4.6969,-4.7086,-4.7794,-4.8124,-4.8066,-4.8557,-4.8681,-4.8716,-4.9059,-4.9059,-4.9059,-4.9059,-4.9059,-4.9059,-4.9059,-4.9059,-4.9059,-4.9059,-4.9059,-4.9059,-4.9059,-4.8887,-4.8716,-4.8716,-4.8544,-4.8392,-4.8392,-4.8392,-4.822,-4.7854,-4.8027,-4.822,-4.7181,-4.7161,-4.7334,-4.7354,-4.7354,-4.7354,-4.7354,-4.7528,-4.7701,-4.7701,-4.7528,-4.7354,-4.7354,-4.7181,-4.7007,-4.7007,-4.7007,-4.7181,-4.7701,-4.7701,-4.7701,-4.7701,-4.7701,-4.7854,-4.8027,-4.7854,-4.7854,-4.8047,-4.7528,-4.7354,-4.7354,-4.6832,-4.6658,-4.6658,-4.6483,-4.6191,-4.5996,-4.5996,-4.5879,-3.2676,-3.3105,-3.3398,-3.3301,-3.2969,-3.2559,-3.2129,-3.1621,-3.1133,-3.082,-3.0664,-3.0644,-3.0723,-3.1094,-3.178,-3.301,-3.4512,-3.6082,-3.7766,-3.9942,-4.148,-4.1956,-4.2546,-4.2851,-4.237,-4.2778,-4.2867,-4.2683,-4.3856,-4.4478,-4.3979,-4.4321,-4.4825,-4.5372,-4.5535,-4.5535,-4.5372,-4.5963,-4.6352,-4.6227,-4.6907,-4.738,-4.7549,-4.797,-4.8045,-4.7701,-4.8544,-4.8716,-4.8372,-4.8887,-4.9059,-4.9059,-4.9059,-4.9059,-4.9059,-4.9059,-4.9059,-4.9059,-4.9059,-4.9059,-4.9059,-4.9059,-4.8887,-4.8544,-4.8372,-4.8199,-4.7874,-4.7701,-4.7701,-4.7528,-4.7181,-4.7354,-4.7528,-4.6658,-4.6308,-4.6483,-4.6832,-4.6832,-4.7007,-4.7354,-4.7354,-4.7354,-4.7354,-4.7007,-4.6832,-4.6832,-4.6483,-4.6308,-4.6308,-4.6308,-4.6658,-4.7354,-4.7354,-4.7354,-4.7354,-4.7181,-4.7181,-4.7528,-4.7181,-4.7181,-4.7528,-4.7181,-4.6832,-4.6832,-4.6483,-4.6308,-4.6308,-4.6308,-4.6308,-4.6308,-4.6308,-4.6308,-3.2676,-3.3105,-3.332,-3.2949,-3.2539,-3.2109,-3.168,-3.0918,-3.0312,-3.0273,-2.9961,-2.9805,-3.0195,-3.0644,-3.1348,-3.2574,-3.3803,-3.5111,-3.6479,-3.8869,-4.0593,-4.0724,-4.2039,-4.2851,-4.237,-4.2752,-4.3175,-4.3597,-4.4764,-4.5413,-4.4925,-4.4965,-4.4842,-4.4534,-4.4882,-4.4882,-4.4534,-4.5778,-4.6166,-4.5855,-4.704,-4.7467,-4.7017,-4.7612,-4.7661,-4.7701,-4.8199,-4.8372,-4.8372,-4.8887,-4.9059,-4.9059,-4.9059,-4.9059,-4.9059,-4.9059,-4.9059,-4.9059,-4.9059,-4.9059,-4.9059,-4.9059,-4.9059,-4.8887,-4.8544,-4.8372,-4.8199,-4.7874,-4.7701,-4.7528,-4.7181,-4.7354,-4.7528,-4.7007,-4.6658,-4.6308,-4.6308,-4.6308,-4.6308,-4.6483,-4.6483,-4.6483,-4.6483,-4.6308,-4.6308,-4.6308,-4.6308,-4.6308,-4.6308,-4.6308,-4.6308,-4.6483,-4.6483,-4.6483,-4.6483,-4.6832,-4.7007,-4.7007,-4.7007,-4.7007,-4.7007,-4.6658,-4.6308,-4.6308,-4.6308,-4.6308,-4.6308,-4.6308,-4.6308,-4.6308,-4.6308,-4.6308,-3.2305,-3.2539,-3.2637,-3.2461,-3.209,-3.166,-3.125,-3.0644,-3.0117,-2.9863,-2.9687,-2.9707,-3.0117,-3.0351,-3.0762,-3.176,-3.3223,-3.4655,-3.5717,-3.8187,-4.0076,-4.0514,-4.1542,-4.2236,-4.2082,-4.2461,-4.302,-4.406,-4.4683,-4.4882,-4.4698,-4.4882,-4.4882,-4.437,-4.4534,-4.4673,-4.4766,-4.5795,-4.6325,-4.5987,-4.7196,-4.752,-4.7075,-4.7448,-4.7354,-4.6832,-4.8027,-4.8027,-4.7681,-4.8716,-4.8887,-4.8716,-4.9059,-4.9059,-4.9059,-4.9059,-4.9059,-4.9059,-4.9059,-4.8887,-4.8716,-4.8716,-4.8544,-4.822,-4.8047,-4.7508,-4.7161,-4.6832,-4.6832,-4.6832,-4.6658,-4.6658,-4.6832,-4.6658,-4.6483,-4.6308,-4.6308,-4.6308,-4.6308,-4.6308,-4.6308,-4.6308,-4.6308,-4.6308,-4.6308,-4.6308,-4.6308,-4.6308,-4.6308,-4.6308,-4.6308,-4.6308,-4.6308,-4.6308,-4.6308,-4.6483,-4.6658,-4.6658,-4.6658,-4.6658,-4.6658,-4.6483,-4.6308,-4.6308,-4.6308,-4.6308,-4.6308,-4.6308,-4.6308,-4.6308,-4.6308,-4.6308,-3.1855,-3.207,-3.2148,-3.2012,-3.166,-3.1211,-3.0781,-3.0234,-2.9726,-2.9434,-2.9277,-2.9316,-2.9746,-2.9922,-3.0293,-3.1191,-3.2647,-3.3965,-3.5,-3.7471,-3.9425,-3.9998,-4.1039,-4.1634,-4.1618,-4.2288,-4.3141,-4.4361,-4.4538,-4.4534,-4.4205,-4.4534,-4.4698,-4.4205,-4.4344,-4.4561,-4.4877,-4.5804,-4.6414,-4.6352,-4.7178,-4.7399,-4.7007,-4.7181,-4.7007,-4.6308,-4.7681,-4.7854,-4.7354,-4.8544,-4.8887,-4.8716,-4.8887,-4.9059,-4.9059,-4.9059,-4.9059,-4.9059,-4.9059,-4.8716,-4.8372,-4.8372,-4.8027,-4.7528,-4.7528,-4.7007,-4.6483,-4.6308,-4.6308,-4.6308,-4.6308,-4.6308,-4.6308,-4.6308,-4.6308,-4.6308,-4.6308,-4.6308,-4.6308,-4.6308,-4.6308,-4.6308,-4.6308,-4.6308,-4.6308,-4.6308,-4.6308,-4.6308,-4.6308,-4.6308,-4.6308,-4.6308,-4.6308,-4.6308,-4.6308,-4.6308,-4.6308,-4.6308,-4.6308,-4.6308,-4.6308,-4.6308,-4.6308,-4.6308,-4.6308,-4.6308,-4.6308,-4.6308,-4.6308,-4.6308,-4.6308,-4.6308,-3.1406,-3.1836,-3.207,-3.1621,-3.1211,-3.0781,-3.0312,-2.9551,-2.8926,-2.8926,-2.8594,-2.8437,-2.8848,-2.9277,-2.9863,-3.0762,-3.1973,-3.3242,-3.4531,-3.6601,-3.8201,-3.9062,-4.0282,-4.1144,-4.1133,-4.2408,-4.3418,-4.4291,-4.4698,-4.4554,-4.3711,-4.4205,-4.4205,-4.3711,-4.416,-4.4394,-4.4394,-4.5726,-4.6333,-4.6352,-4.6789,-4.7007,-4.7007,-4.6483,-4.6308,-4.6308,-4.7354,-4.7701,-4.7701,-4.8716,-4.9059,-4.9059,-4.9059,-4.9059,-4.9059,-4.9059,-4.9059,-4.9059,-4.9059,-4.8716,-4.8372,-4.8372,-4.7681,-4.7007,-4.7007,-4.7007,-4.6832,-4.6483,-4.6308,-4.6308,-4.6308,-4.6308,-4.6308,-4.6308,-4.6308,-4.6308,-4.6308,-4.6308,-4.6308,-4.6308,-4.6308,-4.6308,-4.6308,-4.6308,-4.6308,-4.6308,-4.6308,-4.6308,-4.6308,-4.6308,-4.6308,-4.6308,-4.6308,-4.6308,-4.6308,-4.6308,-4.6308,-4.6308,-4.6308,-4.6308,-4.6308,-4.6308,-4.6308,-4.6308,-4.6308,-4.6308,-4.6308,-4.6308,-4.6308,-4.6308,-4.6308,-4.6308,-3.0586,-3.0937,-3.1191,-3.0723,-3.0508,-3.0234,-2.9492,-2.9121,-2.875,-2.8184,-2.8184,-2.834,-2.8476,-2.9082,-2.9746,-3.0332,-3.1758,-3.3144,-3.4141,-3.6152,-3.7916,-3.9043,-4.0386,-4.1406,-4.1953,-4.2425,-4.2954,-4.3797,-4.4041,-4.4041,-4.3711,-4.3876,-4.4013,-4.416,-4.4316,-4.4687,-4.5273,-4.6042,-4.6319,-4.6268,-4.6773,-4.6832,-4.6483,-4.6308,-4.6308,-4.6308,-4.7007,-4.7181,-4.7354,-4.8199,-4.8544,-4.8716,-4.8887,-4.9059,-4.9059,-4.9059,-4.9059,-4.9059,-4.8716,-4.8372,-4.7874,-4.7528,-4.7007,-4.6483,-4.6483,-4.6483,-4.6483,-4.6308,-4.6308,-4.6308,-4.6308,-4.6308,-4.6308,-4.6308,-4.6308,-4.6308,-4.6308,-4.6308,-4.6308,-4.6308,-4.6308,-4.6308,-4.6308,-4.6308,-4.6308,-4.6308,-4.6308,-4.6308,-4.6308,-4.6308,-4.6308,-4.6308,-4.6308,-4.6308,-4.6308,-4.6308,-4.6308,-4.6308,-4.6308,-4.6308,-4.6308,-4.6308,-4.6308,-4.6308,-4.6308,-4.6308,-4.6308,-4.6308,-4.6308,-4.6308,-4.6308,-4.6308,-2.9824,-3.0176,-3.0332,-3.0039,-2.9844,-2.9531,-2.8848,-2.8555,-2.8301,-2.7773,-2.7871,-2.8164,-2.8476,-2.9101,-2.9766,-3.0351,-3.1777,-3.3144,-3.416,-3.6035,-3.7891,-3.9512,-4.0566,-4.1504,-4.2344,-4.2422,-4.2773,-4.3633,-4.3711,-4.3711,-4.3711,-4.3711,-4.3984,-4.4609,-4.4629,-4.4961,-4.5664,-4.6166,-4.6383,-4.6308,-4.6658,-4.6658,-4.6308,-4.6308,-4.6308,-4.6308,-4.6832,-4.7007,0.0,-4.8027,-4.8372,-4.8199,-4.8716,-4.8716,-4.8564,-4.8564,-4.8564,-4.8544,-4.8199,-4.7874,-4.7354,-4.7181,-4.6658,-4.6308,-4.6308,-4.6308,-4.6308,-4.6308,-4.6308,-4.6308,-4.6308,-4.6308,-4.6308,-4.6308,-4.6308,-4.6308,-4.6308,-4.6308,-4.6308,-4.6308,-4.6308,-4.6308,-4.6308,-4.6308,-4.6308,-4.6308,-4.6308,-4.6308,-4.6308,-4.6308,-4.6308,-4.6308,-4.6308,-4.6308,-4.6308,-4.6308,-4.6308,-4.6308,-4.6308,-4.6308,-4.6308,-4.6308,-4.6308,-4.6308,-4.6308,-4.6308,-4.6308,-4.6308,-4.6308,-4.6308,-4.6308,-4.6308,0.0,-2.9453,-2.9531,-2.9531,-2.9219,-2.8809,-2.8398,-2.7988,0.0,-2.7676,-2.7715,-2.7988,-2.873,-2.9277,-2.9902,-3.0762,-3.1973,-3.3242,-3.4512,-3.6269,-3.8203,-4.0273,-4.0898,-4.1504,-4.2344,-4.2422,-4.2773,-4.3633,-4.3711,-4.3711,-4.3711,-4.3711,-4.4101,-4.4961,-4.5,-4.5254,-4.5723,-4.6113,-4.6308,-4.6308,-4.6308,-4.6308,-4.6308,-4.6308,-4.6308,-4.6308,-4.6832,-4.7007,-4.7007,-4.7854,-4.8027,-4.7701,-4.8199,-4.8027,-4.7701,-4.7701,-4.7701,-4.7701,-4.7701,-4.7354,-4.7007,-4.7007,-4.6658,-4.6308,-4.6308,-4.6308,-4.6308,-4.6308,-4.6308,-4.6308,-4.6308,-4.6308,-4.6308,-4.6308,-4.6308,-4.6308,-4.6308,-4.6308,-4.6308,-4.6308,-4.6308,-4.6308,-4.6308,-4.6308,-4.6308,-4.6308,-4.6308,-4.6308,-4.6308,-4.6308,-4.6308,-4.6308,-4.6308,-4.6308,-4.6308,-4.6308,-4.6308,-4.6308,-4.6308,-4.6308,-4.6308,-4.6308,-4.6308,-4.6308,-4.6308,-4.6308,-4.6308,-4.6308,-4.6308,-4.6308,-4.6308,-4.6308,-2.7344,0.0,-2.9062,-2.9062,-2.9004,-2.8809,0.0,-2.8223,-2.8047,-2.7734,-2.8184,-2.8594,-2.8457,-2.9316,-3.0234,-3.0801,-3.1973,-3.3242,-3.4512,-3.7031,-3.9199,-4.0371,-4.0898,-4.1504,-4.2344,-4.2422,-4.2773,-4.3633,-4.3711,-4.3711,-4.3711,-4.3711,-4.3965,-4.4531,-4.4863,-4.5391,-4.6152,-4.625,-4.6308,-4.6308,-4.6308,-4.6308,-4.6308,-4.6308,-4.6308,-4.6308,-4.6483,-4.6658,-4.7007,-4.7181,-4.7528,-4.7701,-4.7874,-4.7874,-4.7701,-4.7701,-4.7701,-4.7701,-4.7354,-4.7007,-4.7007,-4.6658,-4.6308,-4.6308,-4.6308,-4.6308,-4.6308,-4.6308,-4.6308,-4.6308,-4.6308,-4.6308,-4.6308,-4.6308,-4.6308,-4.6308,-4.6308,-4.6308,-4.6308,-4.6308,-4.6308,-4.6308,-4.6308,-4.6308,-4.6308,-4.6308,-4.6308,-4.6308,-4.6308,-4.6308,-4.6308,-4.6308,-4.6308,-4.6308,-4.6308,-4.6308,-4.6308,-4.6308,-4.6308,-4.6308,-4.6308,-4.6308,-4.6308,-4.6308,-4.6308,-4.6308,-4.6308,-4.6308,-4.6308,-4.6308,-4.6308,-4.6308,-2.625,-2.7363,-2.834,-2.834,-2.8496,-2.8516,-2.8105,-2.8164,-2.8223,-2.8008,-2.8476,-2.8965,-2.9141,-2.9902,-3.0801,-3.1621,-3.2832,-3.4394,-3.6465,-3.8516,-4.0059,-4.0742,-4.1211,-4.1719,-4.2363,-4.2617,-4.3008,-4.3652,-4.3711,-4.3711,-4.3711,-4.3711,-4.3926,-4.4375,-4.4805,-4.5351,-4.6016,-4.6211,-4.6308,-4.6308,-4.6308,-4.6308,-4.6308,-4.6308,-4.6308,-4.6308,-4.6308,-4.6483,-4.6658,-4.6832,-4.7007,-4.7007,-4.7354,-4.7181,-4.7007,-4.7007,-4.7007,-4.7007,-4.6832,-4.6658,-4.6658,-4.6308,-4.6308,-4.6308,-4.6308,-4.6308,-4.6308,-4.6308,-4.6308,-4.6308,-4.6308,-4.6308,-4.6308,-4.6308,-4.6308,-4.6308,-4.6308,-4.6308,-4.6308,-4.6308,-4.6308,-4.6308,-4.6308,-4.6308,-4.6308,-4.6308,-4.6308,-4.6308,-4.6308,-4.6308,-4.6308,-4.6308,-4.6308,-4.6308,-4.6308,-4.6308,-4.6308,-4.6308,-4.6308,-4.6308,-4.6308,-4.6308,-4.6308,-4.6308,-4.6308,-4.6308,-4.6308,-4.6308,-4.6308,-4.6308,-4.6308,-4.6308,-2.5508,-2.6582,-2.7578,-2.7656,-2.7988,-2.8223,-2.793,-2.8125,-2.8398,-2.8476,-2.8828,-2.9355,-3.0156,-3.0684,-3.1406,-3.2676,-3.4141,-3.6055,-3.8809,-3.9961,-4.0684,-4.1113,-4.1543,-4.1973,-4.2383,-4.2812,-4.3262,-4.3672,-4.3711,-4.3711,-4.3711,-4.3711,-4.3887,-4.4277,-4.4707,-4.5137,-4.5566,-4.6055,-4.6308,-4.6308,-4.6308,-4.6308,-4.6308,-4.6308,-4.6308,-4.6308,-4.6308,-4.6308,-4.6308,-4.6658,-4.6658,-4.6308,-4.6658,-4.6658,-4.6308,-4.6308,-4.6308,-4.6308,-4.6308,-4.6308,-4.6308,-4.6308,-4.6308,-4.6308,-4.6308,-4.6308,-4.6308,-4.6308,-4.6308,-4.6308,-4.6308,-4.6308,-4.6308,-4.6308,-4.6308,-4.6308,-4.6308,-4.6308,-4.6308,-4.6308,-4.6308,-4.6308,-4.6308,-4.6308,-4.6308,-4.6308,-4.6308,-4.6308,-4.6308,-4.6308,-4.6308,-4.6308,-4.6308,-4.6308,-4.6308,-4.6308,-4.6308,-4.6308,-4.6308,-4.6308,-4.6308,-4.6308,-4.6308,-4.6308,-4.6308,-4.6308,-4.6308,-4.6308,-4.6308,-4.6308,-4.6308,-4.6308,-2.5153,-2.6113,-2.7207,-2.7578,-2.7988,-2.8359,-2.8652,-2.8769,-2.8926,-2.9297,-2.9707,-3.0156,-3.0684,-3.1133,-3.1836,-3.3125,-3.5332,-3.7441,-3.8984,-3.9961,-4.0684,-4.1113,-4.1543,-4.1973,-4.2383,-4.2812,-4.3262,-4.3672,-4.3711,-4.3711,-4.3711,-4.3711,-4.373,-4.3808,-4.4258,-4.4687,-4.5117,-4.5898,-4.6308,-4.6308,-4.6308,-4.6308,-4.6308,-4.6308,-4.6308,-4.6308,-4.6308,-4.6308,-4.6308,-4.6308,-4.6308,-4.6308,-4.6308,-4.6308,-4.6308,-4.6308,-4.6308,-4.6308,-4.6308,-4.6308,-4.6308,-4.6308,-4.6308,-4.6308,-4.6308,-4.6308,-4.6308,-4.6308,-4.6308,-4.6308,-4.6308,-4.6308,-4.6308,-4.6308,-4.6308,-4.6308,-4.6308,-4.6308,-4.6308,-4.6308,-4.6308,-4.6308,-4.6308,-4.6308,-4.6308,-4.6308,-4.6308,-4.6308,-4.6308,-4.6308,-4.6308,-4.6308,-4.6308,-4.6308,-4.6308,-4.6308,-4.6308,-4.6308,-4.6308,-4.6308,-4.6308,-4.6308,-4.6308,-4.6308,-4.6308,-4.6308,-4.6308,-4.6308,-4.6308,-4.6308,-4.6308,-4.6308,-2.5349,-2.6211,-2.7168,-2.7832,-2.832,-2.8672,-2.8867,-2.9277,-2.9668,-2.9863,-3.0449,-3.1055,-3.1504,-3.2109,-3.3203,-3.5195,-3.709,-3.8691,-3.9766,-4.0469,-4.1035,-4.1465,-4.1894,-4.2305,-4.2734,-4.3164,-4.3496,-4.3691,-4.3711,-4.3711,-4.3711,-4.3711,-4.3711,-4.3711,-4.416,-4.459,-4.5019,-4.5644,-4.6074,-4.6308,-4.6308,-4.6308,-4.6308,-4.6308,-4.6308,-4.6308,-4.6308,-4.6308,-4.6308,-4.6308,-4.6308,-4.6308,-4.6308,-4.6308,-4.6308,-4.6308,-4.6308,-4.6308,-4.6308,-4.6308,-4.6308,-4.6308,-4.6308,-4.6308,-4.6308,-4.6308,-4.6308,-4.6308,-4.6308,-4.6308,-4.6308,-4.6308,-4.6308,-4.6308,-4.6308,-4.6308,-4.6308,-4.6308,-4.6308,-4.6308,-4.6308,-4.6308,-4.6308,-4.6308,-4.6308,-4.6308,-4.6308,-4.6308,-4.6308,-4.6308,-4.6308,-4.6308,-4.6308,-4.6308,-4.6308,-4.6308,-4.6308,-4.6308,-4.6308,-4.6308,-4.6308,-4.6308,-4.6308,-4.6308,-4.6308,-4.6308,-4.6308,-4.6308,-4.6308,-4.6308,-4.6308,-4.6308,-2.5604,-2.6445,-2.7447,-2.8105,-2.8613,-2.8965,-2.918,-2.9805,-3.0391,-3.0488,-3.1211,-3.1953,-3.2383,-3.3398,-3.4902,-3.709,-3.8516,-3.9629,-4.041,-4.0898,-4.1328,-4.1758,-4.2168,-4.2598,-4.3027,-4.3457,-4.3711,-4.3711,-4.3711,-4.3711,-4.3711,-4.3711,-4.3711,-4.3711,-4.4043,-4.4433,-4.4883,-4.5312,-4.5781,-4.6308,-4.6308,-4.6308,-4.6308,-4.6308,-4.6308,-4.6308,-4.6308,-4.6308,-4.6308,-4.6308,-4.6308,-4.6308,-4.6308,-4.6308,-4.6308,-4.6308,-4.6308,-4.6308,-4.6308,-4.6308,-4.6308,-4.6308,-4.6308,-4.6308,-4.6308,-4.6308,-4.6308,-4.6308,-4.6308,-4.6308,-4.6308,-4.6308,-4.6308,-4.6308,-4.6308,-4.6308,-4.6308,-4.6308,-4.6308,-4.6308,-4.6308,-4.6308,-4.6308,-4.6308,-4.6308,-4.6308,-4.6308,-4.6308,-4.6308,-4.6308,-4.6308,-4.6308,-4.6308,-4.6308,-4.6308,-4.6308,-4.6308,-4.6308,-4.6308,-4.6308,-4.6308,-4.6308,-4.6308,-4.6308,-4.6308,-4.6308,-4.6308,-4.6308,-4.6308,-4.6308,-4.6308,-4.6308,-2.5604,-2.6761,-2.8028,-2.829,-2.8613,-2.9121,-2.9922,-3.0488,-3.0957,-3.1348,-3.2109,-3.2832,-3.3262,-3.5039,-3.6758,-3.7715,-3.8984,-4.0,-4.0469,-4.0898,-4.1328,-4.1758,-4.2168,-4.2598,-4.3027,-4.3457,-4.3711,-4.3711,-4.3711,-4.3711,-4.3711,-4.3711,-4.3711,-4.3711,-4.373,-4.3984,-4.4433,-4.4863,-4.5488,-4.6308,-4.6308,-4.6308,-4.6308,-4.6308,-4.6308,-4.6308,-4.6308,-4.6308,-4.6308,-4.6308,-4.6308,-4.6308,-4.6308,-4.6308,-4.6308,-4.6308,-4.6308,-4.6308,-4.6308,-4.6308,-4.6308,-4.6308,-4.6308,-4.6308,-4.6308,-4.6308,-4.6308,-4.6308,-4.6308,-4.6308,-4.6308,-4.6308,-4.6308,-4.6308,-4.6308,-4.6308,-4.6308,-4.6308,-4.6308,-4.6308,-4.6308,-4.6308,-4.6308,-4.6308,-4.6308,-4.6308,-4.6308,-4.6308,-4.6308,-4.6308,-4.6308,-4.6308,-4.6308,-4.6308,-4.6308,-4.6308,-4.6308,-4.6308,-4.6308,-4.6308,-4.6308,-4.6308,-4.6308,-4.6308,-4.6308,-4.6308,-4.6308,-4.6308,-4.6308,-4.6308,-4.6308,-4.6308,-2.6643,-2.7584,-2.8466,-2.959,-3.0215,-3.0547,-3.0605,-3.1387,-3.2109,-3.2285,-3.3203,-3.4355,-3.5605,-3.6934,-3.8144,-3.9004,-3.9785,-4.043,-4.0859,-4.1289,-4.1719,-4.2148,-4.2578,-4.2988,-4.3418,-4.3613,-4.3711,-4.3711,-4.3711,-4.3711,-4.3711,-4.3711,-4.3711,-4.3711,-4.3711,-4.3926,-4.4394,-4.4551,-4.5058,-4.5918,-4.6172,-4.6308,-4.6308,-4.6308,-4.6308,-4.6308,-4.6308,-4.6308,-4.6308,-4.6308,-4.6308,-4.6308,-4.6308,-4.6308,-4.6308,-4.6308,-4.6308,-4.6308,-4.6308,-4.6308,-4.6308,-4.6308,-4.6308,-4.6308,-4.6308,-4.6308,-4.6308,-4.6308,-4.6308,-4.6308,-4.6308,-4.6308,-4.6308,-4.6308,-4.6308,-4.6308,-4.6308,-4.6308,-4.6308,-4.6308,-4.6308,-4.6308,-4.6308,-4.6308,-4.6308,-4.6308,-4.6308,-4.6308,-4.6308,-4.6308,-4.6308,-4.6308,-4.6308,-4.6308,-4.6308,-4.6308,-4.6308,-4.6308,-4.6308,-4.6308,-4.6308,-4.6308,-4.6308,-4.6308,-4.6308,-4.6308,-4.6308,-4.6308,-4.6308,-4.6308,-4.6308,-4.6308,-2.729,-2.8172,-2.9085,-3.0488,-3.1406,-3.1914,-3.1894,-3.2676,-3.3398,-3.3398,-3.4531,-3.6016,-3.7598,-3.8496,-3.9238,-3.998,-4.0449,-4.084,-4.1133,-4.1543,-4.1953,-4.2383,-4.2812,-4.3242,-4.3672,-4.3711,-4.3711,-4.3711,-4.3711,-4.3711,-4.3711,-4.3711,-4.3711,-4.3711,-4.3711,-4.3848,-4.418,-4.4316,-4.4766,-4.5469,-4.5898,-4.6172,-4.6308,-4.6308,-4.6308,-4.6308,-4.6308,-4.6308,-4.6308,-4.6308,-4.6308,-4.6308,-4.6308,-4.6308,-4.6308,-4.6308,-4.6308,-4.6308,-4.6308,-4.6308,-4.6308,-4.6308,-4.6308,-4.6308,-4.6308,-4.6308,-4.6308,-4.6308,-4.6308,-4.6308,-4.6308,-4.6308,-4.6308,-4.6308,-4.6308,-4.6308,-4.6308,-4.6308,-4.6308,-4.6308,-4.6308,-4.6308,-4.6308,-4.6308,-4.6308,-4.6308,-4.6308,-4.6308,-4.6308,-4.6308,-4.6308,-4.6308,-4.6308,-4.6308,-4.6308,-4.6308,-4.6308,-4.6308,-4.6308,-4.6308,-4.6308,-4.6308,-4.6308,-4.6308,-4.6308,-4.6308,-4.6308,-4.6308,-4.6308,-4.6308,-4.6308,-4.6308,-2.7393,-2.8708,-2.9899,-3.0682,-3.1875,-3.3027,-3.3887,-3.4414,-3.4726,-3.4726,-3.6113,-3.7695,-3.8984,-3.959,-4.0039,-4.0469,-4.0898,-4.1172,-4.1172,-4.1543,-4.1953,-4.2383,-4.2812,-4.3242,-4.3672,-4.3711,-4.3711,-4.3711,-4.3711,-4.3711,-4.3711,-4.3711,-4.3711,-4.3711,-4.3711,-4.3711,-4.3711,-4.416,-4.4609,-4.5039,-4.5469,-4.5898,-4.6308,-4.6308,-4.6308,-4.6308,-4.6308,-4.6308,-4.6308,-4.6308,-4.6308,-4.6308,-4.6308,-4.6308,-4.6308,-4.6308,-4.6308,-4.6308,-4.6308,-4.6308,-4.6308,-4.6308,-4.6308,-4.6308,-4.6308,-4.6308,-4.6308,-4.6308,-4.6308,-4.6308,-4.6308,-4.6308,-4.6308,-4.6308,-4.6308,-4.6308,-4.6308,-4.6308,-4.6308,-4.6308,-4.6308,-4.6308,-4.6308,-4.6308,-4.6308,-4.6308,-4.6308,-4.6308,-4.6308,-4.6308,-4.6308,-4.6308,-4.6308,-4.6308,-4.6308,-4.6308,-4.6308,-4.6308,-4.6308,-4.6308,-4.6308,-4.6308,-4.6308,-4.6308,-4.6308,-4.6308,-4.6308,-4.6308,-4.6308,-4.6308,-4.6308,-4.6308,-2.7741,-2.9055,-3.0423,-3.1836,-3.2969,-3.4004,-3.5176,-3.5547,-3.5976,-3.7168,-3.7832,-3.8594,-3.9883,-4.0234,-4.0488,-4.0918,-4.1094,-4.1172,-4.1172,-4.1797,-4.2285,-4.2402,-4.3066,-4.3574,-4.3691,-4.3711,-4.3711,-4.3711,-4.3711,-4.3711,-4.3711,-4.3711,-4.3711,-4.3711,-4.3711,-4.3711,-4.3711,-4.3848,-4.4277,-4.5019,-4.5156,-4.5605,-4.6308,-4.6308,-4.6308,-4.6308,-4.6308,-4.6308,-4.6308,-4.6308,-4.6308,-4.6308,-4.6308,-4.6308,-4.6308,-4.6308,-4.6308,-4.6308,-4.6308,-4.6308,-4.6308,-4.6308,-4.6308,-4.6308,-4.6308,-4.6308,-4.6308,-4.6308,-4.6308,-4.6308,-4.6308,-4.6308,-4.6308,-4.6308,-4.6308,-4.6308,-4.6308,-4.6308,-4.6308,-4.6308,-4.6308,-4.6308,-4.6308,-4.6308,-4.6308,-4.6308,-4.6308,-4.6308,-4.6308,-4.6308,-4.6308,-4.6308,-4.6308,-4.6308,-4.6308,-4.6308,-4.6308,-4.6308,-4.6308,-4.6308,-4.6308,-4.6308,-4.6308,-4.6308,-4.6308,-4.6308,-4.6308,-4.6308,-4.6308,-4.6308,-4.6308,-4.6308,-2.8042,-2.9349,-3.0741,-3.2363,-3.3574,-3.4805,-3.6621,-3.7031,-3.7422,-3.8809,-3.9238,-3.9648,-4.0605,-4.0781,-4.0859,-4.1133,-4.1172,-4.1172,-4.1172,-4.1894,-4.2422,-4.2422,-4.3183,-4.3711,-4.3711,-4.3711,-4.3711,-4.3711,-4.3711,-4.3711,-4.3711,-4.3711,-4.3711,-4.3711,-4.3711,-4.3711,-4.3711,-4.3711,-4.4141,-4.5019,-4.5019,-4.5469,-4.6308,-4.6308,-4.6308,-4.6308,-4.6308,-4.6308,-4.6308,-4.6308,-4.6308,-4.6308,-4.6308,-4.6308,-4.6308,-4.6308,-4.6308,-4.6308,-4.6308,-4.6308,-4.6308,-4.6308,-4.6308,-4.6308,-4.6308,-4.6308,-4.6308,-4.6308,-4.6308,-4.6308,-4.6308,-4.6308,-4.6308,-4.6308,-4.6308,-4.6308,-4.6308,-4.6308,-4.6308,-4.6308,-4.6308,-4.6308,-4.6308,-4.6308,-4.6308,-4.6308,-4.6308,-4.6308,-4.6308,-4.6308,-4.6308,-4.6308,-4.6308,-4.6308,-4.6308,-4.6308,-4.6308,-4.6308,-4.6308,-4.6308,-4.6308,-4.6308,-4.6308,-4.6308,-4.6308,-4.6308,-4.6308,-4.6308,-4.6308,-4.6308,-4.6308,-4.6308,-2.8252,-2.9609,-3.1031,-3.2422,-3.3926,-3.5625,-3.8027,-3.8672,-3.8984,-3.9785,-4.0254,-4.0664,-4.1094,-4.1172,-4.1172,-4.1172,-4.1172,-4.1191,-4.123,-4.1914,-4.2441,-4.248,-4.3203,-4.3711,-4.3711,-4.3711,-4.3711,-4.3711,-4.3711,-4.3711,-4.3711,-4.3711,-4.3711,-4.3711,-4.3711,-4.3711,-4.3711,-4.3711,-4.4141,-4.5019,-4.5019,-4.5469,-4.6308,-4.6308,-4.6308,-4.6308,-4.6308,-4.6308,-4.6308,-4.6308,-4.6308,-4.6308,-4.6308,-4.6289,-4.625,-4.6289,-4.6289,-4.625,-4.6289,-4.6308,-4.6308,-4.6308,-4.6308,-4.6308,-4.6308,-4.6308,-4.6308,-4.6308,-4.6308,-4.6308,-4.6308,-4.6308,-4.6308,-4.6308,-4.6308,-4.6308,-4.6308,-4.6308,-4.6308,-4.6308,-4.6308,-4.6308,-4.6308,-4.6308,-4.6308,-4.6308,-4.6308,-4.6308,-4.6308,-4.6308,-4.6308,-4.6308,-4.6308,-4.6308,-4.6308,-4.6308,-4.6308,-4.6308,-4.6308,-4.6308,-4.6308,-4.6308,-4.6308,-4.6308,-4.6308,-4.6308,-4.6308,-4.6308,-4.6308,-4.6308,-4.6308,-4.6308,-2.8042,-2.9603,-3.127,-3.2871,-3.5273,-3.7461,-3.8379,-3.9375,-4.0156,-4.0351,-4.0469,-4.0664,-4.1094,-4.1172,-4.1172,-4.1172,-4.1172,-4.1289,-4.1621,-4.2109,-4.2558,-4.2891,-4.3379,-4.3711,-4.3711,-4.3711,-4.3711,-4.3711,-4.3711,-4.3711,-4.3711,-4.3711,-4.3711,-4.3711,-4.3711,-4.3711,-4.3711,-4.3711,-4.4141,-4.5019,-4.5019,-4.5469,-4.6308,-4.6308,-4.6308,-4.6308,-4.6308,-4.6308,-4.6308,-4.6308,-4.6308,-4.6308,-4.6308,-4.6113,-4.5859,-4.6191,-4.6094,-4.5859,-4.6191,-4.6308,-4.6308,-4.6308,-4.6308,-4.6308,-4.6308,-4.6308,-4.6308,-4.6308,-4.6308,-4.6308,-4.6308,-4.6308,-4.6308,-4.6308,-4.6308,-4.6308,-4.6308,-4.6308,-4.6308,-4.6308,-4.6308,-4.6308,-4.6308,-4.6308,-4.6308,-4.6308,-4.6308,-4.6308,-4.6308,-4.6308,-4.6308,-4.6308,-4.6308,-4.6308,-4.6308,-4.6308,-4.6308,-4.6308,-4.6308,-4.6308,-4.6308,-4.6308,-4.6308,-4.6308,-4.6308,-4.6308,-4.6308,-4.6308,-4.6308,-4.6308,-4.6308,-4.6308,-2.8127,-2.9616,-3.1172,-3.373,-3.6016,-3.791,-3.8965,-3.9726,-4.0332,-4.0742,-4.084,-4.0898,-4.1133,-4.1172,-4.1172,-4.1172,-4.1172,-4.1328,-4.1738,-4.2168,-4.2578,-4.3027,-4.3457,-4.3711,-4.3711,-4.3711,-4.3711,-4.3711,-4.3711,-4.3711,-4.3711,-4.3711,-4.3711,-4.3711,-4.3711,-4.3711,-4.3711,-4.3711,-4.4141,-4.5019,-4.5019,-4.5469,-4.6308,-4.6308,-4.6308,-4.6308,-4.6308,-4.6308,-4.6308,-4.6308,-4.6308,-4.6289,-4.6074,-4.5859,-4.5703,-4.5918,-4.5859,-4.5742,-4.6152,-4.6308,-4.6308,-4.6308,-4.6308,-4.6308,-4.6308,-4.6308,-4.6308,-4.6308,-4.6308,-4.6308,-4.6308,-4.6308,-4.6308,-4.6308,-4.6308,-4.6308,-4.6308,-4.6308,-4.6308,-4.6308,-4.6308,-4.6308,-4.6308,-4.6308,-4.6308,-4.6308,-4.6308,-4.6308,-4.6308,-4.6308,-4.6308,-4.6308,-4.6308,-4.6308,-4.6308,-4.6308,-4.6308,-4.6308,-4.6308,-4.6308,-4.6308,-4.6308,-4.6308,-4.6308,-4.6308,-4.6308,-4.6308,-4.6308,-4.6308,-4.6308,-4.6308,-4.6308,-2.8241,-2.9609,-3.1309,-3.4622,-3.6289,-3.7734,-3.9394,-3.9902,-4.0234,-4.1016,-4.1172,-4.1172,-4.1172,-4.1172,-4.1172,-4.1172,-4.1172,-4.1348,-4.1836,-4.2207,-4.2617,-4.3125,-4.3496,-4.3711,-4.3711,-4.3711,-4.3711,-4.3711,-4.3711,-4.3711,-4.3711,-4.3711,-4.3711,-4.3711,-4.3711,-4.3711,-4.3711,-4.3711,-4.4141,-4.5019,-4.5176,-4.5625,-4.6308,-4.6308,-4.6308,-4.6308,-4.6308,-4.6308,-4.6308,-4.6308,-4.6308,-4.6269,-4.584,-4.5625,-4.5566,-4.5644,-4.5625,-4.5625,-4.6133,-4.6308,-4.6308,-4.6308,-4.6308,-4.6308,-4.6308,-4.6308,-4.6308,-4.6308,-4.6308,-4.6308,-4.6308,-4.6308,-4.6308,-4.6308,-4.6308,-4.6308,-4.6308,-4.6308,-4.6308,-4.6308,-4.6308,-4.6308,-4.6308,-4.6308,-4.6308,-4.6308,-4.6308,-4.6308,-4.6308,-4.6308,-4.6308,-4.6308,-4.6308,-4.6308,-4.6308,-4.6308,-4.6308,-4.6308,-4.6308,-4.6308,-4.6308,-4.6308,-4.6308,-4.6308,-4.6308,-4.6308,-4.6308,-4.6308,-4.6308,-4.6308,-4.6308,-4.6308,-2.7221,-2.9715,-3.2505,-3.4724,-3.621,-3.7656,-3.8984,-3.9883,-4.0586,-4.1074,-4.1172,-4.1172,-4.1172,-4.1172,-4.1172,-4.1172,-4.1172,-4.1445,-4.2226,-4.2402,-4.2715,-4.3516,-4.3672,-4.3711,-4.3711,-4.3711,-4.3711,-4.3711,-4.3711,-4.3711,-4.3711,-4.3711,-4.3711,-4.3711,-4.3711,-4.3711,-4.3711,-4.3711,-4.4141,-4.5039,-4.5781,-4.6191,-4.6308,-4.6308,-4.6308,-4.6308,-4.6308,-4.6308,-4.6308,-4.6308,-4.6308,-4.6269,-4.584,-4.5449,-4.5156,-4.5527,-4.543,-4.5234,-4.6016,-4.6308,-4.6308,-4.6308,-4.6308,-4.6308,-4.6308,-4.6308,-4.6308,-4.6308,-4.6308,-4.6308,-4.6308,-4.6308,-4.6308,-4.6308,-4.6308,-4.6308,-4.6308,-4.6308,-4.6308,-4.6308,-4.6308,-4.6308,-4.6308,-4.6308,-4.6308,-4.6308,-4.6308,-4.6308,-4.6308,-4.6308,-4.6308,-4.6308,-4.6308,-4.6308,-4.6308,-4.6308,-4.6308,-4.6308,-4.6308,-4.6308,-4.6308,-4.6308,-4.6308,-4.6308,-4.6308,-4.6308,-4.6308,-4.6308,-4.6308,-4.6308,-4.6308,-4.6308,-2.7597,-2.9774,-3.1976,-3.3954,-3.5382,-3.6621,-3.8144,-3.916,-3.998,-4.0664,-4.0996,-4.1172,-4.1172,-4.1172,-4.1172,-4.1172,-4.1172,-4.1465,-4.2305,-4.2422,-4.2754,-4.3594,-4.3711,-4.3711,-4.3711,-4.3711,-4.3711,-4.3711,-4.3711,-4.3711,-4.3711,-4.3711,-4.3711,-4.3711,-4.3711,-4.3711,-4.3711,-4.3711,-4.4141,-4.5039,-4.5898,-4.6308,-4.6308,-4.6308,-4.6308,-4.6308,-4.6308,-4.6308,-4.6289,-4.6055,-4.5957,-4.5879,-4.5215,-4.4844,-4.4726,-4.5156,-4.5195,-4.5137,-4.6016,-4.6308,-4.6308,-4.6308,-4.6308,-4.6308,-4.6308,-4.6308,-4.6308,-4.6308,-4.6308,-4.6308,-4.6308,-4.6308,-4.6308,-4.6308,-4.6308,-4.6308,-4.6308,-4.6308,-4.6308,-4.6308,-4.6308,-4.6308,-4.6308,-4.6308,-4.6308,-4.6308,-4.6308,-4.6308,-4.6308,-4.6308,-4.6308,-4.6308,-4.6308,-4.6308,-4.6308,-4.6308,-4.6308,-4.6308,-4.6308,-4.6308,-4.6308,-4.6308,-4.6308,-4.6308,-4.6308,-4.6308,-4.6308,-4.6308,-4.6308,-4.6308,-4.6308,-4.6308,-2.7859,-2.9459,-3.1054,-3.2907,-3.426,-3.5469,-3.707,-3.8184,-3.916,-4.0156,-4.0703,-4.1035,-4.1152,-4.1172,-4.1172,-4.1172,-4.1269,-4.1582,-4.2324,-4.2519,-4.2871,-4.3613,-4.3711,-4.3711,-4.3711,-4.3711,-4.3711,-4.3711,-4.3711,-4.3711,-4.3711,-4.3711,-4.3711,-4.3711,-4.3711,-4.3711,-4.3711,-4.3828,-4.4277,-4.5039,-4.5781,-4.6191,-4.6308,-4.6308,-4.625,-4.6152,-4.625,-4.623,-4.6113,-4.5801,-4.5605,-4.543,-4.4687,-4.4453,-4.459,-4.4902,-4.5098,-4.5293,-4.6035,-4.6308,-4.6308,-4.6308,-4.6308,-4.6308,-4.6308,-4.6308,-4.6308,-4.6308,-4.6308,-4.6308,-4.6308,-4.6308,-4.6308,-4.6308,-4.6308,-4.6308,-4.6308,-4.6308,-4.6308,-4.6308,-4.6308,-4.6308,-4.6308,-4.6308,-4.6308,-4.6308,-4.6308,-4.6308,-4.6308,-4.6308,-4.6308,-4.6308,-4.6308,-4.6308,-4.6308,-4.6308,-4.6308,-4.6308,-4.6308,-4.6308,-4.6308,-4.6308,-4.6308,-4.6308,-4.6308,-4.6308,-4.6308,-4.6308,-4.6308,-4.6308,-4.6308,-4.6308,-2.7202,-2.8554,-3.0074,-3.1643,-3.3139,-3.4492,-3.582,-3.709,-3.8359,-3.9668,-4.0254,-4.0684,-4.1094,-4.1172,-4.1172,-4.1172,-4.1504,-4.1914,-4.2363,-4.2773,-4.3203,-4.3652,-4.3711,-4.3711,-4.3711,-4.3711,-4.3711,-4.3711,-4.3711,-4.3711,-4.3711,-4.3711,-4.3711,-4.3711,-4.3711,-4.3711,-4.3711,-4.4141,-4.459,-4.5039,-4.5488,-4.5918,-4.6308,-4.6308,-4.6094,-4.5723,-4.6133,-4.6074,-4.5703,-4.5683,-4.543,-4.5019,-4.457,-4.4648,-4.5,-4.5019,-4.5293,-4.5703,-4.6152,-4.6308,-4.6308,-4.6308,-4.6308,-4.6308,-4.6308,-4.6308,-4.6308,-4.6308,-4.6308,-4.6308,-4.6308,-4.6308,-4.6308,-4.6308,-4.6308,-4.6308,-4.6308,-4.6308,-4.6308,-4.6308,-4.6308,-4.6308,-4.6308,-4.6308,-4.6308,-4.6308,-4.6308,-4.6308,-4.6308,-4.6308,-4.6308,-4.6308,-4.6308,-4.6308,-4.6308,-4.6308,-4.6308,-4.6308,-4.6308,-4.6308,-4.6308,-4.6308,-4.6308,-4.6308,-4.6308,-4.6308,-4.6308,-4.6308,-4.6308,-4.6308,-4.6308,-4.6308,-2.6229,-2.7255,-2.8486,-3.0576,-3.2017,-3.3262,-3.4824,-3.6387,-3.7891,-3.918,-4.0019,-4.0664,-4.1094,-4.1172,-4.1172,-4.1172,-4.1523,-4.1953,-4.2363,-4.2793,-4.3223,-4.3652,-4.3711,-4.3711,-4.3711,-4.3711,-4.3711,-4.3711,-4.3711,-4.3711,-4.3711,-4.3711,-4.3711,-4.3711,-4.3711,-4.3711,-4.3711,-4.416,-4.4473,-4.4629,-4.5058,-4.5332,-4.5488,-4.5488,-4.5391,-4.5273,-4.541,-4.5391,-4.5234,-4.4961,-4.4766,-4.457,-4.4121,-4.4219,-4.4648,-4.4922,-4.5312,-4.5742,-4.6152,-4.6308,-4.6308,-4.6308,-4.6308,-4.6308,-4.6308,-4.6308,-4.6308,-4.6308,-4.6308,-4.6308,-4.6308,-4.6308,-4.6308,-4.6308,-4.6308,-4.6308,-4.6308,-4.6308,-4.6308,-4.6308,-4.6308,-4.6308,-4.6308,-4.6308,-4.6308,-4.6308,-4.6308,-4.6308,-4.6308,-4.6308,-4.6308,-4.6308,-4.6308,-4.6308,-4.6308,-4.6308,-4.6308,-4.6308,-4.6308,-4.6308,-4.6308,-4.6308,-4.6308,-4.6308,-4.6308,-4.6308,-4.6308,-4.6308,-4.6308,-4.6308,-4.6308,-4.6308,-2.548,-2.6448,-2.7461,-2.9557,-3.0897,-3.2148,-3.3711,-3.5293,-3.6836,-3.8262,-3.9258,-4.0098,-4.082,-4.0957,-4.0996,-4.1152,-4.1523,-4.1953,-4.2363,-4.2793,-4.3223,-4.3652,-4.3711,-4.3711,-4.3711,-4.3711,-4.3711,-4.3711,-4.3711,-4.3711,-4.3711,-4.3711,-4.3711,-4.3711,-4.3711,-4.3711,-4.3711,-4.4004,-4.4238,-4.4394,-4.4687,-4.4883,-4.5019,-4.5019,-4.4941,-4.4824,-4.4824,-4.4824,-4.4785,-4.4512,-4.4316,-4.4141,-4.3828,-4.4082,-4.4648,-4.4922,-4.5391,-4.5918,-4.6211,-4.6308,-4.6308,-4.6308,-4.6308,-4.6308,-4.6308,-4.6308,-4.6308,-4.6308,-4.6308,-4.6308,-4.6308,-4.6308,-4.6308,-4.6308,-4.6308,-4.6308,-4.6308,-4.6308,-4.6308,-4.6308,-4.6308,-4.6308,-4.6308,-4.6308,-4.6308,-4.6308,-4.6308,-4.6308,-4.6308,-4.6308,-4.6308,-4.6308,-4.6308,-4.6308,-4.6308,-4.6308,-4.6308,-4.6308,-4.6308,-4.6308,-4.6308,-4.6308,-4.6308,-4.6308,-4.6308,-4.6308,-4.6308,-4.6308,-4.6308,-4.6308,-4.6308,-4.6308,0.0,0.0,0.0,-2.8555,-2.9863,-3.1191,-3.2461,-3.375,-3.5176,-3.6894,-3.793,-3.8926,-4.0234,-4.0469,-4.0625,-4.1074,-4.1523,-4.1953,-4.2344,-4.2773,-4.3223,-4.3633,-4.3691,-4.3691,-4.3711,-4.3711,-4.3711,-4.3711,-4.3711,-4.3711,-4.3711,-4.3711,-4.3711,-4.3711,-4.3711,-4.3711,-4.3711,-4.3711,-4.3926,-4.4375,-4.4375,-4.459,-4.498,-4.498,-4.4766,-4.4375,-4.4375,-4.4375,-4.4375,-4.4375,-4.4101,-4.3711,-4.373,-4.4258,-4.5019,-4.5039,-4.5586,-4.6308,-4.6308,-4.6308,-4.6308,-4.6308,-4.6308,-4.6308,-4.6308,-4.6308,-4.6308,-4.6308,-4.6308,-4.6308,-4.6308,-4.6308,-4.6308,-4.6308,-4.6308,-4.6308,-4.6308,-4.6308,-4.6308,-4.6308,-4.6308,-4.6308,-4.6308,-4.6308,-4.6308,-4.6308,-4.6308,-4.6308,-4.6308,-4.6308,-4.6308,-4.6308,-4.6308,-4.6308,-4.6308,-4.6308,-4.6308,-4.6308,-4.6308,-4.6308,-4.6308,-4.6308,-4.6308,-4.6308,-4.6308,-4.6308,-4.6308,-4.6308,-4.6308,-4.6308,-4.6308,-4.6308,-2.3984,0.0,0.0,0.0,0.0,0.0,-3.1582,-3.3105,-3.457,-3.5684,-3.6836,-3.7949,-3.8926,-3.9355,-3.9824,-4.0586,-4.1328,-4.1836,-4.1953,-4.2344,-4.2773,-4.3203,-4.3242,-4.3359,-4.3672,-4.3711,-4.3711,-4.3711,-4.3711,-4.3711,-4.3711,-4.3711,-4.3711,-4.3711,-4.3711,-4.3711,-4.3711,-4.3711,-4.3769,-4.3887,-4.3887,-4.3965,-4.4062,-4.4062,-4.4004,-4.3887,-4.3887,-4.3887,-4.3887,-4.3887,-4.3828,-4.373,-4.4082,-4.4531,-4.5058,-4.5371,-4.584,-4.6308,-4.6308,-4.6308,-4.6308,-4.6308,-4.6308,-4.6308,-4.6308,-4.6308,-4.6308,-4.6308,-4.6308,-4.6308,-4.6308,-4.6308,-4.6308,-4.6308,-4.6308,-4.6308,-4.6308,-4.6308,-4.6308,-4.6308,-4.6308,-4.6308,-4.6308,-4.6308,-4.6308,-4.6308,-4.6308,-4.6308,-4.6308,-4.6308,-4.6308,-4.6308,-4.6308,-4.6308,-4.6308,-4.6308,-4.6308,-4.6308,-4.6308,-4.6308,-4.6308,-4.6308,-4.6308,-4.6308,-4.6308,-4.6308,-4.6308,-4.6308,-4.6308,-4.6308,-4.6308,-4.6308,-2.3711,-2.4414,-2.5332,-2.6465,0.0,0.0,-3.0664,-3.2031,-3.3301,-3.4355,-3.5449,-3.6543,-3.7578,-3.8125,-3.8691,-3.957,-4.0273,-4.0976,-4.1699,-4.2012,-4.2324,-4.2754,-4.2812,-4.2969,-4.3398,-4.3437,-4.3516,-4.3691,-4.3711,-4.3711,-4.3711,-4.3711,-4.3711,-4.3711,-4.3711,-4.3711,-4.3711,-4.3711,-4.3711,-4.3711,-4.3711,-4.3711,-4.3711,-4.3711,-4.3711,-4.3711,-4.3711,-4.3711,-4.3711,-4.3711,-4.3711,-4.375,-4.4219,-4.4648,-4.5078,-4.5508,-4.5937,-4.6308,-4.6308,-4.6308,-4.6308,-4.6308,-4.6308,-4.6308,-4.6308,-4.6308,-4.6308,-4.6308,-4.6308,-4.6308,-4.6308,-4.6308,-4.6308,-4.6308,-4.6308,-4.6308,-4.6308,-4.6308,-4.6308,-4.6308,-4.6308,-4.6308,-4.6308,-4.6308,-4.6308,-4.6308,-4.6308,-4.6308,-4.6308,-4.6308,-4.6308,-4.6308,-4.6308,-4.6308,-4.6308,-4.6308,-4.6308,-4.6308,-4.6308,-4.6308,-4.6308,-4.6308,-4.6308,-4.6308,-4.6308,-4.6308,-4.6308,-4.6308,-4.6308,-4.6308,-4.6308,-4.6308,-2.3777,-2.4361,-2.5273,-2.6113,-2.7285,0.0,-2.9726,-3.0703,-3.1699,-3.2891,-3.3828,-3.4805,-3.6074,-3.6699,-3.7285,-3.8144,-3.8652,-3.9531,-4.1269,-4.1601,-4.1816,-4.2246,-4.2324,-4.2519,-4.2969,-4.3008,-4.3164,-4.3535,-4.3613,-4.3652,-4.3711,-4.3711,-4.3711,-4.3711,-4.3711,-4.3711,-4.3711,-4.3711,-4.3711,-4.3711,-4.3711,-4.3711,-4.3711,-4.3711,-4.3711,-4.3711,-4.3711,-4.3711,-4.3711,-4.3711,-4.3711,-4.375,-4.4277,-4.4687,-4.5078,-4.5566,-4.5976,-4.6308,-4.6308,-4.6308,-4.6308,-4.6308,-4.6308,-4.6308,-4.6308,-4.6308,-4.6308,-4.6308,-4.6308,-4.6308,-4.6308,-4.6308,-4.6308,-4.6308,-4.6308,-4.6308,-4.6308,-4.6308,-4.6308,-4.6308,-4.6308,-4.6308,-4.6308,-4.6308,-4.6308,-4.6308,-4.6308,-4.6308,-4.6308,-4.6308,-4.6308,-4.6308,-4.6308,-4.6308,-4.6308,-4.6308,-4.6308,-4.6308,-4.6308,-4.6308,-4.6308,-4.6308,-4.6308,-4.6308,-4.6308,-4.6308,-4.6308,-4.6308,-4.6308,-4.6308,-4.6308,-4.6308,-2.3336,-2.3994,-2.5195,-2.5723,-2.6836,0.0,-2.8535,-2.959,-3.0625,-3.125,-3.207,-3.2949,-3.3887,-3.4687,-3.5488,-3.6367,-3.6875,-3.7754,-3.9473,-4.0332,-4.0937,-4.1367,-4.1719,-4.209,-4.2519,-4.2558,-4.2578,-4.2676,-4.3008,-4.334,-4.3691,-4.3711,-4.3711,-4.3711,-4.3711,-4.3711,-4.3711,-4.3711,-4.3711,-4.3711,-4.3711,-4.3711,-4.3711,-4.3711,-4.3711,-4.3711,-4.3711,-4.3711,-4.3711,-4.3711,-4.3711,-4.3789,-4.459,-4.4961,-4.5117,-4.5898,-4.623,-4.6308,-4.6308,-4.6308,-4.6308,-4.6308,-4.6308,-4.6308,-4.6308,-4.6308,-4.6308,-4.6308,-4.6308,-4.6308,-4.6308,-4.6308,-4.6308,-4.6308,-4.6308,-4.6308,-4.6308,-4.6308,-4.6308,-4.6308,-4.6308,-4.6308,-4.6308,-4.6308,-4.6308,-4.6308,-4.6308,-4.6308,-4.6308,-4.6308,-4.6308,-4.6308,-4.6308,-4.6308,-4.6308,-4.6308,-4.6308,-4.6308,-4.6308,-4.6308,-4.6308,-4.6308,-4.6308,-4.6308,-4.6308,-4.6308,-4.6308,-4.6308,-4.6308,-4.6308,-4.6308,-4.6308,-2.3226,-2.3781,-2.4678,-2.5198,-2.6211,0.0,0.0,-2.8476,-2.9375,-2.9824,-3.0781,-3.1719,-3.2363,-3.3164,-3.3965,-3.4609,-3.5098,-3.5742,-3.6816,-3.8457,-3.9707,-4.0137,-4.0586,-4.1094,-4.1738,-4.1797,-4.1973,-4.2402,-4.2637,-4.293,-4.3359,-4.3398,-4.3496,-4.3691,-4.3711,-4.3711,-4.3711,-4.3711,-4.3711,-4.3711,-4.3711,-4.3711,-4.3711,-4.3711,-4.3711,-4.3711,-4.3711,-4.3711,-4.3711,-4.3711,-4.3711,-4.3789,-4.4687,-4.5019,-4.5137,-4.5996,-4.6308,-4.6308,-4.6308,-4.6308,-4.6308,-4.6308,-4.6308,-4.6308,-4.6308,-4.6308,-4.6308,-4.6308,-4.6308,-4.6308,-4.6308,-4.6308,-4.6308,-4.6308,-4.6308,-4.6308,-4.6308,-4.6308,-4.6308,-4.6308,-4.6308,-4.6308,-4.6308,-4.6308,-4.6308,-4.6308,-4.6308,-4.6308,-4.6308,-4.6308,-4.6308,-4.6308,-4.6308,-4.6308,-4.6308,-4.6308,-4.6308,-4.6308,-4.6308,-4.6308,-4.6308,-4.6308,-4.6308,-4.6308,-4.6308,-4.6308,-4.6308,-4.6308,-4.6308,-4.6308,-4.6308,-4.6308,-2.3349,-2.3763,-2.4472,-2.5042,-2.5797,-2.6415,0.0,0.0,0.0,-2.8809,-2.9707,-3.0547,-3.1055,-3.1777,-3.2363,-3.2519,-3.3125,-3.3672,-3.3926,-3.6055,-3.7891,-3.873,-3.9238,-3.9844,-4.0703,-4.0957,-4.1367,-4.2129,-4.2266,-4.2539,-4.3047,-4.3086,-4.3262,-4.3691,-4.3711,-4.3711,-4.3711,-4.3711,-4.3711,-4.3711,-4.3711,-4.3711,-4.3711,-4.3711,-4.3711,-4.3711,-4.3711,-4.3711,-4.3711,-4.3711,-4.3711,-4.3789,-4.4687,-4.5019,-4.5137,-4.5996,-4.6308,-4.6308,-4.6308,-4.6308,-4.6308,-4.6308,-4.6308,-4.6308,-4.6308,-4.6308,-4.6308,-4.6308,-4.6308,-4.6308,-4.6308,-4.6308,-4.6308,-4.6308,-4.6308,-4.6308,-4.6308,-4.6308,-4.6308,-4.6308,-4.6308,-4.6308,-4.6308,-4.6308,-4.6308,-4.6308,-4.6308,-4.6308,-4.6308,-4.6308,-4.6308,-4.6308,-4.6308,-4.6308,-4.6308,-4.6308,-4.6308,-4.6308,-4.6308,-4.6308,-4.6308,-4.6308,-4.6308,-4.6308,-4.6308,-4.6308,-4.6308,-4.6308,-4.6308,-4.6308,-4.6308,-4.6308,-2.3562,-2.423,-2.5711,-2.5637,-2.5816,-2.6244,-2.7369,0.0,-2.7969,-2.875,0.0,-2.8828,-2.9648,0.0,0.0,-2.9551,-3.0762,-3.1699,-3.1367,-3.2871,-3.4883,-3.7226,-3.7891,-3.8496,-3.9336,-4.0137,-4.0801,-4.1289,-4.166,-4.2226,-4.3047,-4.3086,-4.3262,-4.3691,-4.3711,-4.3711,-4.3711,-4.3711,-4.3711,-4.3711,-4.3711,-4.3711,-4.3711,-4.3711,-4.3711,-4.3711,-4.3711,-4.3711,-4.3711,-4.3711,-4.3711,-4.3789,-4.4687,-4.5019,-4.5137,-4.5996,-4.6308,-4.6308,-4.6308,-4.6308,-4.6308,-4.6308,-4.6308,-4.6308,-4.6308,-4.6308,-4.6308,-4.6308,-4.6308,-4.6308,-4.6308,-4.6308,-4.6308,-4.6308,-4.6308,-4.6308,-4.6308,-4.6308,-4.6308,-4.6308,-4.6308,-4.6308,-4.6308,-4.6308,-4.6308,-4.6308,-4.6308,-4.6308,-4.6308,-4.6308,-4.6308,-4.6308,-4.6308,-4.6308,-4.6308,-4.6308,-4.6308,-4.6308,-4.6308,-4.6308,-4.6308,-4.6308,-4.6308,-4.6308,-4.6308,-4.6308,-4.6308,-4.6308,-4.6308,-4.6308,-4.6308,-4.6308,-2.3731,-2.4057,-2.4682,-2.4659,-2.5255,-2.5858,-2.6143,-2.6749,-2.7383,-2.7734,0.0,0.0,0.0,0.0,0.0,0.0,-2.9902,-3.041,-3.0488,-3.1094,-3.2598,-3.5449,-3.6191,0.0,-3.7988,-3.9101,-3.9941,-4.041,-4.082,-4.1426,-4.2285,-4.2578,-4.2891,-4.332,-4.3574,-4.3711,-4.3711,-4.3711,-4.3711,-4.3711,-4.3711,-4.3711,-4.3711,-4.3711,-4.3711,-4.3711,-4.3711,-4.3711,-4.3711,-4.3711,-4.3867,-4.416,-4.4785,-4.5019,-4.5137,-4.5996,-4.6308,-4.6308,-4.6308,-4.6308,-4.6308,-4.6308,-4.6308,-4.6308,-4.6308,-4.6308,-4.6308,-4.6308,-4.6308,-4.6308,-4.6308,-4.6308,-4.6308,-4.6308,-4.6308,-4.6308,-4.6308,-4.6308,-4.6308,-4.6308,-4.6308,-4.6308,-4.6308,-4.6308,-4.6308,-4.6308,-4.6308,-4.6308,-4.6308,-4.6308,-4.6308,-4.6308,-4.6308,-4.6308,-4.6308,-4.6308,-4.6308,-4.6308,-4.6308,-4.6308,-4.6308,-4.6308,-4.6308,-4.6308,-4.6308,-4.6308,-4.6308,-4.6308,-4.6308,-4.6308,-4.6308,-4.6308,-2.4209,-2.4127,-2.4245,-2.417,-2.4684,-2.5339,-2.5809,-2.6349,-2.6968,-2.7415,-2.7598,0.0,0.0,0.0,-2.873,-2.8691,0.0,-2.9199,-2.916,-2.9551,-3.0879,-3.3672,-3.4707,0.0,0.0,-3.7969,-3.9043,-3.9492,-4.0156,-4.0898,-4.1758,-4.2207,-4.2637,-4.3066,-4.3496,-4.3711,-4.3711,-4.3711,-4.3711,-4.3711,-4.3711,-4.3711,-4.3711,-4.3711,-4.3711,-4.3711,-4.3711,-4.3711,-4.3711,-4.3711,-4.3984,-4.4433,-4.4863,-4.5098,-4.5293,-4.6035,-4.6308,-4.6308,-4.6308,-4.6308,-4.6308,-4.6308,-4.6308,-4.6308,-4.6308,-4.6308,-4.6308,-4.6308,-4.6308,-4.6308,-4.6308,-4.6308,-4.6308,-4.6308,-4.6308,-4.6308,-4.6308,-4.6308,-4.6308,-4.6308,-4.6308,-4.6308,-4.6308,-4.6308,-4.6308,-4.6308,-4.6308,-4.6308,-4.6308,-4.6308,-4.6308,-4.6308,-4.6308,-4.6308,-4.6308,-4.6308,-4.6308,-4.6308,-4.6308,-4.6308,-4.6308,-4.6308,-4.6308,-4.6308,-4.6308,-4.6308,-4.6308,-4.6308,-4.6308,-4.6308,-4.6308,-4.6308,-2.4981,-2.5046,-2.5328,-2.4964,-2.4348,-2.4545,-2.6954,-2.6939,-2.6828,-2.8552,-2.8223,-2.7793,-2.8223,-2.8301,-2.791,-2.668,-2.7519,0.0,0.0,-2.793,-2.9785,-3.1992,0.0,0.0,0.0,-3.6719,-3.8144,0.0,-3.9805,-4.0898,-4.1758,-4.2207,-4.2637,-4.3066,-4.3496,-4.3711,-4.3711,-4.3711,-4.3711,-4.3711,-4.3711,-4.3711,-4.3711,-4.3711,-4.3711,-4.3711,-4.3711,-4.3711,-4.3711,-4.3711,-4.3984,-4.4433,-4.4863,-4.5293,-4.5703,-4.6152,-4.6308,-4.6308,-4.6308,-4.6308,-4.6308,-4.6308,-4.6308,-4.6308,-4.6308,-4.6308,-4.6308,-4.6308,-4.6308,-4.6308,-4.6308,-4.6308,-4.6308,-4.6308,-4.6308,-4.6308,-4.6308,-4.6308,-4.6308,-4.6308,-4.6308,-4.6308,-4.6308,-4.6308,-4.6308,-4.6308,-4.6308,-4.6308,-4.6308,-4.6308,-4.6308,-4.6308,-4.6308,-4.6308,-4.6308,-4.6308,-4.6308,-4.6308,-4.6308,-4.6308,-4.6308,-4.6308,-4.6308,-4.6308,-4.6308,-4.6308,-4.6308,-4.6308,-4.6308,-4.6308,-4.6308,-4.6308,-2.5864,-2.5633,-2.5621,-2.463,-2.4841,-2.523,-2.5473,-2.6336,-2.6951,-2.6471,-2.6592,-2.6587,-2.5936,-2.5845,-2.5865,-2.6076,-2.6405,-2.6664,0.0,-2.7129,0.0,0.0,0.0,0.0,0.0,0.0,0.0,0.0,-3.8926,0.0,-4.0898,-4.1621,-4.2207,-4.2637,-4.3066,-4.3418,-4.3711,-4.3711,-4.3711,-4.3711,-4.3711,-4.3711,-4.3711,-4.3711,-4.3711,-4.3711,-4.3711,-4.3711,-4.3711,-4.3711,-4.4141,-4.4824,-4.4961,-4.5469,-4.6113,-4.625,-4.6308,-4.6308,-4.6308,-4.6308,-4.6308,-4.6308,-4.6308,-4.6308,-4.6308,-4.6308,-4.6308,-4.6308,-4.6308,-4.6308,-4.6308,-4.6308,-4.6308,-4.6308,-4.6308,-4.6308,-4.6308,-4.6308,-4.6308,-4.6308,-4.6308,-4.6308,-4.6308,-4.6308,-4.6308,-4.6308,-4.6308,-4.6308,-4.6308,-4.6308,-4.6308,-4.6308,-4.6308,-4.6308,-4.6308,-4.6308,-4.6308,-4.6308,-4.6308,-4.6308,-4.6308,-4.6308,-4.6308,-4.6308,-4.6308,-4.6308,-4.6308,-4.6308,-4.6308,-4.6308,-4.6308,-4.6308,-2.6939,-2.6617,0.0,-2.5066,-2.5203,-2.5705,-2.5408,-2.6205,-2.6831,-2.6667,-2.6408,-2.6341,-2.6403,-2.5587,-2.5207,-2.6009,-2.5703,-2.5539,0.0,-2.6396,0.0,0.0,0.0,0.0,0.0,0.0,0.0,0.0,0.0,0.0,0.0,-4.1113,-4.1777,-4.2187,-4.2773,-4.3203,-4.3476,-4.3633,-4.3711,-4.3711,-4.3711,-4.3711,-4.3711,-4.3711,-4.3711,-4.3711,-4.3711,-4.3711,-4.3711,-4.3711,-4.4219,-4.5019,-4.5019,-4.5547,-4.6308,-4.6308,-4.6308,-4.6308,-4.6308,-4.6308,-4.6308,-4.6308,-4.6308,-4.6308,-4.6308,-4.6308,-4.6308,-4.6308,-4.6308,-4.6308,-4.6308,-4.6308,-4.6308,-4.6308,-4.6308,-4.6308,-4.6308,-4.6308,-4.6308,-4.6308,-4.6308,-4.6308,-4.6308,-4.6308,-4.6308,-4.6308,-4.6308,-4.6308,-4.6308,-4.6308,-4.6308,-4.6308,-4.6308,-4.6308,-4.6308,-4.6308,-4.6308,-4.6308,-4.6308,-4.6308,-4.6308,-4.6308,-4.623,-4.6074,-4.623,-4.623,-4.6074,-4.623,-4.6308,-4.6308,-4.6308,-4.6308]}]]